Upgrade Notice

The CPAN Testers Statistics site has been upgraded since you last accessed the site. Please press the F5 key or CTRL-R to refresh your browser cache to use the latest javascript and CSS files.

New Distributions submitted during 2009

Contents

Below are all the distributions released for the first time during 2009

New Distributions for January 2009 (238)

AuthorDistributionVersionRelease Date/Time
IANKFinance-NASDAQ-Quote0.012008-12-31 19:11:00
DAMIMsOffice-Word-HTML-Writer0.012008-12-31 20:42:00
DAWOODNet-SMTP-AfterPOP0.012009-01-01 02:00:00
YUSUKEBEWWW-Yahoo-Lyrics-JP0.012009-01-01 05:22:00
ELLIOTJSPerl-Critic-Deprecated1.0942009-01-01 14:56:00
OTTOPod-Trial-LinkImg0.0022009-01-01 15:19:00
MBEEBETree-AVL0.012009-01-01 15:56:00
MBEEBEHeap-MinMax0.012009-01-01 20:26:00
ZUMMOTime-Simple-Range1.12009-01-01 20:29:00
ZUMMOTime-Vector1.12009-01-01 20:38:00
JPIERCEAcme-Curses-Marquee-Extensions0.032009-01-01 22:41:00
DAVIDDarcs-Inventory0.92009-01-01 23:19:00
POTYLGtk2-Ex-Entry-Pango0.012009-01-02 04:14:00
SZABGABPerl6-Cookbook0.012009-01-02 09:55:00
KASHASNMP-Map1.002009-01-02 12:13:00
MIORELWWW-TinySong0.00_012009-01-02 15:17:00
SUNTONGFile-FindSimilars2.062009-01-02 16:41:00
BDFOYApp-PPI-Dumper0.10_012009-01-02 22:34:00
BDFOYGit-Github-Creator0.172009-01-03 00:56:00
LEVMiniPAN0.012009-01-03 04:45:00
GUGODParse-USDASR0.012009-01-03 09:33:00
SMUELLERFile-PackageIndexer0.012009-01-03 10:46:00
CTBROWNMooseX-Attribute0.012009-01-03 14:22:00
MIORELWWW-PDB0.00_012009-01-03 20:20:00
EVDBNet-FreshBooks-API0.012009-01-04 07:47:00
MASAKIHTTP-Router0.012009-01-04 10:42:00
ELLIOTJSTeamCity-BuildMessagesv0.999.12009-01-04 21:46:00
EWILHELMGraph-ChainBuilderv0.0.12009-01-04 22:33:00
SWALTERSAcme-State0.012009-01-05 02:06:00
IKEGAMIDateTime-Format-RFC3339v1.0.02009-01-05 04:35:00
IKEGAMIDateTime-Format-Atomv1.0.02009-01-05 04:35:00
KEEDIPadre-Plugin-Encode0.1.12009-01-05 05:11:00
JJONESFinance-OFX-Parse-Simple0.012009-01-05 11:54:00
VVELOXZConf-Runner0.0.02009-01-05 14:19:00
MMIMSPOE-Component-Server-Twirc0.032009-01-05 14:29:00
ASHParse-Method-Signatures12009-01-05 18:08:00
MOGAALDansguardian0.12009-01-05 21:39:16
MJCARMANTkx-ROText0.012009-01-05 22:39:55
SUNNAVYNet-Google-Code0.012009-01-05 22:45:14
MASAKIMouseX-Getopt0.012009-01-05 23:51:46
NORBUNet-Server-Framework1.02009-01-06 00:39:50
THORIKAWADBIx-Class-ForceUTF80.0.12009-01-06 03:55:55
MASAKIMouseX-Types-Path-Class0.012009-01-06 04:38:25
MASAKIMouseX-ConfigFromFile0.012009-01-06 08:40:20
MRAMBERGMojoMojo-Formatter-Amazon0.012009-01-06 17:21:00
MRAMBERGMojoMojo-Formatter-RSS0.012009-01-06 17:22:00
COSMICNETCGI-Application-Plugin-I18N0.012009-01-06 19:55:03
DAVIDDarcs-Notify1.02009-01-07 07:57:59
XSAWYERXTest-SFTP0.012009-01-07 10:20:13
MASAKIMouseX-Types-URI0.012009-01-07 11:58:19
EWILHELMDevel-NoGlobalSigv0.0.12009-01-07 18:54:00
GTERMARSTAP-Formatter-JUnit0.012009-01-08 01:10:00
INGRIFCluster-Similarityv0.012009-01-08 09:06:00
WILSONDMegagram-ResolveSRV0.012009-01-08 09:25:00
LEONTScalar-Andand0.012009-01-08 11:28:00
NHEINRICWebService-Buxfer0.012009-01-08 14:51:00
ANDYFile-Cache-Persistent0.12009-01-08 15:00:00
DIOCLESNet-NationalRail-LiveDepartureBoards0.012009-01-08 15:30:00
BPHILLIPSText-Snippet0.012009-01-08 16:03:00
BTMCINNESUMLS-Interface0.012009-01-08 16:28:00
TIMBUltraDNS0.01_012009-01-08 17:13:00
DMUEYString-ZeroButTrue0.12009-01-08 22:28:00
RJBSCatalyst-View-Text-Template0.0002009-01-09 12:13:00
GRODITIFinance-FINRA-File-PostBranchIndividualReport0.0010002009-01-09 19:28:00
ANDYXSLT-Cache0.12009-01-10 03:24:56
TOSHIFJWFuse-Class0.012009-01-10 08:10:45
TOSHIFJWFuse-Filesys-Virtual0.022009-01-10 08:10:56
MELONMANxcruciate0012009-01-10 11:48:42
MASAKIMouseX-Log-Dispatch-Config0.022009-01-10 11:50:09
MELONMANxcruciate-utils0012009-01-10 12:12:58
MELONMANxcruciate-xcruciateconfig0012009-01-10 12:25:49
MELONMANxcruciate-unitconfig0012009-01-10 12:36:08
BINGOSminismokebox0.01_012009-01-10 17:17:00
NUFFINGithub-Import0.012009-01-11 01:35:11
PERLERCatalyst-View-JavaScript0.992009-01-11 14:39:19
JKAMPHAUSSpeechd0.502009-01-11 16:55:07
FAYLANDGoogle-Code-Upload0.012009-01-11 19:09:00
BAYASHIWWW-Tube80.0.32009-01-11 19:58:22
MASAKIMouseX-Param0.012009-01-12 01:28:19
SWALTERSAcme-SubstituteSubs0.012009-01-12 03:49:32
MASAKIMouseX-Types-DateTime0.012009-01-12 10:57:22
INFINOIDAI-Evolve-Befunge0.012009-01-12 11:16:31
GRODITIFinance-Pershing-StandardFiles0.0020002009-01-12 12:20:05
GSHANKHTML-FormHandler0.012009-01-12 13:46:37
NKHModule-Text-Template-Build0.03.52009-01-12 14:50:25
NKHFile-Path-Collapse0.01.42009-01-12 14:51:52
NKHData-TreeDumper-Utils0.01.22009-01-12 14:51:58
NKHTerm-Bash-Completion-Generator0.01.62009-01-12 14:53:25
BTMCINNESUMLS-Similarity0.012009-01-12 16:27:58
SMASHBiblio-Thesaurus-ModRewrite0.012009-01-12 17:17:00
FAYLANDPadre-Plugin-SpellCheck0.01_012009-01-12 19:59:55
RAZORParse-ISF0.012009-01-13 00:17:24
TOBYINKRDF-RDFa-Parser0.012009-01-13 10:34:57
SARTAKContinuation-Escape0.012009-01-13 12:06:47
SZABGABPadre-Plugin-Vi0.212009-01-13 14:24:54
PEVANSCPS0.012009-01-13 15:15:50
ADAMKORLite-Pod0.012009-01-13 20:35:00
SMASHApp-Navegante0.012009-01-14 15:29:00
JMEHNLENet-Address-IP-Local0.1.22009-01-14 16:34:52
LINASWordNet-SenseKey1.032009-01-14 17:13:00
VVELOXZConf-BGSet0.0.02009-01-14 17:49:00
ADAMKORDB-CPANTesters0.012009-01-14 22:35:00
KOMORIYAHTML-MobileJpCSS0.012009-01-15 01:02:00
ADAMKORDB-CPANTS0.012009-01-15 08:29:00
FALCONERTFM-Extension-ArticleTemplates0.022009-01-15 12:00:00
KILORKFinance-Quote-Sberbank0.012009-01-15 16:46:00
DAVECROSSWWW-Shorten-Qwer1.002009-01-15 17:07:00
SCWText-JaroWinkler0.12009-01-16 00:00:00
RJBSConfig-INI-MVP0.0192009-01-16 11:01:00
COSMICNETCGI-Application-Plugin-YAML0.012009-01-16 15:00:00
MCRAWFORRestClient562009-01-16 16:39:00
GUGODPerl6ish0.012009-01-17 07:55:00
ZAGXML-ExtOn0.072009-01-17 09:36:00
ZAGPod-ToDocBook0.12009-01-17 09:36:00
DRAEGTUNWWW-FreshMeat-API0.012009-01-17 15:56:00
ZOFFIXWWW-Pastebin-NoPasteCom-Create0.0012009-01-17 17:31:00
FREQUENCYVideo-FourCC-Info1.02009-01-17 18:36:00
DAMOGApache2-EmbedFLV0.12009-01-17 18:40:00
KJETILKRDF-RDFa-Parser-Trine0.012009-01-17 19:18:00
LEONTSys-Sendfile0.012009-01-17 20:10:00
EARONESTYRoguelike-Utils0.4.1322009-01-17 21:42:00
KITANOClass-Method-Modifiers-Fast0.032009-01-18 05:11:00
JHIVERObject-Store0.012009-01-18 06:35:00
MALUKUDotiac-addon-unparsed0.12009-01-18 20:19:45
APOCALPOE-Component-Fuse0.012009-01-19 03:52:00
MASHTemplate-Plugin-AddTime0.012009-01-19 04:54:00
MONSTest-More-UTF80.012009-01-19 07:40:00
SWALTERSAcme-MUDLike0.012009-01-19 14:36:00
SWALTERSAcme-Fatal0.012009-01-19 15:16:00
GRAFCatalyst-Plugin-Cache-HTTP0.0010002009-01-19 15:58:00
MIORELWWW-SPOJ0.00_012009-01-19 17:07:00
MRDVTModule-Filename0.012009-01-19 18:34:00
BPHILLIPSMooseX-Contract0.012009-01-19 22:49:00
DUNCANDSet-Relation0.0.02009-01-20 07:06:00
CHISELCatalyst-Controller-Validation-DFV0.0.22009-01-20 17:35:00
DAVIDRWCPAN-Reporter-Smoker-Safer0.012009-01-21 09:13:00
UHANDACMD-Colors0.12009-01-21 09:58:01
KORPIQTest-CallFlow0.012009-01-21 16:48:00
MCRAWFORREST-Client622009-01-21 17:06:00
SWALTERSAcme-RPC0.012009-01-21 19:59:00
NHEINRICAudio-File-Wav0.012009-01-22 04:49:00
NHEINRICAudio-File-Wma0.012009-01-22 04:49:00
BINGOSPOE-Filter-HTTP-Parser0.022009-01-22 11:33:00
MELONMANxcruciate-combined0072009-01-22 11:45:00
RRWOMIME-Type-Simple0.012009-01-22 11:53:00
KITANOMouseX-Object-Pluggable0.012009-01-22 11:55:00
CORNELIUSMFor0.012009-01-22 12:18:00
IPENBURGDate-Extract-P800Picture0.022009-01-22 14:02:00
MDIETRICHCatalyst-Plugin-I18N-DBI0.1.02009-01-22 18:12:00
RJRAYApp-Changelog2x0.102009-01-22 20:49:00
MALUKUDotiac-addon-markup0.12009-01-23 00:31:15
SJSOFTctmpl02009-01-23 03:45:48
PALLOTRONFinance-Bank-IE-PermanentTSB0.022009-01-23 04:50:00
AMBSLingua-Jspell1.602009-01-23 06:08:00
JJONESSMS-Send-UK-Kapow0.012009-01-23 11:46:00
PEVANSConvert-Color-Library0.012009-01-23 14:05:00
PEVANSConvert-Color-XTerm0.012009-01-23 15:09:00
MALUKUDotiac0.52009-01-23 16:07:40
DROLSKYList-AllUtils0.012009-01-23 16:31:00
ELIZABETHpersona0.012009-01-23 17:11:00
ROSCIOTell0.0.42009-01-23 20:08:00
GFUJIAcme-RequireModule0.012009-01-24 00:14:00
SALVARegexp-IPv60.012009-01-24 11:06:00
HDPMoose-Micro0.0012009-01-24 18:58:00
MRDVTGSM-ARFCN0.032009-01-24 19:06:00
RJBSEmail-MIME-Kit2.0002009-01-24 22:57:00
TBRPOE-Component-IRC-Plugin-Trac-RSS0.12009-01-25 00:15:00
RCLIPDevice-Allnet-ALL40000.102009-01-25 01:11:00
RSRCHBOYMooseX-Role-XMLRPC-Client0.012009-01-25 03:41:00
IVANBusiness-OnlinePayment-Jettis0.022009-01-25 05:53:00
PJAINWWW-Shorten-Bitly0.772009-01-25 09:31:00
PEVANSIO-Async-Loop-Epoll0.012009-01-25 12:47:00
TBRCatalyst-Plugin-Mail-Sender0.012009-01-25 13:59:00
SAKOHTRMI0.012009-01-25 19:04:00
ABELHelix0.012009-01-25 22:41:00
DEEPFRYEDClass-Attribute0.012009-01-26 00:08:00
CTBROWNMooseX-Attribute-Prototype0.032009-01-26 00:48:00
VVELOXZConf-Bookmarks0.0.02009-01-26 09:05:00
RRWOMedia-Type-Simple0.022009-01-26 09:06:00
MALUKUDotiac-addon-json0.12009-01-26 09:43:24
BHMAnte-Deluvian-Dialog0.012009-01-26 09:52:00
KIMOTOApp-Sequence0.01_012009-01-26 11:24:00
CHROMATICModern-Perl1.002009-01-26 18:00:00
ROSCIOTerm-Emit0.0.12009-01-26 19:14:00
DCOLLINSMediaWiki-Bot-Plugin-2GIRLS1CUP0.0.12009-01-26 19:58:00
LEONTScalar-Induce0.012009-01-26 21:40:00
DTADYClass-LazyFactory0.012009-01-27 05:15:00
MARKOVGeo-Format-Landsat0.012009-01-27 10:48:00
NKHApp-Textcast0.01_012009-01-27 14:30:00
MARNANELLingua-EN-Phoneme0.012009-01-27 20:27:00
LEOCHARRESys-Filesystem-MountPoint1.022009-01-27 22:15:00
COSIMOOpenGL-Earth0.012009-01-28 02:34:00
XANTUSFilesys-Virtual-Async0.012009-01-28 04:49:00
MALUKUSofu0.32009-01-28 05:15:31
MONSlvalue0.012009-01-28 06:44:00
WILSONDLinux-Input-Wiiuse0.012009-01-28 06:56:00
APOCALFilesys-Virtual-Async-Dispatcher0.012009-01-28 07:47:00
APOCALFilesys-Virtual-Async-inMemory0.012009-01-28 07:48:00
APOCALPOE-Devel-ProcAlike0.012009-01-28 09:02:00
CJFIELDSBioPerl-db1.5.9_12009-01-28 12:20:00
CJFIELDSBioPerl-network1.5.9_12009-01-28 12:20:00
CJFIELDSBioPerl-run1.5.9_12009-01-28 12:21:00
HEYTRAVHessian0.1.02009-01-28 17:25:00
PFIGNet-Twitter-Cabal0.012009-01-28 17:52:00
RJBSData-Rx-Type-Perl0.0012009-01-28 19:16:00
SAPERPerlIO-via-escape_ansi0.012009-01-28 19:31:00
RJBSDist-Zilla-Plugin-PodPurler0.0012009-01-28 20:44:00
KIRSLEData-ChipsChallenge0.012009-01-28 22:48:00
RAZORParse-Tektronix-ISF0.01032009-01-29 00:08:00
HEYTRAVHessian-Client0.1.12009-01-29 02:45:00
XANTUSFilesys-Virtual-Async-Plain0.012009-01-29 03:03:00
MONSXML-Parser-Style-EasyTree0.012009-01-29 04:58:00
SASIKALAConfig-IniRegEx0.012009-01-29 09:18:00
ANDYANet-CIDR-Set0.102009-01-29 10:09:00
MALUKUDotiac-addon-jsonify0.12009-01-29 13:51:55
RJBSData-Rx-TypeBundle-Perl0.0022009-01-29 14:39:00
FGOSLICHjpgresize0.3-beta2009-01-29 15:52:00
RJBSEmail-MIME-Kit-Validator-Rx0.0012009-01-29 16:19:00
DAMOGVitacilina0.12009-01-29 16:31:00
RJBSEmail-MIME-Kit-Renderer-TT0.0012009-01-29 16:56:00
JMCNAMARAData-Dumper-Perltidy0.012009-01-29 20:07:00
COSMICNETBundle-CertHost0.012009-01-29 21:32:00
HBSLABSWWW-MenuGrinder0.01_012009-01-30 04:37:00
HBSLABSCatalyst-Model-MenuGrinder0.01_012009-01-30 04:37:00
CDRAKESysTray0.132009-01-30 07:09:00
MSCHILLIString-Glob-Permute0.012009-01-30 16:49:00
MARNANELFlickr-Embed0.012009-01-30 17:32:00
NILSONSFJCatalyst-View-Component-SubInclude0.012009-01-30 17:36:00
ROSCIOTerm-Emit-Format-HTML0.0.12009-01-30 20:47:00
CLBECKERDeep-Hash-Utils0.012009-01-31 00:09:00
SOREARNetHack-Monster-Spoiler0.012009-01-31 00:57:00
YEHEZKIELMath-NumberBase0.012009-01-31 03:11:00
MBROOKSString-Urandom0.012009-01-31 04:30:00
JQUELINApp-CPAN2Pkg0.3.02009-01-31 08:50:00
EWILHELMGetopt-Basev0.0.12009-01-31 14:46:00
EWILHELMGetopt-AsDocumentedv0.0.12009-01-31 14:47:00
EWILHELMVCfsv0.0.12009-01-31 15:48:00
EWILHELMTree-Basev0.10.12009-01-31 18:44:00

New Distributions for February 2009 (226)

AuthorDistributionVersionRelease Date/Time
GFUJIHash-FieldHash0.012009-02-01 03:26:00
LBROCARDLWP-ConnCache-MaxKeepAliveRequests0.322009-02-01 10:32:31
OVIDClass-Sniff0.022009-02-01 11:50:31
SLANNINGPerlIO-via-json0.012009-02-01 12:07:28
SLANNINGPerlIO-via-csv0.012009-02-01 12:07:39
DCOLLINSMediaWiki-Bot-Plugin-SE0.1.02009-02-01 15:48:09
PEVANSString-Tagged0.012009-02-01 16:35:53
COSMICNETCGI-Application-Plugin-Email0.012009-02-01 19:38:00
EWILHELMGetopt-Abridgedv0.0.12009-02-01 19:46:00
APOCALTest-Apocalypse0.012009-02-01 21:49:00
FAYLANDYAML-LoadURI0.012009-02-01 22:42:00
BDDCrypt-FSHP0.2.12009-02-01 23:06:00
JDVTest-Able0.022009-02-02 01:23:00
DEXTERSymbol-Util0.012009-02-02 09:09:18
ADAMKAlien-BatToExeConverter0.012009-02-02 09:36:24
JZOBELCindy0.012009-02-02 15:05:54
GRODITIMooseX-Types-Common0.0010002009-02-02 15:11:12
DAMOGApache2-EmbedMP30.12009-02-02 15:21:54
YANICKGit-CPAN-Patch0.1.02009-02-02 20:10:00
RJBSString-TagString0.0012009-02-02 22:36:00
SIZURParallel-SubArray0.12009-02-02 23:22:00
HDPMooseX-Constructor-AllErrors0.0012009-02-03 01:24:00
TEEJAYTest-HTML-Form0.012009-02-03 06:51:00
BJAKUBSKIFinance-Bank-mBank0.012009-02-03 08:56:00
PWESData-Pareto0.012009-02-03 11:20:00
CHOCOLATEB-Hooks-OP-Annotation0.012009-02-03 21:08:00
SCOTTData-Tokenv0.0.32009-02-03 21:44:00
RSMITHVUser-Google-ProvisioningAPI0.242009-02-03 23:44:00
SHARIFULNNet-LastFM-Submission02009-02-04 09:05:15
LEOCHARREAstroboy1.052009-02-04 10:12:00
BDFOYApp-Cpan1.56_012009-02-04 14:52:00
SEKIMURAData-Page-FlickrLike1.012009-02-04 16:49:00
BINGOSEnv-Sanctify0.022009-02-04 17:06:00
VVELOXZConf-BGSet-GUI-GTK0.0.02009-02-04 18:28:00
GUGODApp-Lazyd0.012009-02-04 20:10:00
MARNANELLingua-EN-Alphabet-Shaw0.012009-02-04 21:45:00
ALEXEOpener_chat0.7_source2009-02-05 04:56:00
TOBYINKCGI-Auth-FOAF_SSL0.012009-02-05 08:57:00
SARTAKAny-Moose0.012009-02-05 12:16:00
MALUKUDotiac-addon-importloop0.12009-02-05 13:26:25
WILSONDWWW-WhoCallsMe0.012009-02-05 13:41:00
KERISMANRose-DBx-RegistryConfig0.012009-02-05 15:31:00
YAPPOMouseX-Types0.012009-02-05 18:19:00
BOBTFISHCatalyst-View-ContentNegotiation-XHTML1.1002009-02-05 19:01:00
MALUKUDotiac-addon-case-insensitive0.32009-02-05 19:34:30
IMALPASSWebService-Etsy0.12009-02-05 23:53:00
LGODDARDTest-WWW-Mechanize-JSON0.12009-02-06 10:29:00
HESCOLedgerSMB-API0.012009-02-06 16:25:00
FLORAPigment0.012009-02-06 16:55:00
LEONTDevel-OnDestruct0.012009-02-06 17:01:00
FLORALog-Dispatch-Gtk2-Notify0.012009-02-06 18:32:00
FLORAApp-Software-License0.012009-02-06 21:32:00
FLORALog-Dispatch-DesktopNotification0.012009-02-06 21:56:00
MSCHILLIPath-Ancestor0.012009-02-07 02:01:00
JONALLENCatalyst-View-PDF-Reuse0.022009-02-07 07:54:00
WILSONDNet-SloppyXMPP0.012009-02-07 08:02:00
SVIEBROCKTwitter-CLI0.01_012009-02-07 09:51:00
BLOMBusiness-iDEAL-Adyen0.012009-02-07 10:37:00
SZABGABPerl6-Conf0.012009-02-07 17:13:00
AGRUNDMAMac-FSEvents0.012009-02-07 22:49:00
GUGODApp-Logbook0.00_12009-02-08 09:59:00
ASHTryCatch1.0000002009-02-08 12:37:00
COSMICNETTask-CGI-Application0.012009-02-08 13:41:00
BARTLXML-Parser-GlobEvents0.4002009-02-08 15:10:00
JMERELOPOE-Component-Algorithm-Evolutionary0.0.32009-02-08 15:27:00
COSMICNETTask-CertHost0.012009-02-08 16:05:00
BURAKTask-Lingua-Any-Numbers0.102009-02-08 22:02:00
MALUKUDotiac-addon-html_template0.12009-02-09 00:55:04
JJOREInternals-DumpArenas0.032009-02-09 01:11:00
LONERRHash-Union0.022009-02-09 07:46:00
MALUKUBundle-Dotiac0.12009-02-09 12:50:18
LEMBARKAttribute-Imports0.12009-02-09 18:14:00
KXJWin32-IEAutomation-RapidShare0.012009-02-09 18:52:00
SWALTERSAcme-RightSideOutObject0.012009-02-09 19:00:00
YAPPOHTTP-Engine-Middleware0.012009-02-10 02:00:00
GRIANTest-Grian-Data-Dumper0.012009-02-10 04:19:00
MASAKIData-OpenStruct-Deep0.012009-02-10 10:40:00
HINRIKAcme-CPANAuthors-Icelandic0.012009-02-10 13:13:00
NEVESENINHTML-Packer0.22009-02-10 14:24:00
MARNANELLingua-EN-Alphabet-Deseret0.012009-02-10 19:52:00
KIMOTOSimo-Constrain0.01_012009-02-11 01:28:00
PERLERDBIx-Class-AsObject0.09_012009-02-11 17:52:00
BBKRInteger-Tiny0.12009-02-11 19:40:00
BJOERNSet-IntSpan-Partition0.012009-02-12 03:45:00
MARKOVXML-Compile-SOAP122.002009-02-12 04:29:00
KILNAFile-Copy-Vigilant1.02009-02-12 04:50:00
ANDYDate-Converter1.02009-02-12 07:13:00
BARBIECPAN-Testers-Common-Article0.362009-02-12 08:35:00
CAPOEIRABAudio-ScratchLive0.012009-02-12 11:30:01
NKHApp-Editor-GVip0.01_01.12009-02-12 12:56:26
MARCELcallee0.012009-02-12 15:52:23
TOCIYUKITest-Behaviour-Spec0.012009-02-12 19:39:18
RJBSDist-Zilla-Plugin-PodWeaver2.0002009-02-12 21:24:07
ADAMKHTML-Spry-DataSet0.012009-02-13 01:54:38
BARBIECPAN-Testers-Data-Uploads0.042009-02-13 07:17:00
NKHInline-Flex0.01_01.22009-02-13 08:10:00
DRINCHEVCatalyst-View-CSS-Minifier-XS0.012009-02-13 08:49:00
MARCELError-Return0.012009-02-13 10:10:00
BARBIEApp-Maisha0.012009-02-13 10:48:00
BRICASImage-TextMode-Reader-ANSI-XS0.012009-02-13 11:24:00
FLORAMooseX-MethodAttributes0.012009-02-13 16:23:00
DANKOGAIClass-Axelerator0.012009-02-13 18:04:00
SANKOAcme-CPANAuthors-Acme-CPANAuthors-Authors0.12345678902009-02-13 18:32:00
NKHCPAN-Mini-ProjectDocs0.01_01.22009-02-13 19:03:00
DUMBCGI-Mungo1.12009-02-13 19:29:12
GFUJIClass-Monadic0.012009-02-13 21:20:00
DAGOLDENCapture-Tiny0.012009-02-13 23:25:00
ADAMKAcme-Mom-Yours0.012009-02-14 00:44:00
MACKENNAIPC-MMA0.52009-02-14 01:00:00
DMAKIDateTimeX-Lite0.00001_022009-02-14 02:39:00
LAJANDYHeliosX-ExtLoggerService0.02_07612009-02-14 05:45:00
NUFDateTime-Format-Duration-XSD0.012009-02-14 10:17:00
LEONTVariable-OnDestruct0.022009-02-14 15:27:00
CHOCOLATEMethod-Lexical0.012009-02-14 16:34:00
DAVIDNet-NAT-PMP0.9.12009-02-14 19:00:00
DMAKIData-Localize0.00001_012009-02-15 00:53:00
ADAMKCPANTS-Weight0.012009-02-15 01:02:00
ADAMKCPAN-WWW-Top100-Generator0.012009-02-15 01:07:00
WAZZUTEKEImage-Heatmap0.42009-02-15 02:15:00
GUGODRailsish0.102009-02-15 08:23:00
LAJANDYHeliosX-Logger-Log4perl0.02_07712009-02-15 09:29:00
LAJANDYHeliosX-Logger-Syslog0.02_07712009-02-15 09:29:00
LAJANDYHeliosX-MetajobService0.02_07712009-02-15 10:58:00
VOVKASMDBICx-TxnInsert0.012009-02-15 21:15:00
SAMVProfile-Log0.022009-02-15 21:56:00
WAZZUTEKENet-Twitter-RandomUpdate1.22009-02-16 00:37:40
KIMOTOSimo-Wrapper0.01_012009-02-16 08:29:00
KIMOTOSimo-Util0.01_012009-02-16 09:57:00
BARBIEApp-Maisha-Plugin-PingFM0.012009-02-16 11:16:00
VPITAcme-CPANAuthors-You-re_using0.012009-02-16 12:16:00
ZBYDBIx-Class-ResultSet-RecursiveUpdatev0.0012009-02-16 12:28:00
ZBYRose-HTMLx-Form-DBIC0.012009-02-16 13:57:00
TKEEFEReBay-API-Simple0.042009-02-16 18:53:00
LAJANDYHeliosX-Logger-HiRes0.01_08212009-02-17 03:30:00
LBROCARDDackup0.332009-02-17 08:09:00
SUNNAVYTest-Script-Run0.012009-02-17 09:55:00
DAVECROSSTemplate-Plugin-XML-Feed0.012009-02-17 17:20:00
ROGERHALLNCBIx-BigFetch0.502009-02-17 17:24:00
MUGUETKools-Okapi2.6.3.L3.0012009-02-17 17:36:00
ECARROLLDateTimeX-Format00.01_012009-02-17 18:21:00
WILSONDWin32-WindowsUpdate0.012009-02-17 18:22:00
BINGOSString-Perl-Warnings0.022009-02-17 18:48:00
DRINCHEVCatalyst-View-JavaScript-Minifier-XS0.022009-02-18 07:44:00
MARCELany-feature0.012009-02-18 07:45:00
FAYLANDTemplate-Plugin-Dumper-Perltidy0.012009-02-18 08:20:00
FANSIPANSCouchDB-ExternalProcess0.012009-02-18 09:10:25
SHLOMIFFile-Find-Object-Rule0.01002009-02-18 10:17:00
MALUKUTie-Proxy-Changes0.12009-02-18 10:52:42
KILNAQuote-Reference1.0.02009-02-18 13:21:00
NKHSearch-Indexer-Incremental-MD50.01_012009-02-18 15:25:00
EARONESTYIPC-Lite0.1.212009-02-18 17:04:00
ECARROLLDateTimeX-Format-POSIX-Strptime00.01_012009-02-18 18:27:00
BARTLAudio-Digest-MP30.12009-02-19 09:29:00
JLAVALLEETest-XML-Deep0.012009-02-19 10:54:00
HAMANOWWW-Hanako0.012009-02-19 11:21:00
DURISTDrupal-Admin.012009-02-19 12:46:00
COMSULTIASVGraph0.012009-02-19 14:14:00
DMAKICatalyst-Model-Data-Localize0.00001_012009-02-20 00:22:00
BOSUGtk2-WebKit-Mechanize0.012009-02-20 04:05:00
KONOBINet-API-RPX0.012009-02-20 07:14:00
AFFDia-SQL0.012009-02-20 07:19:00
FLORACatalyst-Controller-ActionRole0.012009-02-20 07:46:00
ZOFFIXApp-ZofCMS-Plugin-RandomPasswordGenerator0.01012009-02-20 09:56:00
ROGERHALLZymurgy0.012009-02-20 15:27:00
SHINYNet-Generatus0.202009-02-20 18:35:00
JASONKSearch-Sitemap2.022009-02-20 23:17:00
MSCHOUTNumber-Phone-CountryCode0.012009-02-21 00:27:00
GFUJITest-LeakTrace0.012009-02-21 01:00:00
KIMOTOSimo-Error0.01_012009-02-21 01:38:00
DANKOGAIHTML-Tidy-libXML0.012009-02-21 06:21:43
HPOULGPS-Garmin-Connect0.012009-02-21 06:48:49
DANKOGAIText-Tx0.022009-02-21 09:49:14
CORIONTest-WWW-Mechanize-HSS0.012009-02-21 10:32:23
CORNELIUSJaipo0.022009-02-21 11:06:54
RKRIMENYUI-Loader0.06_12009-02-21 16:13:15
RKRIMENjQuery-Loader0.02_12009-02-21 16:41:31
RKRIMENAcme-Matt-Daemon0.012009-02-21 19:19:00
ABERGMANGlbDNS0.292009-02-21 20:14:00
MSCHILLIVideo-FrameGrab0.012009-02-22 05:49:00
MARCBNet-SMTP-Pipeliningv0.0.22009-02-22 08:55:28
NKHCPAN-Mini-Indexed0.01_01.12009-02-22 10:35:00
JKRAMERSQL-Beautify0.012009-02-22 11:33:00
FAYLANDMooseX-Dumper0.012009-02-22 23:29:00
HAOSANTask-Pluggable0.012009-02-22 23:48:00
KAKADUNormalize0.32009-02-23 13:55:26
RSAVAGEHTML-Parser-Simple1.002009-02-24 00:33:00
HAOSANWebService-Class0.012009-02-24 01:23:00
AFFParse-Dia-SQL0.012009-02-24 01:58:00
KAZUHOEncode-compat-MIME-Header-ISO_2022_JP0.012009-02-24 02:07:00
CLKAORTx-WorkflowBuilder1.022009-02-24 03:08:00
MIYAGAWATest-Synopsis0.012009-02-24 04:42:00
KITANOTest-LoadAllModules0.012009-02-24 07:18:00
BBAXTERMath-Int2Base0.012009-02-24 11:37:00
DFREEDMANFrontier-Client-Easy1.012009-02-24 12:47:33
ECARROLLMooseX-Types-DateTimeX0.042009-02-24 12:54:08
RJBSPath-Resolver1.0002009-02-24 14:21:04
ANDREWFPod-POM-View-DocBook0.012009-02-24 17:22:00
VPITLexical-Types0.012009-02-24 18:20:00
ARSHADRDF-Converter-CSV0.012009-02-24 21:24:00
WILSONDLinux-APT0.012009-02-25 04:50:00
JASONKDevice-OUI1.012009-02-25 10:17:00
JASONKDevice-WWN1.002009-02-25 11:48:00
ZAGWebDAO1.002009-02-25 15:02:00
ZAGWebDAO-Store-MLDBM1.002009-02-25 15:02:00
JASONKDevice-MAC1.002009-02-25 15:39:00
FLORACatalystX-REPL0.012009-02-26 08:36:00
VANYStorable-Ref1.02009-02-26 09:41:00
SDPRICEApp-Framework0.012009-02-26 11:53:00
HESCOCMS-JoomlaToDrupal0.042009-02-26 21:56:00
BRICASFinance-Wesabe0.012009-02-26 21:59:00
NHEINRICCatalyst-Plugin-Upload-Audio-File0.012009-02-27 05:25:00
DEXTERMooseX-GlobRef0.072009-02-27 08:36:00
STEVANJS-Chicken0.012009-02-27 10:28:00
MAREKRTerm-Completion0.912009-02-27 10:34:00
YUKIOGeography-JapaneseMunicipals0.012009-02-27 11:18:00
DCANTRELLWWW-Facebook-Go-SGF1.02009-02-27 16:16:00
KARMANRose-HTMLx-Form-Field-PopUpMenuNumeric0.0012009-02-27 17:08:00
STEVANJSORB0.012009-02-27 18:04:00
MSCHILLIBot-Webalert0.012009-02-28 00:54:00
SARTAKTAEB0.012009-02-28 01:08:00
MRDVTGeo-WebService-OpenCellID0.012009-02-28 02:57:00
INGYCDent0.012009-02-28 08:37:00
NUFFINKiokuX-Model0.012009-02-28 12:32:02
NUFFINCatalyst-Model-KiokuDB0.012009-02-28 12:35:11
APLAClass-Easy0.012009-02-28 17:28:00
APLANet-Domain-Info0.012009-02-28 17:49:00

New Distributions for March 2009 (252)

AuthorDistributionVersionRelease Date/Time
KILNAConfig-INIPlus1.0.02009-02-28 20:34:00
WONKONet-Mollom0.012009-03-01 08:24:00
DARKNOSCatalyst-Plugin-Server-JSONRPC0.032009-03-01 11:24:00
KENTAROTerm-ANSIColor-Tag0.012009-03-01 12:44:44
YUKIUta-Validator02009-03-01 17:30:37
YUKIUta-Base02009-03-01 17:30:49
RSRCHBOYArchive-RPM0.022009-03-01 17:36:00
YUKIUta-Dispatch-Base02009-03-01 17:41:28
SYBERCatalyst-Plugin-ConfigLoader-MultiState0.012009-03-01 18:26:00
WILLERTFirePHP-Dispatcher0.02_012009-03-02 06:37:00
VVELOXFreeBSD-Ports0.0.02009-03-02 07:14:00
VVELOXZConf-Weather0.0.02009-03-02 07:47:00
PRBRENANMath-Permute-List1.02009-03-02 07:52:00
KENTAROTerm-ANSIColor-Markup0.052009-03-02 09:48:00
UNERAAProf0.12009-03-02 09:51:00
SBECKData-NDS-Multiele3.002009-03-02 10:11:00
SBECKData-NDS-Multifile3.002009-03-02 10:11:00
SBECKTemplate-Plugin-NDS_Multi3.002009-03-02 10:29:00
ANDREWFTemplate-Plugin-MultiMarkdown0.012009-03-02 14:45:00
WILLERTDBIx-Class-Storage-Statistics-SimpleTable0.01_012009-03-02 22:16:00
WILLERTCatalyst-Plugin-FirePHP0.01_022009-03-02 22:54:00
BLILBURNEPod-Abstract0.142009-03-03 05:30:00
SZABGABPadre-Plugin-SVK0.012009-03-03 06:16:00
JROCKWAYEvent-Join0.012009-03-03 10:44:00
MKUTTERSOAP-WSDL_XS0.22009-03-03 15:59:10
GARULog-Dispatch-SNMP0.012009-03-04 01:49:00
MCANTONIWWW-UserAgent-Random0.012009-03-04 05:31:00
UNERARTPG0.12009-03-04 06:00:00
DDICKWebService-Validator-HTML-W3C-Embedded0.012009-03-04 15:47:30
BURAKSys-Info-Base0.69_012009-03-04 20:47:00
BURAKSys-Info-Driver-Unknown0.69_012009-03-04 20:48:00
BURAKSys-Info-Driver-Windows0.69_012009-03-04 20:49:00
BURAKSys-Info-Driver-Linux0.69_012009-03-04 21:47:00
RJBSJSON-CPAN-Meta1.0002009-03-04 23:09:00
SUZUKIPOEIKC-Plugin-IRC0.00_002009-03-05 01:16:00
DDICKWebService-Validator-HTML-W3C-Fast0.022009-03-05 04:09:00
VTIMojoX-Automata0.012009-03-05 07:32:00
PRBRENANMath-Disarrange-List1.0012009-03-05 10:37:00
PRBRENANMath-Subsets-List1.0012009-03-05 10:38:00
ROGERHALLText-Mining0.042009-03-05 11:19:00
ROGERHALLWWW-HyperGlossary0.022009-03-05 14:16:46
ZOFFIXApp-ZofCMS-Plugin-FileTypeIcon0.01012009-03-06 09:45:00
THECRAMPSTkUtil-Configure0.012009-03-06 10:01:00
MITHALDUQuiz-Flashcards0.012009-03-06 12:12:00
MITHALDUQuiz-Flashcards-Audiobanks-Japanese_Syllables0.012009-03-06 12:12:00
MITHALDUQuiz-Flashcards-Sets-Hiragana-Romaji_Simple0.012009-03-06 12:12:00
ZOFFIXApp-ZofCMS-Plugin-Search-Indexer0.01012009-03-06 16:16:00
CGUINENews-Pictures0.012009-03-06 17:39:00
ARFREITASTest-Reporter-Transport-Outlook0.012009-03-06 18:09:00
RSRCHBOYFedora-Bugzilla0.062009-03-06 20:31:00
SEKIMURAXML-SAX-SimpleDispatcher0.012009-03-06 22:23:00
TOKUHIROMFormValidator-Lite0.01_012009-03-06 22:51:00
SZABGABPadre-Plugin-SVN0.012009-03-07 07:46:00
SMUELLERApp-DualLivedDiff1.002009-03-07 12:24:40
FAYLANDNet-GitHub0.012009-03-07 18:28:00
DYLANFilter-Arguments0.012009-03-08 00:15:00
MAXSCHUBESchedule-Week1.02009-03-08 00:23:00
MELOApp-CMAM0.012009-03-08 12:49:00
DAGOLDENTest-API0.0012009-03-08 18:31:00
WILLWOLFNet-Rackspace-Cloudfiles0.12009-03-08 21:57:00
REDICAPSIO-File-MultiLines0.012009-03-09 00:21:00
TOKUHIROMHTML-Shakan0.01_012009-03-09 00:43:00
CORLISSParanoid0.222009-03-09 02:10:00
MASAKIMouseX-AttributeHelpers0.012009-03-09 02:12:00
DHOSSAcme-Blarghy-McBlarghBlargh0.001-03-09-20092009-03-09 02:24:00
KOBAYASHIWebService-Ustream-API0.012009-03-09 04:02:00
BOLAVModule-Install-Debian0.022009-03-09 05:47:00
MCANTONINet-Scan-Extract0.012009-03-09 06:58:00
OBRADOVICSNA-Network0.012009-03-09 08:52:00
RJBSApp-Cronjob1.0002009-03-09 08:56:00
THECRAMPSAcme-AlgebraicToRPN0.012009-03-09 12:37:00
JKEGLMarpa0.001_0002009-03-09 15:34:37
KARMANCatalyst-Plugin-Static-Simple-ByClass0.0012009-03-09 16:49:38
KRYDEGtk2-Ex-ErrorTextDialog12009-03-09 20:18:00
CRAKRJACKFile-Lock-Multi0.012009-03-09 21:18:00
GBARRMooseX-Alien1.002009-03-09 21:21:00
RJBSEmail-MIME-Kit-KitReader-SWAK1.0002009-03-09 23:29:00
MASSYNAuth-Yubikey_WebClient0.012009-03-10 06:58:00
SHIGETAXRDS-Simple0.022009-03-10 10:20:00
GBARRMooseX-Role-Restricted1.002009-03-10 15:20:06
APLAIO-Easy0.012009-03-10 17:38:57
APLADBI-Easy0.012009-03-10 18:00:37
APLAProject-Easy0.012009-03-10 18:04:41
PEVANSNet-Async-FTP0.012009-03-10 19:37:00
PJSApp-Toodledo0.012009-03-11 00:35:00
MDOMBot-BasicBot-Pluggable-Module-Log0.022009-03-11 06:15:00
JFROEBEFlickr-Simple20.022009-03-11 10:05:00
MONSconstant-def0.012009-03-11 14:24:59
DAVECROSSGuardian-OpenPlatform-API0.012009-03-11 17:33:43
COSMICNETCGI-Application-Plugin-GenVal0.01_012009-03-11 18:46:00
DWPSwitchvox-API1.02009-03-11 19:11:00
BURAKTest-Sys-Info0.102009-03-11 22:55:00
RJBSEmail-MIME-Kit-Renderer-Text-Template1.0002009-03-11 23:09:00
KIMOTOBundle-Simo0.01012009-03-12 03:04:00
RJBSEmail-MIME-Kit-Assembler-TextifyHTML1.0002009-03-12 15:44:02
BOLAVTest-TT0.012009-03-12 21:13:00
FAYLANDGitStore0.01_012009-03-12 21:46:00
GFUJIMethod-Destructor0.012009-03-13 00:00:00
KAAREPadre-Plugin-Git0.012009-03-13 07:11:00
OBRADOVICList-Flatten0.012009-03-13 07:42:00
OBRADOVICList-Conditional0.012009-03-13 07:43:00
JQUELINPadre-Plugin-Autoformat0.1.02009-03-13 09:44:00
MCMAHONAcme-Tie-Formatted0.032009-03-13 13:17:00
JMELTZERrandom0.012009-03-13 14:18:00
ASAKURAJcode-CP9320.052009-03-13 22:53:00
MAXSCHUBESys-Syslog-OO1.002009-03-14 00:15:00
CHRMUESocket-Class-SSL0.99_012009-03-14 00:33:00
ASHLEYXHTML-Util0.012009-03-14 01:03:00
ZEFRAMScalar-String0.0002009-03-14 09:04:00
DANKOGAIFreeBSD-i386-Ptrace0.012009-03-14 09:15:00
BURAKSys-Info-Driver-BSD0.69_072009-03-14 09:54:00
CORNELIUSJifty-Plugin-Gravatar0.012009-03-14 10:30:00
DPIROTTEMail-Chimp0.12009-03-14 11:34:00
ISJOUNGProc-Branch0.012009-03-14 19:28:31
ASHModule-Install-ProvidesClass0.000001_012009-03-14 21:41:00
CHRMUEDBE0.99_12009-03-14 23:46:00
PFIGWWW-Shorten-PunyURL0.012009-03-15 05:09:00
POTYLChamplain0.012009-03-15 13:30:00
SPADIXBarcode-Zebra0.12009-03-15 17:04:36
SCHROEERChainMake0.9.02009-03-15 17:41:24
SIMONWNet-OAuth-Simple0.52009-03-15 20:17:00
VPITThread-Cleanup0.012009-03-15 20:26:00
JOHNDClass-Data-Remote0.0012009-03-15 22:21:00
TURUGINASet-Intersection0.012009-03-16 00:08:00
BYRNEFile-Download0.12009-03-16 05:18:00
BBAXTERFlatFile-DataStore0.022009-03-16 16:13:22
HEYTRAVPOE-Filter-Hessian0.1.02009-03-16 16:16:26
JOHNDIterator-Paged0.0012009-03-17 02:09:00
WARRINGDElive0.012009-03-17 02:37:00
MARCBUnix-Lsof0.0.62009-03-17 06:42:12
CYGAAcme-URM0.012009-03-17 08:06:00
JOHNDTest-Cucumber0.0012009-03-17 14:14:47
PERRINCHI-Driver-DBI1.02009-03-17 14:44:02
TSCHPango1.2202009-03-17 14:59:55
DMARTINAuthen-Simple-IMAP0.0.12009-03-17 15:29:42
GAOUBio-Glite0.012009-03-17 21:58:00
NISHIKAWAYAML-Visitor0.000012009-03-18 02:27:00
PRBRENANMath-Transform-List1.0012009-03-18 05:08:00
DMAKIModule-Install-Any-Moose0.000012009-03-18 08:20:00
MELOAsync-Hooks0.012009-03-18 08:55:00
LEOCHARREString-Similarity-Group1.052009-03-18 11:47:00
MIKIAlgorithm-LSH0.00001_002009-03-18 13:39:18
LEOCHARRELEOCHARRE-CLI21.032009-03-18 14:50:30
DCANTRELLApp-Rsnapshot1.999_000012009-03-18 16:01:13
PFIGTryCatch-Error0.012009-03-18 17:42:58
HCCHIENYahoo-CAS0.12009-03-18 23:06:00
AURUMText-TEI-Collate1.02009-03-19 09:02:00
MARCELonce0.012009-03-19 18:19:00
MIYAGAWAModule-Install-Repository0.012009-03-19 20:05:00
DMYTROLog-Simplest02009-03-20 01:24:45
OWLData-Inspect0.012009-03-20 03:36:00
PRBRENANMath-Cartesian-Product1.0012009-03-20 09:01:00
BBAXTERFlatFile-DataStore-Lite0.012009-03-20 17:11:00
TBRCorreios-Frete0.000012009-03-20 17:58:00
JUSTERCPANPLUS-Dist-Arch0.012009-03-20 18:06:00
CSJEWELLAlien-WiXv0.3051202009-03-21 01:51:00
NRGSSH-Command0.0.12009-03-21 06:00:00
NRGAPI-ISPManager0.01012009-03-21 06:06:00
MARCELLoop-Control0.012009-03-21 06:53:00
SARTAKDevel-Loading0.012009-03-21 09:40:00
THECRAMPSAcme-TextLayout0.012009-03-21 12:51:00
JKUTEJMobile-Devices0.012009-03-21 16:42:20
KENTAROApp-SocialSKK0.012009-03-22 04:23:00
SMUELLERWx-Perl-DataWalker0.012009-03-22 15:17:39
LEONTScope-OnExit0.012009-03-22 16:59:16
TLBDKIO-Buffered1.002009-03-22 17:54:00
TLBDKIO-EventMux-Socket-MsgHdr0.022009-03-22 17:55:26
DSADINOFFList-Util-WeightedChoice0.062009-03-22 20:27:42
RINTAROAttribute-Generator0.022009-03-23 15:48:40
SZABGABInline-Rakudo0.012009-03-23 17:54:43
THECRAMPSAcme-Grep2D0.012009-03-23 20:47:00
KOKOGIKOGeo-GeoPo0.0.12009-03-24 04:04:00
RJRAYEnv-Export0.102009-03-24 07:22:00
CYGASOAP-Transport-HTTP-Nginx0.012009-03-24 07:29:00
TOKUHIROMHTML-TreeBuilder-LibXML0.01_012009-03-24 09:52:00
JOBEROGeo-SweGrid1.02009-03-24 12:47:00
RJBSEmail-Sender-Transport-SQLite0.0022009-03-24 13:29:00
JQUELINPadre-Plugin-Nopaste0.1.02009-03-24 14:26:00
SARTAKMooseX-InstanceTracking0.012009-03-24 15:58:00
LEONTClass-Private0.012009-03-24 16:25:36
SCOTTWConfig-Savelogs0.112009-03-24 18:34:00
RIZENSSH-RPC1.22009-03-24 20:30:00
KEICHNERXML-Reader0.012009-03-25 00:44:00
ANDKFile-Rsync-Mirror-Recent0.0.12009-03-25 00:48:00
NISHIKAWAAuthen-Htpasswd-Trac0.000012009-03-25 04:59:00
DAGOLDENCPAN-Test-Dummy-Perl5-Make-PerlReq-Fail0.0012009-03-25 05:43:00
TOKUHIROMTest-SharedFork0.022009-03-25 05:53:00
DRRHORDF-AllegroGraph-Easy0.012009-03-25 08:48:00
GPHATNet-LimeLight-Purge0.012009-03-25 11:12:00
MARTUtil-Task0.01_12009-03-25 16:14:20
FREQUENCYMath-Random-ISAAC1.02009-03-25 17:53:04
CDARROCHNet-ZooKeeper0.322009-03-25 23:45:00
ISHIGAKIModule-New0.022009-03-26 09:31:00
KBRANDTWebService-UPS0.12009-03-26 11:08:00
GAALApp-CSV0.012009-03-26 11:46:00
DCANTRELLXML-Tiny-DOM1.02009-03-26 13:22:48
LEONTIO-Vec0.012009-03-26 14:51:33
CASIANONet-ParSCP0.022009-03-26 15:46:10
APOCALGames-AssaultCube0.012009-03-26 16:17:49
DCANTRELLPalm-ProjectGutenberg1.02009-03-26 16:48:19
TYEMQAcme-Satan6.0060062009-03-26 17:19:31
GAASURI-GoogleChart0.012009-03-26 19:07:00
KOKOGIKOLingua-AIN-Romanize0.0.12009-03-26 23:55:00
BJOERNUnicode-SetAutomaton0.012009-03-27 02:19:00
ADAMKAlgorithm-Dependency-MapReduce0.012009-03-27 02:54:00
ADAMKModule-Changes-ADAMK0.012009-03-27 09:01:00
LAJANDYHeliosX-MapReduceService0.02_09112009-03-27 12:45:00
PERLERNet-SMS-Massenversand0.012009-03-28 07:18:00
BERLESOAP-Simple0.00_012009-03-28 08:32:00
NRGGoogle-Charts0.012009-03-28 12:02:00
NRGNginx-ParseLog1.002009-03-28 16:04:59
SZABGABPadre-Plugin-PSI0.012009-03-28 16:11:47
HDPCatalystX-MooseComponent0.0012009-03-28 18:45:00
TOKUHIROMDevel-BindPP0.03_012009-03-28 23:49:00
TOKUHIROMImage-LibRaw0.012009-03-29 04:40:00
ADAMKORDB-CPANUploads0.012009-03-29 07:18:00
ADAMKDateTime-Tiny1.032009-03-29 07:29:00
GMAXMySQL-Sandbox2.0.982009-03-29 08:19:00
HMBRANDConfig-Perl-V0.012009-03-29 09:13:00
WONKOModule-Build-TAPArchive0.012009-03-29 09:14:00
CORIONTest-Exim4-Routing0.012009-03-29 10:17:00
KOKOGIKOGeo-Direction-Name-Spec-Chinese0.0.12009-03-29 11:51:00
CORNELIUSJifty-Plugin-NoIE0.012009-03-29 11:59:00
DRRHOTM-IP-Documents0.012009-03-29 13:13:17
RIVYWin32-CommandLine0.3.13.142009-03-29 16:24:49
YOSHIDACatalystX-Plugin-Engine-FastCGI-Lighttpd0.0.12009-03-29 22:00:00
GFUJIB-Foreach-Iterator0.012009-03-29 22:52:00
SUNNAVYDatabase-CheckConnectivity0.012009-03-30 00:57:00
WONKOSmolder1.302009-03-30 03:16:00
MARCOGWWW-Scraper-ISBN-LibUniverIt-Driver0.12009-03-30 04:43:00
RJBSURI-cpan1.0002009-03-30 04:57:00
PEVANSAsync-MergePoint0.012009-03-30 07:52:00
WONKOModule-Build-Smolder0.012009-03-30 07:53:00
DJIBELTk-ForDummies-Graph1.002009-03-30 09:46:00
SUNNAVYDBIx-CheckConnectivity0.012009-03-30 09:55:00
PSHANGOVPod-Simple-Vim0.022009-03-30 11:19:00
HOVENKOWWW-Opentracker-Stats1.102009-03-30 11:21:00
JONALLENPerldoc-Server0.012009-03-30 11:26:00
JVANNUCCIParallel-Fork-BossWorkerAsync0.012009-03-30 11:55:00
KOSTDevice-Velleman-K8055-libk80550.032009-03-30 18:44:00
DCANTRELLCPAN-ParseDistribution1.02009-03-30 19:00:00
NISHIKAWAFile-History0.000012009-03-30 21:34:00
WEHRCatalyst-Plugin-Localize-Simple1.02009-03-30 23:25:00
GARUPadre-Plugin-Catalyst0.012009-03-31 03:26:00
SHARYANTOData-Schema0.032009-03-31 06:23:00
SHARYANTOData-PrefixMerge0.022009-03-31 06:26:00
JHALLOCKGtk2-Ex-TimeEntry0.012009-03-31 09:33:00
ABIGAILTest-Regexp20090331012009-03-31 11:04:00
MARCOGWWW-Scraper-ISBN-LibUniverIt_Driver0.112009-03-31 11:30:00
SMUELLERPadre-Plugin-DataWalker0.012009-03-31 15:37:00
JHANNAHPDF-TextBlock0.012009-03-31 17:11:00
MLEHMANNAnyEvent-SNMP0.12009-03-31 18:40:00

New Distributions for April 2009 (265)

AuthorDistributionVersionRelease Date/Time
RLBGit-Scripts-Misc0.0.12009-03-31 22:01:00
ROOTKWOKWin32-SysPrivilegev0.012009-04-01 01:24:00
ILYAZFileSystem-LL-FAT0.012009-04-01 05:21:33
MMORGANLWP-UserAgent-Mockable0.902009-04-01 06:31:00
KITANOCPAN-Packager0.012009-04-01 09:52:00
KEVINApache2-AuthenRadius0.62009-04-01 14:15:58
KERRSunpower-Cryo-Funclib0.1.42009-04-01 14:25:00
PDCAWLEYTest-Class-Sugar0.01002009-04-01 15:31:00
GWADEJSVG-Sparkline0.1.02009-04-01 22:43:00
BLUETACME-MSDN-SPUtility0.012009-04-01 22:45:00
DMAKIPod-Parser-I18N0.000012009-04-01 23:53:00
SHARDIWALBadge-GoogleTalk0.0.012009-04-02 04:55:00
JMSMQdb0.9512009-04-02 05:20:00
GRIANAI-Pathfinding-AStar-Rectangle0.102009-04-02 07:17:00
ABIGAILLingua-EN-Numbers-Easy20090402012009-04-02 08:34:00
ABIGAILDate-Maya20090402012009-04-02 11:02:00
DAGOLDENylib0.0012009-04-02 14:09:00
ABIGAILOO-Closures20090402012009-04-02 15:53:00
BINGOSPOE-Component-Client-DNS-Recursive0.022009-04-02 17:02:00
JHTHORSENPOE-Filter-DHCPd-Lease0.012009-04-02 19:38:00
RKRIMENApp-PM-Announce0.01_12009-04-02 20:35:00
SHELLINGClass-Implant0.0.1_012009-04-02 23:52:00
GWYNPostScript-PPD0.01002009-04-03 04:44:00
GWYNConvert-zBase320.01002009-04-03 05:16:00
ATOURBINRPM-Payload0.102009-04-03 06:04:00
AGRUNDMAAudio-Scan0.012009-04-03 11:15:28
ABIGAILAlgorithm-Numerical-Sample20090403012009-04-03 11:16:55
STEPHANJApache2-OneTimeDownload1.012009-04-03 11:19:39
ABIGAILAlgorithm-Numerical-Shuffle20090403012009-04-03 12:49:08
ABIGAILTie-Counter20090403012009-04-03 13:04:43
EMORISSEGraph-Statistics0.012009-04-03 18:21:59
RKRIMENDocument-Stembolt0.012009-04-03 18:45:16
REVMISCHAWWW-Omegle0.012009-04-03 20:46:53
HDPMooseX-Role-RelatedClassRoles0.0012009-04-04 00:35:40
PMQSIO-Compress2.0172009-04-04 05:49:11
ABIGAILTie-FlipFlop20090404012009-04-04 07:36:17
ABIGAILTie-Pick20090404012009-04-04 08:44:46
ABIGAILThe-Net20090404012009-04-04 09:36:41
FAYLANDDist-Zilla-Plugin-Perltidy0.012009-04-04 10:08:47
EVDBText-Variations0.012009-04-04 10:13:03
PMAKHOLMWebService-Telnic0.12009-04-04 13:54:01
EVDBCatalyst-Plugin-Twitter0.012009-04-04 15:34:47
SARTAKUnwind-Protect0.012009-04-04 16:11:33
FAYLANDDist-Zilla-Plugin-PerlTidy0.042009-04-05 02:06:44
MFOLLETTDBIx-Class-Snowflake.102009-04-05 02:25:00
LZEMySQL-Admin0.412009-04-05 03:27:17
GRANTMEncoding-FixLatin1.002009-04-05 06:12:08
REVMISCHAPOE-Component-Omegle0.012009-04-05 14:59:58
SPROUTWWW-Scripter0.0012009-04-05 19:50:09
SPROUTWWW-Scripter-Plugin-JavaScript0.0012009-04-05 19:51:35
SPROUTWWW-Scripter-Plugin-Ajax0.012009-04-05 19:52:57
MATTNGNTP-Growl0.012009-04-05 21:24:10
BANBUUID-Object0.012009-04-06 01:39:33
GWYNPOE-Session-PlainCall0.01002009-04-06 03:18:15
ROOTKWOKWin32-Process-Killv0.12009-04-06 06:34:02
DMYTROSQL-Reporter-Excel0.12009-04-06 12:01:27
ECARROLLMooseX-Types-DateTime-ButMaintained0.042009-04-06 15:27:13
ABIGAILAlgorithm-Graphs-TransitiveClosure20090406012009-04-06 15:50:13
HDPLoompa0.512009-04-06 16:15:02
ABIGAILRFC-RFC822-Address20090406012009-04-06 16:16:29
HDPCGI-ValidOp0.512009-04-06 16:24:57
PEVANSClass-ByOS0.012009-04-06 18:16:43
PEVANSIO-Async-Loop-linux0.012009-04-06 18:35:15
MARSHALLTree-Predicate0.012009-04-06 19:31:11
FREQUENCYMath-Random-ISAAC-XS1.02009-04-06 22:37:20
BANBUUID-Generator-PurePerl0.012009-04-06 23:07:48
DMYTRODBIx-Report-Excel0.12009-04-06 23:29:29
PAJASXML-CompactTree0.022009-04-07 07:53:23
PAJASXML-CompactTree-XS0.022009-04-07 07:54:49
GRAYGeo-Distance-XS0.012009-04-07 11:50:51
KBRANDTWebService-TVRage0.012009-04-07 11:59:58
VVELOXX11-Resolution0.0.02009-04-07 14:11:30
ECARROLLOlson-Abbreviations0.012009-04-07 14:25:37
GPHATLog-Log4perl-Appender-DBIx-Class0.012009-04-07 16:27:24
ILYAZNumeric-LL_Array0.012009-04-07 18:05:38
DAGOLDENData-GUID-Any0.0012009-04-07 23:39:22
PMAKHOLMDevel-RemoteTrace0.12009-04-08 04:55:49
KERRSunpower-Cryocooler0.1.52009-04-08 13:09:21
DRRHOTM-IP-Surface0.022009-04-08 14:05:15
VVELOXImager-AverageGray0.0.02009-04-08 20:24:55
LYOKATONet-OpenSocial-Client0.01_012009-04-08 22:51:25
OLIVERCatalyst-Plugin-AutoCRUD0.422009-04-09 01:09:22
ROOTKWOKWin32-Process-Hidev0.22009-04-09 03:08:46
ZEBAZNet-Lookup-DotTel0.012009-04-09 04:37:45
PRBRENANMath-Modular-SquareRoot1.0012009-04-09 07:22:27
SZABGABTest-Snapshots0.012009-04-09 08:42:45
SHELLINGUNIVERSAL-implant0.01_012009-04-09 09:06:20
MOOLICatalyst-Plugin-Log4perl-Simple0.0012009-04-09 12:32:31
AARPOE-Component-Gearman-Client0.012009-04-09 13:50:35
CBERRYVMS-System1_052009-04-09 13:54:40
HDPCatalystX-RelatedClassRoles0.0012009-04-09 17:35:09
HDPCatalyst-App-RoleApplicator0.0012009-04-09 17:57:09
MIYAGAWACPAN-Mini-Growl0.012009-04-09 20:42:45
YAPPOTest-PPPort0.012009-04-10 03:56:02
TANIGUCHIRegexp-Assemble-Compressed0.012009-04-10 10:27:38
DIMARTINOLog-Dispatch-FogBugz0.12009-04-10 13:17:40
HDPMooseX-RelatedClassRoles0.0032009-04-10 19:17:54
FLORAnamespace-autoclean0.012009-04-10 20:44:54
FREQUENCYIO-Journal0.12009-04-10 23:36:30
MLEHMANNNet-SNMP-XS0.022009-04-11 00:23:24
KIMOTOCGI-DataObjectMapper0.01012009-04-11 04:55:59
RSAVAGECGI-Application-Demo-Ajax1.002009-04-11 05:52:30
DAVECROSSWWW-Shorten-Qurl2.002009-04-11 07:29:55
GROMMIERText_Editor_Easy0.452009-04-11 14:57:39
MIYAGAWAWWW-Shorten-RevCanonical0.012009-04-11 17:20:15
MIYAGAWAWWW-Shorten-Simple0.012009-04-11 20:04:01
GWYNPOE-Session-Multiplex0.04002009-04-12 01:24:43
SKNPPPackage-Subroutine0.142009-04-12 07:12:42
TPABANet-Ifconfig-Wrapper0.10-no-world-writable2009-04-12 07:51:03
LEONTPackage-Rename0.012009-04-12 09:06:58
LEONTFile-Map0.132009-04-12 09:47:34
HOLOWAYChef0.012009-04-12 17:33:39
FCOApp-Rad-Plugin-TT0.12009-04-12 18:14:11
FLORAMooseX-Meta-TypeConstraint-ForceCoercion0.012009-04-12 22:19:10
THECRAMPSTkUtil-Gui0.012009-04-12 22:59:00
FLORAMooseX-MultiMethods0.012009-04-13 00:14:13
SHARIFULNPOE-Component-Client-Icecast0.12009-04-13 06:45:09
IHEFFNERTie-Handle-Flock0.012009-04-13 10:40:43
LONERRPid-File-Flock0.012009-04-13 11:40:08
CONVERTERCatalyst-Action-Role-ACL0.012009-04-13 14:11:45
STEALTHYWebService-Yandex-Suggest1.002009-04-13 18:35:39
KRYDETest-MockTime-DateCalc12009-04-13 20:06:06
BROERSEWWW-Shorten-Digg0.012009-04-14 02:53:15
ROOTKWOKWin32-Process-Criticalv0.22009-04-14 04:22:03
ANDREMARWWW-Curl-Simple0.012009-04-14 04:46:17
KALEXApache2-Imager-Resize0.102009-04-14 06:57:04
SBECKSet-ArrayAlt1.002009-04-14 09:40:56
DEXTERTest-Mock-Class0.012009-04-14 16:14:43
DEXTERTest-Builder-Mock-Class0.012009-04-14 16:16:10
RKRIMENPath-Mapper0.0102009-04-14 22:56:04
GFUJIAcme-Perl-VM0.0.1_012009-04-14 23:01:24
JTRAMMELLMath-Fraction-Egyptian0.012009-04-14 23:10:29
JPIERCERTx-From0.022009-04-15 02:51:21
JETTEROGD-Graph-ohlc0.94012009-04-15 10:48:57
BINGOSPOE-Component-Client-NTP0.022009-04-15 11:35:08
BLUEFEETGeo-Coordinates-GMap0.012009-04-15 19:41:49
SARTAKMooseX-Attributes-Curried0.012009-04-16 01:38:59
TOKUHIROMXML-Feed-Deduper0.012009-04-16 02:18:22
DVWRIGHTWWW-TasteKid0.1.02009-04-16 04:35:34
MDOMBot-BasicBot-Pluggable-Module-Eliza0.022009-04-16 11:02:49
JKUTEJFile-is0.012009-04-16 17:21:14
BRACETAAcme-CPANAuthors-Portuguese0.012009-04-16 17:50:46
NPEREZPOE-Filter-XML-RPC0.012009-04-16 17:59:52
VVELOXZConf-RSS0.0.02009-04-16 18:31:13
ACCARDOCGI-Carp-Fatals0.012009-04-16 22:43:14
GLAIIPC-Exe1.0012009-04-16 22:53:45
GARUApp-Rad-Plugin-ConfigLoader0.012009-04-17 01:45:12
AAYARSAcme-CSV2.002009-04-17 02:43:42
NSNAKEAsterisk-config-syntax-highlight0.12009-04-17 05:01:39
JKUTEJUniverse-Galaxy0.012009-04-17 11:33:08
ADAMKTest-XT0.012009-04-17 12:57:04
AAYARSGlobalDBI0.202009-04-17 16:27:24
AAYARSOP0.202009-04-17 18:36:58
BURAKAcme-CPANAuthors-Turkish0.102009-04-18 01:43:45
JESSESTAYDBIx-Class-CompressColumns0.010002009-04-18 05:32:28
NEZUMIUnicode-LineBreak0.01_012009-04-18 07:42:55
MELOMojoX-Routes-AsGraph0.012009-04-18 12:57:14
GUIMARDApache-Session-LDAP0.012009-04-18 13:09:10
MSTROUTData-CapabilityBased0.0010002009-04-18 15:24:30
ELLIOTJSMooseX-Accessors-ReadWritePrivatev1.0.02009-04-18 21:41:59
RSAVAGEBusiness-AU-Ledger0.822009-04-18 23:15:23
FAYLANDApp-GitHub0.012009-04-19 02:59:49
EXODISTClass-Entangle0.032009-04-19 03:36:38
GIPPOLITIChess-Play0.012009-04-19 12:55:24
EBRAGINCache-Memcached-Tags0.012009-04-19 15:58:41
DAGOLDENOSType0.0012009-04-19 17:34:09
ELPENGUINCatalyst-Plugin-Session-State-Stash0.102009-04-19 18:19:08
VALEd2k_link200904192009-04-19 19:24:49
BMAMESRinchi-CIGIPP0.012009-04-19 22:15:16
ARGRATHPod-L10N0.012009-04-19 23:15:00
NSNAKEAsterisk-config-syntax0.12009-04-19 23:20:19
CORNELIUSCairo-CuttingLine0.012009-04-20 05:27:59
AGENTSSH-Batch0.0012009-04-20 06:50:56
FAYLANDDist-Zilla-Plugin-MetaResources0.012009-04-20 07:34:18
XINMINGCatalyst-Plugin-Compress0.0022009-04-20 11:50:34
CUBText-SimpleTable-AutoWidth0.012009-04-20 12:44:56
IDOPERELCatalyst-Plugin-Authorization-Abilities0.012009-04-20 13:26:36
VVELOXGtk2-ImageView-Browser0.0.02009-04-20 13:26:59
SHARIFULNAcme-CPANAuthors-Norwegian0.12009-04-20 16:40:35
SHARIFULNAcme-CPANAuthors-Ukrainian0.12009-04-20 16:42:02
FAYLANDDist-Zilla-Plugin-Repository0.012009-04-20 18:32:18
SQUALLXML-RSS-Parser-Lite0.202009-04-21 04:28:01
TOBYINKRDF-RDFa-Parser-Redland0.012009-04-21 05:16:50
SODASODAAcme-Pills0.012009-04-21 08:00:58
ADAMKORLite-Profile0.012009-04-21 10:23:03
DOLMENDateTime-TimeZone-HPUX0.012009-04-21 11:02:33
SPADIXBarcode-ZBar0.022009-04-21 13:15:56
ANDYAURI-geo0.012009-04-21 14:16:19
HOLMLUNDReligion-Bible-Regex-Builder0.92009-04-22 05:18:47
CORNELIUSJiftyX-CloudTags0.012009-04-22 11:42:01
CORNELIUSJifty-Plugin-YouTube0.012009-04-22 11:53:56
COSIMOWWW-Scraper-Yahoo3600.012009-04-22 16:06:17
TOKUHIROMImage-JpegCheck0.012009-04-23 06:34:59
MOOLIDBIx-Class-ResultSet-Atomic0.0012009-04-23 07:07:35
BINGOSModule-Install-AssertOS0.022009-04-23 08:00:42
INGYTestML0.012009-04-23 08:48:06
SCAINBio-DB-Das-Chado0.22009-04-23 10:54:34
SCAINBio-DB-Das-BioSQL0.032009-04-23 10:58:38
IDERRICKOrze0.322009-04-23 11:44:13
MITHALDUQuiz-Flashcards-Audiobanks-Japanese_Words_Radicals0.012009-04-23 13:59:05
MITHALDUQuiz-Flashcards-Sets-Kanji_Radicals-English0.012009-04-23 14:00:38
MITHALDUQuiz-Flashcards-Sets-Katakana-Romaji_Simple0.012009-04-23 14:00:44
ADAMKDBIx-Export0.012009-04-23 14:07:20
XESTIAHash-Search0.012009-04-23 17:12:05
NPEREZPOE-Filter-SimpleHTTP0.012009-04-23 17:56:49
DOYMooseX-NonMoose0.012009-04-23 19:54:38
RKRIMENDBICx-Modeler0.0012009-04-23 20:03:44
MARTIJNData-Transform-Zlib0.012009-04-24 06:21:16
XSAWYERXTest-Ping0.042009-04-24 07:25:01
IDERRICKMail-SNCF0.012009-04-24 09:51:58
ADAMKDBIx-Publish0.022009-04-24 13:56:02
MEHNet-Camera-Edimax-IC15001.0062009-04-24 14:28:23
MSCHWERNperl5i200904242009-04-24 14:37:28
ADAMKXtract0.012009-04-24 15:22:22
AWWAIIDWWW-HtmlUnit0.042009-04-24 23:53:18
DAVAZImage-Fixup0.010002009-04-25 00:14:02
MIKIHoppy0.000012009-04-25 01:07:30
ROLANDjmx4perl0.01_012009-04-25 05:02:37
ADAMKORDB-CPANTSWeight0.012009-04-25 07:07:43
MATSUMOTODBIx-MoCo-Pageset0.012009-04-25 08:18:27
MATSUMOTOSledge-Plugin-QueryHash0.012009-04-25 12:35:28
JETTEROGit-SVNReplay1.00012009-04-25 12:54:55
RJBSEmail-Pipemailer1.0002009-04-25 13:18:09
OTTOPDF-API33.0012009-04-25 19:23:46
TOKUHIROMPython-Serialize-Pickle-InlinePython0.012009-04-25 21:37:23
COWENSautobox-dump20090425.16302009-04-26 02:27:08
RSRCHBOYFedora-App-ReviewTool0.072009-04-26 03:35:34
MATSUMOTOSledge-Template-ClearSilver-I18N0.012009-04-26 07:42:08
CYCLESTest-XML-Element0.012009-04-26 15:15:07
BRADFITZNet-PubSubHubbub-Publisher0.902009-04-26 18:06:41
HLUBENOWAcme-Pythonic-Functions0.22009-04-26 18:37:12
BRADFITZTheSchwartz-Worker-PubSubHubbubPublish1.002009-04-26 22:11:01
FUJIWARAQueue-Q4Pg-Lite0.012009-04-26 22:12:28
CORNELIUSPoppler0.012009-04-26 23:33:00
KURIANJAHTML-Defang1.012009-04-27 02:18:16
DAKKARTree-Template-Declare0.12009-04-27 05:35:49
DAKKARTree-Transform-XSLTish0.12009-04-27 05:36:00
SZABGABText-SmartLinks0.012009-04-27 06:13:05
GORAXEMooseX-FSM0.012009-04-27 07:50:14
JKUTEJParse-Deb-Control0.012009-04-27 15:58:25
CONVERTERCatalystX-Menu-Tree0.012009-04-27 16:43:14
CONVERTERCatalystX-Menu-Suckerfish0.012009-04-27 16:44:35
BINGOSModule-Install-CheckLib0.022009-04-27 16:49:49
BINGOSModule-Install-NoAutomatedTesting0.022009-04-27 19:26:00
FLORAMooseX-Lexical-Types0.012009-04-27 20:06:04
ADAMKAspect-Library-Trace0.012009-04-28 00:13:00
RSAVAGEConfig-Tiny-Ordered1.002009-04-28 01:57:13
JEREMIAHDebian-Packages0.012009-04-28 09:24:51
LEEDOApp-Colloqueer0.012009-04-28 20:11:22
JMATESFile-AtomicWrite0.022009-04-29 01:07:12
HIRAFOOTemplate-Plugin-LinkTo0.012009-04-29 03:22:09
SHARYANTOLog-Dispatch-Dir0.012009-04-29 04:40:54
HINNERKCGI-IDS1.01162009-04-29 05:51:02
HOLMLUNDReligion-Bible-Regex-Configv0.22009-04-29 09:21:49
JROCKWAYMooseX-Runnable0.00_012009-04-29 12:01:47
MATSUMOTOSledge-Plugin-BeforeOutput0.022009-04-29 12:07:07
GAURAVGraphics-Magick-Object0.01_012009-04-29 13:33:11
DAVIDNICODBIx-bind_param_inline0.032009-04-29 23:35:54
COWENSautobox-List-Util200904292009-04-30 01:46:10
JJSCHUTZLog-Dispatch-Scribe0.012009-04-30 03:15:00
TYPESTERObject-Container0.012009-04-30 03:55:58
GARUPadre-Plugin-Mojolicious0.012009-04-30 10:14:13
OVIDMooseX-Role-Strict0.012009-04-30 10:30:34
HDPCatalystX-RoleApplicator0.0042009-04-30 15:06:43
JMATESAcme-EdError0.012009-04-30 16:26:08

New Distributions for May 2009 (250)

AuthorDistributionVersionRelease Date/Time
MBAITHTML-Template-Convert-TT0.012009-04-30 22:43:23
DOUGDUDENagios-Plugin-OverHTTP0.012009-04-30 23:39:38
BINGOSModule-Install-AutoLicense0.022009-05-01 06:18:46
GUGODNet-Redmine0.012009-05-01 10:49:40
MIYAGAWAURI-git0.012009-05-01 15:08:50
JETTEROTerm-ANSIColorx-ColorNicknames2.7182009-05-01 15:12:54
RKITOVERCatalyst-Model-PayPal-IPN0.022009-05-01 18:57:47
CORNELIUSNet-Plurk-Dumper0.012009-05-02 05:39:35
ADAMKAlien-Win32-LZMA4.652009-05-02 11:51:39
MATSUMOTOSledge-Plugin-DebugLeakChecker0.012009-05-03 02:57:55
SHELLINGJiftyX-Fixtures0.012009-05-03 07:25:55
HINRIKPerl6-Perldoc-To-Ansi0.012009-05-03 13:55:32
HINRIKgrok0.012009-05-03 14:20:59
JUSTERALPM0.012009-05-03 14:57:09
JVHTML-Calendar-Monthly0.012009-05-03 18:13:52
BINGOSModule-Install-ReadmeFromPod0.022009-05-03 18:36:48
JETTEROApp-MrShell2.00002009-05-03 19:05:37
MARTJSON-Streaming-Writer0.012009-05-03 20:02:46
FAYLANDDist-Zilla-Plugin-ReadmeFromPod0.012009-05-03 22:45:21
ROOTKWOKWin32-Process-Suspendv0.012009-05-04 04:56:04
PERLERDBIx-Class-BitField0.00_012009-05-04 12:45:32
NOTBENHMooseX-Error-Trap0.012009-05-04 14:18:23
DIEGOKWWW-Twitpic0.012009-05-04 15:30:04
POTYLGtk2-Unique0.012009-05-04 15:39:14
IVANWILLSLog-Deep0.0.12009-05-04 17:32:43
RKRIMENDocument-TriPart0.0202009-05-05 01:42:00
KSURIClass-Accessor-Deep0.012009-05-05 04:19:11
PMAKHOLMPadre-Plugin-Debugger0.0_12009-05-05 04:20:38
BINGOSModule-Install-GithubMeta0.022009-05-05 07:49:52
STASHMooseX-AttributeInflate0.012009-05-05 13:36:10
NPEREZPOEx-Role-SessionInstantiation0.012009-05-05 18:28:35
RKRIMENDiff-LibXDiff0.012009-05-05 21:53:02
CORNELIUSCairoX-CuttingLine0.052009-05-06 11:34:19
RJBSDist-Zilla-PluginBundle-RJBS0.0912602009-05-06 12:44:18
YAMAKURAHosts-Setting-Confirmation0.00001_002009-05-06 13:53:13
FLORAMongoDB0.012009-05-06 18:07:47
JASONMAYDataninja0.012009-05-06 19:40:43
GWYNPOEx-URI0.02002009-05-07 00:17:00
JTGANSStupidMarkov0.0012009-05-07 01:14:47
TFRAYNERBio-MAGETAB0.972009-05-07 03:32:35
GRIANTest-Reporter-Transport-Net-SMTP-Authen1.002009-05-07 04:09:31
CORNELIUSConvert-Dayi0.012009-05-07 12:15:55
HARDAKERtor0.12009-05-07 13:30:54
FOBESLanguage-Dashrep1.002009-05-07 16:10:25
DAVINCHIMail-Lite0.12009-05-07 17:53:16
CHISELCatalyst-Plugin-ErrorCatcher0.0.12009-05-07 18:26:48
DROLSKYFile-ChangeNotify0.012009-05-07 19:06:45
BCOProjectBuilder0.9.62009-05-07 19:19:39
JASONMAYApp-Dataninja0.032009-05-08 00:32:18
YAPPOLog-Dispatch-Screen-Color0.012009-05-08 01:00:35
RKRIMENApp-GitHub-FindRepository0.012009-05-08 02:56:19
BOBTFISHAcme-UNIVERSAL-cannot0.012009-05-08 04:36:02
KZYSTest-Apache20.012009-05-08 14:09:08
ADAMKPerl-Metrics20.012009-05-08 15:20:51
BDFOYMyCPAN-App-DPAN1.18_032009-05-08 16:54:46
RKRIMENDirectory-Deploy0.0012009-05-09 15:11:55
ADAMKCPAN-Mini-Visit0.012009-05-09 17:23:24
JROCKWAYMooseX-Runnable-Fuse0.012009-05-09 17:49:39
SALVAFile-Strmode0.012009-05-10 05:05:05
FAYLANDDBIx-Class-ResultSet-Void0.012009-05-10 06:39:27
DANKOGAIURI-Amazon-APA0.012009-05-10 07:09:18
WHYNOTFile-AptFetch0.0.72009-05-10 13:27:20
YAMAKURAYoyo0.00001_002009-05-10 14:28:40
GDMGeo-Cloudmade0.12009-05-10 18:08:00
DANDVSMS-Send-Wadja0.012009-05-11 02:09:35
SALVANet-SFTP-Server0.012009-05-11 05:19:58
KENTNLELF-Extract-Sections0.01.002009-05-11 07:38:48
RJBSMath-VarRate0.0913102009-05-11 10:49:44
BEANZNet-Pachube0.012009-05-11 17:24:30
DRIEUXWetware-Test0.072009-05-11 18:55:03
DRIEUXWetware-CLI0.062009-05-11 18:55:14
DRIEUXWetware-Test-CreateTestSuite0.032009-05-11 18:55:25
DSBIKEMoose-Documenter0.012009-05-11 19:30:58
HARDAKERTheOneRing0.212009-05-11 22:58:34
RKRIMENApp-GitHub-FixRepositoryName0.012009-05-12 03:35:28
ROBINSData-Serializable0.012009-05-12 07:02:51
ROBINSLog-UDP-Client0.012009-05-12 07:04:17
ROBINSLog-UDP-Server0.012009-05-12 07:04:23
ITMFROLOVNet-Axigen0.092009-05-12 08:39:27
RKITOVERCatalyst-Plugin-PluginLoader0.012009-05-12 08:53:34
STOCKSSolaris-ProcessMemory0.012009-05-12 14:50:21
IDNRT-Extension-NotifyOwners0.01_012009-05-12 17:47:40
DSBIKEMooseX-Documenter0.012009-05-12 21:16:29
GFUJISub-Attribute0.012009-05-12 22:49:02
HIRAFOOConfig-Divide0.012009-05-13 06:55:40
BINGOSModule-Install-AutomatedTester0.022009-05-13 08:07:57
VVELOXZConf-GUI0.0.02009-05-13 08:12:04
BINGOSTask-Module-Install-BINGOS1.002009-05-13 10:27:04
DOLMENAcme-PM-Paris-Meetings0.012009-05-13 12:23:46
DMUEYTie-Hash-ReadonlyStack0.12009-05-13 13:30:34
DAVIDNICOTie-Quicksort-Lazy0.022009-05-13 14:58:21
ZEFRAMMath-Decimal0.0002009-05-13 18:45:46
RJBSDBIx-Locker0.0913402009-05-13 22:44:09
MSCHILLIBot-WootOff0.012009-05-14 03:09:05
LETOMath-Primality0.012009-05-14 03:57:01
ZEFRAMData-Pond0.0002009-05-14 16:03:21
BURAKDevice-CableModem-Motorola-SB42000.102009-05-14 20:17:55
BDUGGANTree-Family0.012009-05-14 20:55:57
GFUJIDevel-Optrace0.012009-05-14 21:01:17
GFUJIMethod-Cumulative0.012009-05-14 21:01:28
MIYAGAWANet-Twitter-OAuth0.012009-05-14 22:00:01
YVESAGOJifty-Plugin-Authentication-CAS0.92009-05-15 04:09:07
YVESAGOJifty-Plugin-Authentication-Ldap0.92009-05-15 04:22:33
KENTNLMooseX-Has-Sugar0.01002009-05-15 05:26:42
YAMAMOTOCache-Ehcache0.012009-05-15 07:14:52
ALTREUSOutline-Lua0.012009-05-15 11:03:05
TAMBASCOTLW4-Reader0.012009-05-15 13:29:54
SPROUTMoneyWorks-pm0.012009-05-15 17:02:26
FALCONERT-Extension-DateDiscordian0.012009-05-15 21:23:06
BINGOSSmoke-In-A-Box0.01_012009-05-16 06:07:49
IVANWILLSFile-Class0.0.12009-05-16 08:27:52
ANDYAAcme-MirrorTracer2009.05161418132009-05-16 09:22:39
DRRHOGraph-PetriNet0.012009-05-16 09:40:29
LSAUNDERSDBIx-Class-Preview1.0000002009-05-16 12:10:24
FLORATest-CleanNamespaces0.012009-05-16 12:37:30
EMORISSEStatistics-SocialNetworks0.022009-05-16 14:06:36
CHRISACatalyst-Engine-Stomp0.012009-05-16 16:49:23
ROBERTMAYWin32-VisualStyles0.012009-05-16 17:22:24
STEVEHAcucumber0.12009-05-16 22:15:49
CONVERTERJavaScript-Framework-jQuery0.022009-05-17 09:42:28
CONVERTERCatalyst-View-Component-jQuery0.022009-05-17 09:42:40
RECSKYBot-BasicBot-Pluggable-Module-Pastebin0.012009-05-17 10:51:18
BINGOSsmokeinabox0.01_032009-05-17 10:51:29
ADAMKCPANDB-Generator0.012009-05-17 13:31:39
ANDYAGeo-Coordinates-ITM0.012009-05-17 17:51:53
BINGOSPOE-Component-Github0.022009-05-17 18:35:53
DSHEROHTwitter-TagGrep1.00002009-05-17 18:37:19
JMSEdgeExpressDB0.953h2009-05-18 03:45:42
ADAMKAcme-SuperCollider-Programming0.012009-05-18 08:39:01
MASANORIHNet-SRCDS-Queries0.0.12009-05-18 09:55:13
KIMOTOObject-Simple0.01_012009-05-18 12:56:14
KIMOTOObject-Simple-Constraint0.01_012009-05-18 12:56:20
KIMOTOObject-Simple-Error0.01_012009-05-18 12:57:47
RKRIMENAlgorithm-BestChoice0.012009-05-18 14:54:56
WAZZUTEKEBot-BasicBot-Pluggable-Module-Retort1.0000002009-05-18 16:02:26
ADAMKAspect-Library-Profiler0.162009-05-18 22:15:41
STEVEHAgherkin0.12009-05-18 22:35:20
GUGODTest-Cukes0.012009-05-19 00:43:00
TONVOONNagios-Plugin-WWW-Mechanize0.102009-05-19 06:05:50
FAYLANDDist-Zilla-Plugin-CheckChangeLog0.012009-05-19 07:19:58
SHVHTML-Form-Declare0.012009-05-19 07:39:08
ROBBIEBOWAcme-Hi0.012009-05-19 09:09:26
FAYLANDDist-Zilla-PluginBundle-FAYLAND0.012009-05-19 09:23:35
MONSself-init0.012009-05-19 10:26:56
OVIDData-FetchPath0.012009-05-19 17:13:09
MRDVTSpreadsheet-WriteExcel-Simple-Tabs0.012009-05-19 18:19:17
STEVEHAcourgette0.12009-05-19 18:56:27
RJBSColor-Palette0.0913922009-05-19 19:20:38
BOBTFISHAlien-ActiveMQ0.000012009-05-19 21:40:47
EVDBCatalyst-Plugin-RunAfterRequest0.012009-05-20 05:04:10
GFUJIScalar-Alias0.022009-05-20 05:26:11
HIROSEBot-IKCBot-Pluggable0.012009-05-20 07:12:26
DUNCSTest-NoPlan0.0.12009-05-20 07:40:24
TOMFAHLEThumbalizrSimple0.012009-05-20 13:43:05
SARTAKJifty-Plugin-Feedback0.022009-05-20 17:01:28
BINGOSTask-BeLike-BINGOS1.002009-05-20 19:26:08
DANJOUEmail-Send-Test-DataDumper0.012009-05-20 22:37:44
GAURAVKHLog-CSVLogger0.12009-05-21 00:15:12
MIKIDebug-STDERR0.000012009-05-21 02:19:10
MARCUSSENWWW-TamperData0.012009-05-21 03:57:51
MESADAVEYMooseX-ChainedAccessors0.012009-05-21 04:01:55
ANDYAData-Find0.012009-05-21 10:18:02
TBONEXML-Writer-Nest0.012009-05-21 14:45:51
STROTask-CPANAuthors-STRO2009.05212009-05-21 16:55:16
RCROWDERMail-IMAP2SMS1.102009-05-21 18:03:04
SAKOHTUR-Bundle0.012009-05-21 23:50:15
ICHITRD-WebRelayMail0.0.32009-05-22 02:04:46
NIKOSVRAR-Unrar1.002009-05-22 02:28:58
FUJIWARASub-Pipe0.012009-05-22 03:23:41
ISHIGAKITest-LatestPrereqs0.012009-05-22 03:48:03
YUSUKEBEWWW-Veoh-Download0.012009-05-22 04:55:05
BINGOSEnv-Sanctify-Moosified1.042009-05-22 06:59:32
DSCHOENGearman-XS0.012009-05-22 10:54:14
DULINGHessian-SimpleClient0.032009-05-22 12:13:46
DUBEXNet-Wire101.002009-05-22 12:19:15
DUBEXDBD-Wire101.002009-05-22 12:19:21
NPEREZPOEx-Types0.0914202009-05-22 12:37:40
DAMSPOE-Wheel-GnuPG0.012009-05-23 04:43:09
IVANWILLSCatalyst-Plugin-LogDeep0.0.12009-05-23 06:16:13
NOBJASCGI-Session-Auth-Mouse-Role0.0.42009-05-23 08:53:15
POWERMANIO-Stream-Proxy-SOCKSv41.0.02009-05-23 09:16:11
GOMORNet-Frame-Layer-UDPLite1.002009-05-23 10:02:12
XERNLingua-CJK-Tokenizer0.012009-05-23 14:51:02
DMITRYperl-finance-currency-convert-custom1.02009-05-23 19:29:23
DMITRYFinance-Currency-Convertor-Custom1.02009-05-23 19:41:17
DMITRYFinance-Currency-Convert-Custom1.002009-05-23 20:03:14
LUKECNet-Parliament0.012009-05-24 03:11:51
EGORCatalyst-Action-SubDomain0.012009-05-24 11:10:09
VVELOXTree-Builder0.0.02009-05-24 15:39:24
CONVERTERCatalystX-Menu-mcDropdown0.012009-05-24 20:46:03
BINGOSAcme-CPANAuthors-POE0.022009-05-25 07:25:53
ANDYADevel-Ditto0.012009-05-25 10:30:28
MBEEBEGames-Quake-Stats0.012009-05-25 11:20:31
JSAOcs-Nagios0.0.12009-05-25 12:19:04
FLORAMRO-Define0.012009-05-25 13:34:09
RJBSMRO-Magic0.0914502009-05-25 13:47:02
ZAGPerl6-Pod0.01_012009-05-25 14:12:29
EWILHELMaliased-factoryv0.0.12009-05-25 15:49:04
PERIGRINTask-SDK-Perigrin0.012009-05-25 17:56:35
BFITCHMachineLearning1.012009-05-25 19:04:49
MARCELOPerl-Critic-Itch1.02009-05-26 06:17:23
RKRIMENData-Pulp0.012009-05-26 13:31:17
LSAUNDERSDBIx-Class-ResultSet-WithMetaData0.9990012009-05-26 14:46:01
RKRIMENText-Chomped0.012009-05-26 18:13:31
IVANWILLSVCS-Which0.0.12009-05-26 19:17:22
JAKEGOLDWWW-StreamAPI0.012009-05-26 20:30:00
GFUJIPerlIO-fse0.012009-05-26 22:17:34
BGARBERNet-Random-QRBG0.012009-05-27 02:19:02
KIMOTOObject-Simple-Mixin-AttrNames0.02012009-05-27 03:15:26
KIMOTOValidator-Custom0.02012009-05-27 03:15:33
KIMOTOObject-Simple-Mixin-AttrOptions0.02012009-05-27 03:31:04
NJHMusicBrainz-DiscID0.012009-05-27 11:28:21
JOHNDBytes-Random0.012009-05-27 13:20:41
DOYMooseX-Mangle0.012009-05-28 00:30:17
NIKOSVArchive-Unrar1.002009-05-28 03:02:48
RANDIRException-SEH0.012009-05-28 05:50:12
AZAWAWIPadre-Plugin-Ecliptic0.012009-05-28 07:26:03
SIMMNet-SFTP-SftpServer1.0.02009-05-28 08:53:25
ABELHelix-Driver-DB-MySQL0.012009-05-28 15:22:18
ABELHelix-Driver-DB-PostgreSQL0.012009-05-28 15:22:29
ABELHelix-Driver-Log-Basic0.012009-05-28 15:22:41
ABELHelix-Driver-Router-Basic0.022009-05-28 15:22:54
ABELHelix-Driver-Router-Consequent0.012009-05-28 15:24:22
ABELHelix-Driver-Template-HTML0.012009-05-28 15:40:11
ABELHelix-Driver-Template-Toolkit0.012009-05-28 15:40:23
ABELHelix-Driver-User-Basic0.022009-05-28 15:40:34
KXJWin32-Process-CpuUsage0.012009-05-28 18:03:07
VICTORFGrid-Request0.12009-05-28 22:12:32
PIOTOtypo2mt0.022009-05-29 06:14:36
ANDYALingua-Abbreviate-Hierarchy0.012009-05-29 08:52:37
TBONENumber-Closest0.012009-05-29 10:27:42
KIMOTOObject-Simple-Mixin-Meta0.01012009-05-29 11:45:02
TBONEHTML-Element-Replacer0.012009-05-29 14:04:13
AWWAIIDCGI-Inspect0.22009-05-30 01:20:59
MLEHMANNCoro-Mysql0.12009-05-30 02:58:48
ADAMKORDB-CPANMeta-Generator0.012009-05-30 16:55:18
MSCHWERNLingua-tlhInganHol-yIghun200905302009-05-30 17:00:39
IVANWILLSApp-TemplateCMD0.0.12009-05-31 07:29:49
STEFFENWLocale-TextDomain-Ties0.012009-05-31 08:22:33
JHTHORSENNet-ISC-DHCPd0.012009-05-31 08:25:22
STROTask-CPANAuthors-STRO-PPMCreator2009.05312009-05-31 08:30:41
PERFORINWWW-Wuala0.12009-05-31 09:53:37
DOMMApp-Fotagger0.001.02009-05-31 11:22:36
ELPENGUINSpark-Form0.012009-05-31 12:54:36
ELPENGUINSparkX-Form-Field-Email0.012009-05-31 12:56:14
ELPENGUINSparkX-Form-Field-Password0.12009-05-31 12:56:20
FIDDURAsterisk-CoroManager0.102009-05-31 14:06:51
NPEREZParse-Constructor-Arguments0.0915102009-05-31 14:22:43
JDVStackTrace-HiPerf0.012009-05-31 16:11:50
SUNGONet-Dropbox1.0915102009-05-31 18:32:48

New Distributions for June 2009 (245)

AuthorDistributionVersionRelease Date/Time
DANNYRose-DBx-Object-Builder0.012009-06-01 03:33:15
PDONELANPadre-Plugin-WebGUI0.01_012009-06-01 07:09:50
JETEVEBusiness-SWIFT0.012009-06-01 11:16:29
KMCGRATHDateTime-AATW0.012009-06-01 13:00:51
RJBSEmail-MIME-Kit-Assembler-Markdown0.0915202009-06-01 13:02:24
GSHANKCatalyst-View-FillInForm0.012009-06-01 14:10:06
ADAMKMirror-URI0.902009-06-01 14:32:02
RCROWDERNagios-Status-Host0.012009-06-01 16:38:24
RCROWDERNagios-Status-Service0.012009-06-01 16:42:28
KMCGRATHDateTimeX-AATW0.042009-06-01 16:43:55
JOKKELingua-LO-Romanize0.012009-06-01 16:50:24
ADAMKORDB-CPANMeta0.012009-06-01 20:58:35
RKITOVERMooseX-Traits-Pluggable0.012009-06-02 03:45:55
SAXJAZMANXML-IODEF-PhraudReport0.012009-06-02 10:16:17
GEBELEIBM-ThinkPad-ACPI-Extras0.012009-06-02 12:16:42
RCROWDERNagios-Status-HostStatus0.012009-06-02 12:55:30
DANMOOREAuthen-Simple-Twitter0.012009-06-02 15:59:08
RCROWDERNagios-Status-ServiceStatus0.012009-06-02 16:28:58
ADAMKDevel-Eval1.002009-06-02 21:26:58
ADAMKCPANDB0.012009-06-02 22:17:59
MIYAGAWAFile-Spotlight0.012009-06-03 06:15:10
MARKFXML-Easy-Transform-RationalizeNamespacePrefixes1.002009-06-03 12:06:57
DANMOORENet-Server-Mail-ESMTP-STARTTLS0.012009-06-03 12:21:00
OPIApache2-PodBrowser0.012009-06-03 14:08:29
ZEFONSECATwitter0.122009-06-03 14:27:20
FRANCKCCatalystX-Dispatcher-AsGraph0.012009-06-03 15:35:55
PORTAJorge0.012009-06-03 15:45:23
MARTJSON-Streaming-Reader0.012009-06-03 19:32:33
RKRIMENApp-ForExample0.012009-06-03 20:43:29
MATTNNet-Growl-GNTP0.052009-06-03 20:52:31
BERLEClass-MetaForm0.01_012009-06-03 21:34:22
BERLECatalyst-Controller-MetaForm0.01_012009-06-03 22:44:37
JOHNDWWW-Virull0.0012009-06-04 00:00:40
OPERAParse-Debian-PackageDesc0.12009-06-04 03:23:35
APLAData-Dump-XML1.112009-06-04 10:25:00
KTATScript-Carp0.012009-06-04 11:40:00
XLATWin32-lglcd0.022009-06-04 14:19:00
NATEKCGI-Application-Plugin-ValidateQuery0.99_12009-06-04 15:20:00
CSJEWELLFile-List-Object0.1852009-06-04 23:58:00
YAMAKURAMysql-Query-Parser0.00001_002009-06-05 00:31:00
OHOLLMENStoredHash0.0282009-06-05 04:09:01
DOLMENPOE-Component-Schedule0.012009-06-05 13:56:44
MMIMSNet-Twitter-Lite0.010002009-06-06 02:06:18
ALTREUSList-Analyse-Sequence0.012009-06-06 12:02:41
CEBJYREVersionify-Dispatch0.0.12009-06-06 12:04:08
MARCELHTTP-Engine-FirePHP0.012009-06-06 16:40:18
ALTREUSList-Analyse-Sequence-Analyser-OL-RomanNumerals0.012009-06-06 19:32:57
OLIVERNet-Appliance-Frontpanel0.012009-06-06 19:59:39
GONERINet-Libproxy0.012009-06-06 21:55:30
SAKOHTUR0.52009-06-06 22:56:12
REVMISCHANet-Icecast-Source1.02009-06-07 06:45:02
ZOFFIXApp-ZofCMS-Plugin-HTMLFactory-PageToBodyId0.0012009-06-07 09:48:03
XLATWin32-Lglcd0.032009-06-07 10:31:26
BARBIECPAN-Testers-Data-Release0.012009-06-07 11:47:44
MARCELPod-Wordlist-hanekomu0.012009-06-07 12:23:32
LEPTString-Iota0.852009-06-07 18:16:49
COWENSUnicode-Digits200906072009-06-07 21:05:58
IVANTISNet-Rovio0.62009-06-07 23:22:45
OPERAMigraine0.522009-06-08 07:29:01
BARBIECPAN-Testers-WWW-Reports-Parser0.012009-06-08 10:17:33
ORLANDOVCatalyst-Engine-SCGI0.022009-06-08 13:13:41
MAMAWEDirectory-Organizev0.82009-06-08 15:35:06
JLMARTINDBIx-Class-Inflator-Serializers0.012009-06-08 17:09:10
RKRIMENCatalystX-InjectComponent0.012009-06-08 19:11:10
ATOMParse-PAUSE1.0012009-06-08 21:47:54
VADDateTime-Event-Cron-Quartz0.012009-06-09 03:51:20
JOHNDEvent-Lite0.0012009-06-09 14:49:23
YVESAGOJifty-Plugin-Authentication-Facebook0.92009-06-09 15:34:00
YVESAGOJifty-Plugin-Userpic0.92009-06-09 15:49:53
YVESAGOJifty-Plugin-SiteNews0.92009-06-09 16:06:49
BOBTFISHCatalystX-DynamicComponent0.000000_012009-06-09 16:34:50
YVESAGOJifty-Plugin-OpenID0.102009-06-09 16:45:17
DANKOGAIFile-Glob-Slurp0.012009-06-09 17:08:50
BOBTFISHHTTP-Proxy-Selective0.0012009-06-09 17:33:23
JMASTROSPod-Inherit0.012009-06-09 18:21:45
DWHEELERTemplate-Declare-Bricolage0.012009-06-09 18:23:14
BOBTFISHMooseX-StrictAttributes0.00012009-06-09 18:38:02
SOREARIO-Pty-HalfDuplex0.012009-06-09 21:30:13
EMORGANLingua-Concordance0.012009-06-09 22:15:52
FREQUENCYAlien-Libjio1.02009-06-10 00:05:13
YVESAGOJifty-Plugin-GoogleMap0.92009-06-10 02:26:25
YVESAGOJifty-Plugin-Comment0.92009-06-10 03:41:09
BDFOYPPI-App-ppi_version-BDFOY0.122009-06-10 04:20:32
YVESAGOJifty-Plugin-Chart0.92009-06-10 04:31:00
YAPPOData-Model0.000012009-06-10 08:13:01
MALATemplate-Stash-AutoEscape0.012009-06-10 08:29:41
PORTAJorge-Generator0.012009-06-10 10:58:46
RKRIMENData-TUID0.012009-06-10 12:54:47
MARCELPerlIO-via-ToFirePHP0.012009-06-10 13:02:57
JAKANVL0.12009-06-10 19:24:42
RKRIMENData-LUID0.0112009-06-10 20:16:11
KRYDEFinance-Quote-Grab12009-06-10 21:42:12
MATTNGrowl-GNTP0.062009-06-10 21:45:02
SARTAKBot-Applebot0.012009-06-10 22:35:28
ISHIGAKIGit-Class0.012009-06-11 10:45:18
ANDYAAPR-HTTP-Headers-Compat0.012009-06-11 11:50:01
DRRHOGearmanX-Worker0.022009-06-11 12:04:26
CAJSTANAG0.012009-06-11 12:42:47
BOBTFISHMooseX-Types-ISO86010.00_012009-06-11 13:03:12
JEREMIAHDhMakePerl0.562009-06-11 19:59:36
LBROCARDNet-MythTV0.332009-06-12 05:07:01
PERLERDevel-IntelliPerl0.012009-06-12 07:24:04
MGRIMESEmail-MIME-Kit-Renderer-MicroMason1.0012009-06-12 11:14:05
RKRIMENDocument-TriPart-Cabinet0.0012009-06-12 12:35:53
RSAVAGECGI-Application-Demo-Dispatch1.002009-06-12 21:40:06
RKITOVERDateTime-Format-Sybase0.012009-06-12 23:47:08
NANARDONVote1.002009-06-13 02:40:24
ADAMKPolitics-AU-Geo0.012009-06-13 03:23:29
SMUELLERParse-ExuberantCTags1.002009-06-13 10:00:49
LMETCALFText-Median0.012009-06-13 16:19:14
RKITOVERCatalystX-Component-Traits0.012009-06-13 18:33:27
DRBEANGrades0.042009-06-13 21:42:38
SYSMONParse-CPAN-Cached0.012009-06-14 07:23:53
ANDYADevel-LeakGuard-Object0.012009-06-14 08:57:15
NEZUMIEncode-EUCJPASCII0.012009-06-14 10:04:37
FREQUENCYEnv-Sanctify-Auto1.02009-06-14 12:27:36
VPITautovivification0.012009-06-14 16:13:22
JACQUELINConfig-General-Easy0.12009-06-14 17:01:33
DOUGDUDEAuthen-CAS-External0.012009-06-14 17:24:29
LEONTVariable-Lazy0.012009-06-14 18:38:39
RSRCHBOYRPM-Spec0.012009-06-14 21:53:15
ROGERHALLDBIx-FedDB0.012009-06-14 23:59:13
LETOWWW-ItsABot0.012009-06-15 04:16:18
BEPPUSquatting-On-Mojo0.022009-06-15 05:01:55
JONASBNWWW-DanDomain0.012009-06-15 05:26:48
GRAFFEncode-Buckwalter1.12009-06-15 13:29:21
ANDYADigest-MD60.012009-06-15 17:44:16
RKITOVERMooseX-AlwaysCoerce0.012009-06-15 18:24:22
YAPPOImager-ExifOrientation0.012009-06-16 07:38:54
FLORAMooseX-Meta-TypeConstraint-Intersection0.012009-06-16 16:59:04
GRAFImager-Simple0.0100012009-06-16 17:32:21
CSJEWELLModule-Build-Functions0.001_0092009-06-16 23:02:01
FAYLANDCatalyst-TraitFor-Model-DBIC-Schema-QueryLog0.012009-06-16 23:04:48
GARUWWW-CBF0.012009-06-17 00:47:35
RSRCHBOYFedora-App-MaintainerTools0.0012009-06-17 03:31:51
LETOTask-Twitter0.012009-06-17 03:58:44
MARKOVNet-FTP-Robust0.012009-06-17 04:06:37
HERVEAcme-PDF-rescale0.12009-06-17 08:09:11
SHARYANTOConfig-Tree0.012009-06-17 08:15:48
JOHANNPNLP-GATE0.12009-06-17 12:53:58
MORITZJSON-Tiny0.1.02009-06-17 14:45:24
MBARBONExtUtils-XSpp0.012009-06-17 15:05:49
FALCONERT-Extension-PriorityAsString0.012009-06-17 17:17:41
DUMBRT-Extension-MenubarUserTickets1.02009-06-17 19:41:14
ANDYADigest-HMAC_MD60.012009-06-18 06:14:19
GUGODChart-Timecard0.012009-06-18 09:09:50
DAVIDNICOGraph-Easy-StateMachine0.032009-06-18 14:35:35
COGAcme-PricelessMethods0.012009-06-18 18:01:40
KERISMANCLI-Framework0.012009-06-18 19:37:00
ATHOMASONLog-Syslog-Fast0.152009-06-18 23:08:08
HOLMLUNDReligion-Bible-Regex-Referencev0.92009-06-19 05:47:01
HOLMLUNDReligion-Bible-Regex-Lexerv0.82009-06-19 05:47:11
HOLMLUNDReligion-Bible-Regex-Versificationv0.12009-06-19 06:02:47
HERVEVJF-Emphase0.112009-06-19 09:20:37
HERVEVJF-MITDT1.02009-06-19 09:20:48
CREINCGI-Session-Driver-layered0.12009-06-19 14:02:50
RJBSEmail-Simple-Test-TraceHeaders0.0917002009-06-19 15:49:54
JONASBNBusiness-DK-Phonenumber0.012009-06-19 16:46:10
ABELEidolon0.022009-06-19 20:36:30
ABELEidolon-Driver-DB-MySQL0.012009-06-19 20:37:57
ABELEidolon-Driver-DB-PostgreSQL0.012009-06-19 20:38:04
ABELEidolon-Driver-Log-Basic0.012009-06-19 20:38:15
ABELEidolon-Driver-Router-Basic0.022009-06-19 20:38:26
ABELEidolon-Driver-Router-Consequent0.012009-06-19 20:38:37
ABELEidolon-Driver-Template-HTML0.012009-06-19 20:38:49
ABELEidolon-Driver-Template-Toolkit0.012009-06-19 20:40:16
ABELEidolon-Driver-User-Basic0.022009-06-19 20:40:25
EMORGANLingua-EN-Bigram0.012009-06-19 23:12:12
SHINYNet-DigitalNZ0.032009-06-20 00:00:18
GNGLotusNotes-LoadExport1.012009-06-20 04:36:49
JQUELINDist-Zilla-Plugin-Prepender0.1.02009-06-20 05:55:59
KEICHNERTerm-Sk0.012009-06-20 11:30:11
MRDVTGeo-Google-Latitude0.022009-06-21 03:21:12
DANKOGAIClass-Builtin0.012009-06-21 05:11:30
MYRTSCHTmyrtscht0.022009-06-21 08:49:17
LBROCARDNet-MythWeb0.332009-06-21 13:52:39
CORNELIUSEmail-Sample0.012009-06-21 21:52:40
DOYGraph-Implicit0.012009-06-21 21:58:00
MARKOVData-DublinCore0.012009-06-22 06:10:45
TOKUHIROMNet-Drizzle0.012009-06-22 11:55:15
RKRIMENDBIx-SQLite-Deploy0.0102009-06-22 16:40:50
JSWARTZCHI-Driver-BerkeleyDB0.012009-06-23 07:38:42
MELONMANXML-GenericJSON0.012009-06-23 12:26:12
PEVANSSocket-Packet0.012009-06-23 12:29:00
SSCHNEIDREST-Google-Apps-Provisioning1.1.12009-06-23 13:29:41
ANDYAlatest0.012009-06-23 16:25:38
TOKUHIROMModule-Install-MicroTemplate0.012009-06-23 23:07:22
SEANOAcme-BeCool0.012009-06-24 00:08:02
JMELTZERGeo-IATA0.0.12009-06-24 02:02:19
TOKUHIROMPOE-Component-Drizzle0.012009-06-24 04:24:10
ANDYAlike0.012009-06-24 12:40:00
FALCONERT-Extension-ResetPassword0.032009-06-24 14:21:00
EDUSEGREGRID-Cluster0.022009-06-24 15:07:00
BOSULinux-Unshare0.012009-06-24 16:34:00
MGRIMESPPIx-EditorTools0.032009-06-24 17:21:00
RJBSMetabase-Fact0.0012009-06-24 20:36:00
RJBSMetabase-Client-Simple0.0012009-06-24 21:49:00
RJBSMetabase0.0012009-06-24 22:12:00
DAGOLDENTest-Reporter-Transport-Metabase0.0012009-06-24 22:23:00
RJBSMetabase-Web0.0012009-06-24 22:42:00
RSNLocale-Msgfmt0.012009-06-24 22:50:00
RSAVAGECGI-Application-Util-Diff1.002009-06-24 23:36:00
SPROUTanarch0.012009-06-25 00:40:00
FLORACatalystX-LeakChecker0.012009-06-25 00:41:00
MELONMANXcruciate0.202009-06-25 01:50:00
MKODERERstat_agent0.092009-06-25 07:27:33
LDSBio-SamTools1.002009-06-25 12:18:07
BMORROWClass-DOES1.002009-06-25 14:47:41
EVANKTempestv2009.6.25_12009-06-25 16:57:33
AMIRICatalyst-Helper-Controller-DBIC-API-REST0.012009-06-25 22:09:02
CNANGELDBQuery0.0012009-06-25 23:13:27
CNANGELgetaddress0.012009-06-26 04:17:51
JJOREApp-Perldoc-Search0.012009-06-26 13:32:48
JMASTROSModule-Install-Pod-Inherit0.012009-06-26 16:05:23
FALCONERT-Extension-SpawnLinkedTicketInQueue0.01_012009-06-26 16:47:12
RJBSThrowable0.0917802009-06-26 22:30:27
JMELTZERToolSet-y0.012009-06-27 06:46:12
PFAUTvms-logical0_42009-06-27 09:44:29
ELPENGUINNet-Twitter-Antispam0.012009-06-27 10:07:38
MGRIMESApp-EditorTools0.022009-06-27 12:59:52
JFRAIREHTML-Field1.172009-06-27 19:00:14
RSAVAGEString-Dirify1.002009-06-27 22:51:08
RSNIO-All-SFTP0.012009-06-28 01:47:40
ELPENGUINSparkX-Form-BasicFields0.012009-06-28 09:46:00
ELPENGUINSparkX-Form-BasicPrinters0.12009-06-28 09:48:00
ELPENGUINSparkX-Form-Field-Plugin-StarML0.12009-06-28 09:48:00
ELPENGUINSparkX-Form-BasicValidators0.012009-06-28 10:03:00
MATEUAlgorithm-Simplex0.242009-06-28 20:54:00
RSNPadre-Plugin-REPL0.012009-06-28 21:25:00
KRYDETime-Duration-Locale12009-06-28 21:55:00
TODDRToss0.0.12009-06-29 00:11:00
TYPESTERText-MicroTemplate-Extended0.012009-06-29 02:36:00
KENTNLTask-Spark-Form0.012009-06-29 10:13:00
PERLERDBIx-Class-PhoneticSearch0.012009-06-29 12:07:00
JQUELINDist-Zilla-Plugin-AutoPrereq0.1.02009-06-29 12:45:00
FRODWITHTie-Log4perl0.12009-06-29 20:11:00
LYOKATOOpenID-Lite0.01_012009-06-29 22:57:00
MSCHWERNTest-Sims200906302009-06-29 23:24:00
DOYIO-Socket-Telnet-HalfDuplex0.012009-06-30 01:29:00
KAWASAKIEncode-JP-Emoji0.012009-06-30 07:57:00
KAWASAKIUnicode-Emoji-E4U0.012009-06-30 07:58:00
RJBSSub-Exporter-ForMethods0.0918102009-06-30 08:55:00
RKRIMENConvert-AnyBase0.0102009-06-30 12:27:00
FALCONERT-Extension-QuickCalls0.032009-06-30 15:18:00
DAGOLDENCPAN-Mini-Devel-Recent0.012009-06-30 19:37:00

New Distributions for July 2009 (290)

AuthorDistributionVersionRelease Date/Time
LYOKATOOpenID-Lite-Extension-UI0.012009-06-30 22:07:00
ARICHEmail-ConstantContact0.012009-07-01 00:54:00
RSNORDB-DebianModules0.012009-07-01 02:28:00
TOKUHIROMData-MessagePack0.012009-07-01 05:41:00
MARTINELLTemplate-Plugin-WikiCreole0.012009-07-01 07:28:00
RJURNEYCatalyst-TraitFor-Log-Audio0.012009-07-01 07:28:00
GWYNFile-Sharedir-Install0.012009-07-01 08:18:00
DUELAFNTest-WWW-Mechanize-Driver0.62009-07-01 08:28:00
ZOFFIXApp-ZofCMS-Plugin-ConfigToTemplate0.01012009-07-01 10:33:00
VVELOXMail-Cache0.0.02009-07-01 14:04:00
VKRAMSKIHCrypt-OpenSSL-Blowfish0.012009-07-01 15:35:00
LYOKATOOpenID-Lite-Extension-SREG0.012009-07-01 22:20:00
MIYAGAWAEncode-Base580.012009-07-01 23:09:00
FRANCKCMooseX-MethodPrivate0.1.12009-07-02 02:04:00
LBROCARDParse-CPAN-Ratings0.332009-07-02 06:37:00
JENDADBIx-Declare0.01.0062009-07-02 11:56:00
MLEHMANNAsync-Interrupt0.022009-07-02 12:16:00
KARASIKfotofix1.792009-07-02 12:57:00
JQUELINGames-Pandemic0.4.02009-07-02 13:16:00
RSNORDB-DebianModules-Generator0.012009-07-02 14:39:00
RSNDebian-ModuleList0.012009-07-02 14:50:00
CGLASSWebService-Jamendo22009-07-02 15:02:34
GWYNFile-ShareDir-Install0.022009-07-02 15:05:00
BOBTFISHMooseX-Types-Email0.0012009-07-02 15:09:00
ELMEXAnyEvent-Feed0.12009-07-02 19:11:00
FLORAModule-Install-AuthorRequires0.012009-07-02 20:18:00
RUZRT-Extension-SummaryByUser0.012009-07-02 21:14:00
TOKUHIROMTest-Requires0.012009-07-02 21:28:00
FLORAModule-Install-CheckConflicts0.012009-07-02 21:59:00
ELACOURRT-Extension-MandatoryRequestor0.012009-07-03 06:14:00
RUZRT-Extension-CustomField-Checkbox0.012009-07-03 12:37:00
DOYMooseX-ABC0.012009-07-03 14:43:00
REDSNet-Twitter-Stream0.12009-07-04 00:02:00
SMUELLERPadre-Plugin-ClassSniff0.012009-07-04 04:33:00
KAWASAKIEncode-JP-Emoji-FB_EMOJI_GMAIL0.032009-07-04 11:16:00
VALFTN-Addr200907042009-07-04 17:49:19
BCOproject-builder0.9.72009-07-04 20:00:55
MMIMSMath-Round-Fair0.012009-07-04 23:10:43
BYTBOXWWW-Monitor-Site0.01_012009-07-05 02:41:20
BYTBOXWWW-Spider0.01_012009-07-05 03:28:11
KAWASAKIEncode-JP-Emoji-FB_EMOJI_TYPECAST0.042009-07-05 06:36:15
MAROSApp-iTan0.9000_012009-07-05 07:25:35
MAROSBusiness-UPS-Tracking1.002009-07-05 09:25:03
NUFFINKiokuDB-Cmd0.012009-07-05 09:47:01
SCIOPlex2.72009-07-05 11:29:20
CAUGUSTINUUID-Tiny1.002009-07-05 12:28:01
ZOFFIXApp-ZofCMS-Plugin-ImageResize0.01012009-07-05 16:17:00
ZOFFIXApp-ZofCMS-Plugin-GooglePageRank0.01012009-07-05 21:26:17
ZOFFIXApp-ZofCMS-Plugin-Session0.01022009-07-05 21:27:03
SHLOMIFFile-Find-Object-Rule-MMagicv0.0.12009-07-06 05:35:13
MMORGANMooseX-SlurpyConstructor0.012009-07-06 05:43:04
GRAYGeo-Coder-Bing0.012009-07-06 07:04:09
ISILLITOEWebService-FuncNet-Predictor0.102009-07-06 12:54:39
VVELOXMail-IMAPTalk-MailCache0.0.02009-07-06 13:44:57
BBURCHNet-Int-Stats1.002009-07-06 14:38:15
SHADOVVMojoX-Renderer-CTPP20.012009-07-06 20:53:46
MIORELWWW-Grooveshark0.012009-07-07 00:53:41
SAMVMooseX-Nagios0.012009-07-07 01:21:38
REDICAPSClass-Accessor-WithDefault0.172009-07-07 02:22:48
GEBELEComedi-Lib0.012009-07-07 03:27:59
ARUNBEARScalar-Constant0.0010012009-07-07 09:17:27
BINGOSPOE-Component-CPAN-Mirror-Multiplexer0.022009-07-07 11:01:06
POWERMANInferno-RegMgr0.1.12009-07-07 11:37:13
VPITPerl-Critic-Policy-Dynamic-NoIndirect0.012009-07-07 12:20:43
JUSTERTree-Easy0.012009-07-07 15:14:49
JETTEROXML-CuteQueries0.50002009-07-07 15:25:13
POWERMANCGI-Stateless1.0.02009-07-07 16:37:42
POWERMANCache-Sliding1.0.02009-07-07 17:13:18
POWERMANFCGI-EV1.0.32009-07-07 18:55:31
POWERMANFCGI-EV-Std1.2.22009-07-07 20:18:35
SAMVNagios-Interface0.012009-07-07 20:46:50
CNANGELConf-Libconfig0.012009-07-07 21:47:33
DAMOGNet-Fandango0.0.12009-07-08 01:50:22
TOKUHIROMProc-Class0.012009-07-08 02:48:48
MARKOVBPM-XPDL0.032009-07-08 03:21:27
TURUGINAWWW-Twitpic-Fetch0.012009-07-08 04:33:46
POWERMANJSON-RPC20.1.02009-07-08 06:11:04
RVDPTL10.012009-07-08 07:52:42
TYPESTERAnyEvent-APNS0.012009-07-08 08:09:40
ERIKTest-Functional0.012009-07-08 11:16:11
VVELOXMail-IMAPTalk-SortHelper0.0.02009-07-08 12:09:35
DAMOGWWW-Fandango0.0.1.12009-07-08 12:58:32
KERRCryoTel-CryoCon0.0.62009-07-08 14:27:59
ABIGAILDigest-Trivial20090708012009-07-08 16:19:52
SPANGConfig-GitLike1.002009-07-08 16:38:12
BOBTFISHCatalyst-TraitFor-Request-ProxyBase0.0000012009-07-08 17:12:06
SEKIMURAWebService-Prowl0.012009-07-08 20:29:27
INGYerrors-pragma0.012009-07-09 01:33:51
BOLAVCatalyst-View-Component-ESI0.022009-07-09 02:28:32
FAYLANDORDB-Unihan0.012009-07-09 07:24:33
MATIUTie-Array-Random1.02009-07-09 09:27:55
MATIUTie-Hash-Random1.02009-07-09 09:30:46
ANDYAWWW-ErnestMarples0.012009-07-09 09:39:54
MASARTZWebService-Hatena-Bookmark-Lite0.012009-07-09 12:38:30
DROLSKYPlone-UserAgent0.012009-07-09 12:50:10
CHENYRGame-BeyondMath240.012009-07-09 13:49:53
MLEHMANNcommon-sense0.032009-07-09 14:19:06
INGYError-errors0.022009-07-09 17:18:47
VIORELSWWW-YQL0.012009-07-10 00:54:49
SARTAKMooseX-HasDefaults0.012009-07-10 02:36:40
FDULAUTie-Queue0.022009-07-10 09:54:35
LBROCARDNet-Cassandra0.332009-07-10 10:25:44
ROGERHALLBioX-SeqUtils-RandomSequence0.902009-07-10 13:24:07
DOYApp-Termcast0.01_012009-07-10 22:31:12
CSJEWELLPerl-Dist-Padre0.2600102009-07-11 00:38:02
JSWARTZLog-Any0.012009-07-11 10:11:33
JSWARTZLog-Any-Adapter-Log-Dispatch0.012009-07-11 10:13:51
JSWARTZLog-Any-Adapter-Log-Log4perl0.012009-07-11 10:16:34
ZOFFIXApp-ZofCMS-Plugin-SendFile0.01012009-07-11 10:21:58
WKICatalyst-Controller-Combine0.062009-07-11 13:58:25
MARTUtil-DataThing0.01_012009-07-11 20:22:11
HINRIKPod-Text-Ansi0.012009-07-11 21:51:01
LEPTagram0.8.52009-07-12 00:11:37
NEKOKAKDBIx-Skinny0.012009-07-12 01:28:58
IVANWILLSEvent-ScreenSaver0.0.12009-07-12 01:37:07
GARUTemplate-AsGraph0.012009-07-12 02:46:35
JCARREIRAString-CyclicRotation0.012009-07-12 12:55:44
JCARREIRARangeQuery0.012009-07-12 16:03:44
BOBTFISHCatalyst-ActionRole-FindViewByIsa0.0000012009-07-12 16:18:10
DERFsimplestore0.12009-07-12 16:59:00
VPARSEVALlist-moreutils0.232009-07-12 17:43:39
CONVERTERCatalyst-ActionRole-ACL0.052009-07-12 22:21:57
ELMEXAnyEvent-Twitter0.12009-07-13 03:22:02
MDOMBot-BasicBot-Pluggable-Module-Eval0.022009-07-13 04:29:33
RVDPTL1-Toolkit0.022009-07-13 08:19:18
SAKOHTGetopt-Completev0.032009-07-13 10:05:23
NANARDONX11-Xlib0.012009-07-13 11:19:00
KIMOTOValidator-Custom-Trim0.01012009-07-13 11:32:00
PENMAList-PriorityQueue0.012009-07-13 11:59:00
BOLAVDateTime-Format-Duration-DurationString0.012009-07-13 13:36:00
RATTLERNetSDS1.022009-07-13 13:42:00
GPHATGraphics-Primitive-CSS0.012009-07-13 16:07:00
COSIMOBot-BasicBot-Pluggable-Module-NorskEngelsk0.012009-07-13 16:24:00
TBONEDateTime-Span-Common0.012009-07-13 16:53:00
MKANATParse-StackTrace0.012009-07-13 21:57:00
DAVIDNICOHTTP-Server-Singlethreaded0.122009-07-13 22:50:47
DOUGMhyperic-sigar1.6.3-src2009-07-14 00:56:59
NPLATONOVModule-Build-JSAN-Installable0.012009-07-14 05:58:00
JEFFERYGeo-MapInfo-MIF0.012009-07-14 08:28:00
ROBERTMAYWin32-GUI-OpenGLFrame0.012009-07-14 09:19:22
STEFFENWHTML-Template-Compiled-Plugin-I18N0.01_012009-07-14 09:33:00
PLULog-Handler-Output-Gearman0.01000_012009-07-14 12:57:00
ABERGMANVarnish-API1.992009-07-14 19:39:00
MIYAGAWAAnyEvent-FriendFeed-Realtime0.012009-07-15 02:09:00
MIYAGAWAAnyEvent-Twitter-Stream0.012009-07-15 02:10:00
VIORELSWebService-YQL0.022009-07-15 03:41:00
RATTLERNetSDS-Util1.022009-07-15 07:09:00
JWIEDBZ-Client1.02009-07-15 07:19:00
DRAEGTUNMooseX-SingletonMethod0.012009-07-15 10:43:00
JASLONGText-CSV_Multiline0.012009-07-15 11:12:00
JKUTEJHTTP-DAV-Browse0.012009-07-15 14:02:00
BOBTFISHTest-EOL0.12009-07-15 14:16:00
BARBIETest-JSON-Meta0.012009-07-15 14:28:00
EWATERSNet-AMQP0.012009-07-15 16:36:00
EWATERSPOE-Component-Client-AMQP0.012009-07-15 17:03:00
SDENWebService-FuncNet0.012009-07-15 17:04:00
MIYAGAWAAnyEvent-mDNS0.012009-07-15 18:17:00
MBRANDONBio-Mitomaster-RefHuman0.102009-07-15 19:42:00
ROGERHALLBioX-FedDB0.012009-07-15 20:47:00
TYPESTERExporter-AutoClean0.012009-07-16 01:41:57
VVELOXText-SpellChecker-GUI0.0.02009-07-16 02:13:41
KIMOTOValidator-Custom-HTMLForm0.01012009-07-16 03:15:46
PROwatchmen0.012009-07-16 06:30:54
DAVINCHISOAP-DirectI0.0012009-07-16 21:20:38
MIYAGAWAAnyEvent-Atom-Stream0.012009-07-16 23:00:04
PENFOLDMooseX-AbstractFactory0.3.12009-07-17 07:59:51
MLEHMANNEV-Loop-Async0.022009-07-17 11:06:25
JSWARTZLog-Any-Adapter-Dispatch0.032009-07-17 23:42:29
JSWARTZLog-Any-Adapter-Log4perl0.022009-07-17 23:43:51
AZAWAWIPerl6-Refactor0.012009-07-18 03:48:10
MFONTANINet-RackSpace-CloudServers0.05_002009-07-18 04:28:46
RATTLERNetSDS-Queue0.012009-07-18 07:34:44
VTIProtocol-XMLRPC0.012009-07-18 10:23:55
VTIMojoX-Automata-AsGraph0.012009-07-18 10:51:10
ASHClass-Discover1.0000002009-07-18 17:24:50
MITHUNNet-Rapidsharev0.0.12009-07-18 18:56:38
TLINDENnote1.3.52009-07-18 19:19:34
MDOMBot-BasicBot-Pluggable-Module-RSS0.012009-07-19 06:55:59
KENTNLDist-Zilla-Plugin-MetaProvides1.09200122009-07-19 08:38:51
JKUTEJdbedia0.012009-07-19 15:09:49
JKUTEJdbedia-Debian0.012009-07-19 15:16:24
AWWAIIDeverywhere0.032009-07-19 19:32:30
ELLIOTJSMooseX-Getopt-Defangedv1.14.02009-07-19 20:31:39
YUMATSUMOTemplate-Plugin-SafeInclude0.012009-07-20 00:00:52
SASATAString-JP-Hankaku0.0.12009-07-20 02:11:03
VTIAsync-ORM0.5002009-07-20 08:12:07
SASATALingua-JA-Halfwidth0.0.12009-07-20 11:16:30
TFMTie-StoredOrderHash0.212009-07-20 11:19:18
SEBASTIANHash-Mogrify0.012009-07-20 12:42:36
VTIProtocol-Yadis0.5002009-07-20 14:40:35
JALDHARDateTime-Indic0.12009-07-20 18:00:29
KAKADUMojoX-Log-Dispatch0.052009-07-20 18:32:13
JLMARTINDBIx-Class-InflateColumn-Serializer0.022009-07-20 19:31:56
CMUNGALLGOBO0.012009-07-20 20:39:05
JKVACGI-Application-Plugin-Cache-File0.12009-07-21 04:58:11
MDOMApp-Siesh0.062009-07-21 06:14:13
BINGOSPOE-Component-IRC-Plugin-Role0.022009-07-21 06:27:25
MONSlib-abs0.902009-07-21 07:20:14
SKORIKOVString-Blender0.022009-07-21 09:28:51
AGRUNDMAAnyEvent-Run0.012009-07-21 10:18:36
MAGGIEXYZPDL-Stats0.2.02009-07-21 13:32:24
TOMFAHLELBMA-Statistics0.012009-07-21 15:38:36
KENTNLCatalyst-Authentication-Credential-RPX0.09202212009-07-21 17:32:12
ADAMKHTML-InfoVis0.012009-07-21 22:50:14
GARUMojoX-Log-Log4perl0.012009-07-22 01:15:12
KWITKNRJamila0.012009-07-22 04:17:04
OLDERClass-Context0.012009-07-22 11:27:38
KAMIPOautobox-String-Inflector0.012009-07-22 18:16:48
SZABGABPadre-Plugin-Kate0.012009-07-23 02:26:12
RJBSConfig-MVP0.0920402009-07-23 03:29:15
HAVIstringLight0.012009-07-23 09:20:02
IVSOKOLOVNet-Whois-Parser0.012009-07-23 09:23:02
LEEDOIRC-Formatting-HTML0.012009-07-23 12:18:35
SARTAKNet-Journyx0.112009-07-23 14:18:16
HAVIExcel2Text0.012009-07-24 01:59:19
MUIRSort-MergeSort0.32009-07-24 03:00:00
MUIRTwiki-Upload0.32009-07-24 03:00:00
MUIRtsv0.32009-07-24 03:00:00
SEKIMURAAnyEvent-Gmail-Feed0.012009-07-24 04:39:40
RATTLERNetSDS-SMPP1.22009-07-24 07:51:20
SATOHDBIx-RewriteDSN0.012009-07-24 09:02:33
COSMINCatalyst-Authentication-Credential-FBConnect0.012009-07-24 10:04:17
COSMINCatalyst-Authentication-Credential-OAuth0.012009-07-24 10:08:20
DCONWAYRegexp-Grammars1.0010042009-07-24 10:50:59
RATTLERNetSDS-Kannel1.1002009-07-24 11:59:44
JKUTEJBuild-Daily0.012009-07-24 13:59:21
ARODLANDTest-Exit0.012009-07-24 14:57:26
MIKEGRBWebService-MobileMe0.0012009-07-24 15:53:24
SARTAKIM-Engine0.012009-07-25 11:10:45
JRMAI-NeuralNet-FastSOM0.072009-07-25 14:28:08
GFUJIModule-Install-XSUtil0.012009-07-26 00:03:40
GSHANKHTML-FormHandler-Model-DBIC0.042009-07-26 00:05:07
PUERCOMALLingua-PigLatin0.012009-07-26 12:50:46
ZOFFIXApp-ZofCMS-Plugin-GoogleCalculator0.01012009-07-26 16:43:08
ZOFFIXApp-ZofCMS-Plugin-GetRemotePageTitle0.01012009-07-26 17:31:30
ZOFFIXApp-ZofCMS-Plugin-GoogleTime0.01012009-07-26 18:12:38
ZOFFIXApp-ZofCMS-Plugin-InstalledModuleChecker0.01012009-07-26 19:35:35
ZOFFIXApp-ZofCMS-Plugin-RandomPasswordGeneratorPurePerl0.01012009-07-26 20:26:11
DROLSKYCatalyst-Plugin-Session-AsObject0.012009-07-26 21:09:35
ZOFFIXWWW-BashOrg0.01012009-07-26 21:22:32
ZOFFIXApp-ZofCMS-Plugin-RandomBashOrgQuote0.01012009-07-26 21:38:42
ZOFFIXApp-ZofCMS-Plugin-CSSMinifier0.01012009-07-26 22:26:07
GFUJIXS-MRO-Compat0.102009-07-26 23:56:20
LANTIBackup-SingleFile0.012009-07-27 05:26:12
JBISBEECBSSports-Getopt1.12009-07-27 05:35:20
IDOPERELTenjin0.032009-07-27 06:01:05
IDOPERELCatalyst-View-Tenjin0.012009-07-27 06:01:16
SHLOMIFTask-FreecellSolver-Testingv0.0.12009-07-27 08:38:35
SUKRIADancer20090727.13152009-07-27 09:18:07
MARKFTest-XML-Easy0.012009-07-27 11:27:45
FAIRLITELog-Rolling1.022009-07-27 12:29:39
PUBNOOPIO-Coderef0.902009-07-27 13:26:50
JHTHORSENFuse-Template0.012009-07-27 16:23:22
ABIGAILGames-Wumpus20090727012009-07-27 17:03:07
ZOFFIXApp-ZofCMS-Plugin-AutoDump0.01012009-07-27 20:27:24
ZOFFIXApp-ZofCMS-Plugin-AutoEmptyQueryDelete0.01012009-07-27 20:27:35
ZOFFIXApp-ZofCMS-Plugin-JavaScriptMinifier0.01012009-07-27 20:30:42
ZOFFIXApp-ZofCMS-Plugin-LinkifyText0.01012009-07-27 20:30:53
EWINDISCHAnnelidous-snapshot200907272009-07-27 22:02:00
EWINDISCHData-SExpression-Xen0.0.22009-07-27 22:19:18
MLEHMANNAnyEvent-FCP0.22009-07-27 22:20:51
YANNKAnyEvent-Superfeedr0.012009-07-28 02:45:18
JAKFile-Value0.122009-07-28 04:52:56
JAKFile-Namaste0.122009-07-28 04:54:23
CSJEWELLAlien-WiX-Version301.3054192009-07-28 05:00:53
JAKFile-ANVL0.122009-07-28 05:09:58
PDONELANPSPP0.012009-07-28 07:08:31
TKREMERTemplate-Plugin-Imager0.012009-07-28 07:49:29
LEOCHARREAlister-Base-Sums1.022009-07-28 09:20:01
JAKFile-Pairtree0.222009-07-28 17:32:55
IPENBURGTeX-Hyphen-Pattern0.012009-07-28 23:48:00
LEFORESJFLingua-FR-Fathom0.012009-07-29 04:52:27
ZOFFIXSpreadsheet-DataToExcel0.01012009-07-29 09:06:16
OLIVERNet-Netfilter-NetFlow0.062009-07-29 10:15:36
LEOCHARREAlister-Base-Hosts1.022009-07-29 10:37:58
ZOFFIXSpreadsheet-DataFromExcel0.01012009-07-29 10:48:21
IPENBURGHTML-Hyphenate0.012009-07-30 01:04:39
KENTNLTie-IxHash-ButMoreFun1.09211132009-07-30 09:42:23
BINGOSACME-CPANPLUS-Module-With-Core-PreReq0.022009-07-30 10:02:04
WMSZELIGAStatistics-Robust0.012009-07-30 10:27:43
OBRADOVICAI-CBR0.012009-07-30 10:56:20
JAYBUFFperl_WebService_ReviewBoard0.1.02009-07-30 13:57:40
THALJEFTAP-Formatter-TeamCity0.012009-07-30 14:59:23
ZOFFIXApp-ZofCMS-Plugin-DBIPPT0.01012009-07-30 15:13:37
ZOFFIXApp-ZofCMS-Plugin-Barcode0.01012009-07-30 19:01:32
PDONELANPSPP-Perl0.7.2.200907302009-07-30 19:30:46
DYLANNet-Rakuten0.012009-07-31 01:58:51
TYPESTERAnyEvent-JSONRPC-Lite0.012009-07-31 03:47:42
GEOFFWebService-UrbanAirship0.012009-07-31 13:16:05
SREZICPod-Perldoc-ToTextTermcap0.00_502009-07-31 15:41:47

New Distributions for August 2009 (217)

AuthorDistributionVersionRelease Date/Time
GUGODWebService-PublicViewpoints0.012009-08-01 05:34:18
MLEHMANNAnyEvent-MP0.012009-08-01 06:03:34
STEVEHATest-Expectation0.012009-08-01 06:23:59
PUBNOOPIO-Callback1.002009-08-01 10:40:24
ANIRVANHTML-ExtractMain0.102009-08-01 12:19:37
SLOBINMojoX-Renderer-HTP0.012009-08-01 14:49:54
PHAYLONCatalystX-Declare0.0012009-08-01 15:26:41
ZOFFIXApp-ZofCMS-Plugin-Captcha0.01012009-08-01 16:24:01
ZOFFIXApp-ZofCMS-Plugin-UserLogin-ChangePassword0.01012009-08-01 19:50:49
MLEHMANNAnyEvent-Watchdog0.12009-08-02 11:50:22
LMCDesignPattern-DispatchTable0.012009-08-02 12:35:17
GPHATMessage-Stack0.012009-08-02 12:53:28
SHCOREYSub-Starterv1.0.02009-08-02 19:11:22
ANIRVANWebService-LibraryThing-ThingISBN0.502009-08-02 21:55:06
CHENYRGames-BeyondMath240.012009-08-02 22:03:06
SHCOREYPDF-Kitv1.0.02009-08-02 22:07:10
MIYAGAWAAnyEvent-ReverseHTTP0.012009-08-03 02:07:04
PDONELANPSPP-Wrapper0.012009-08-03 02:36:42
PDONELANNagios-Plugin-POP30.012009-08-03 04:15:12
JPIERCERTx-S3Invoker0.052009-08-03 20:38:54
MUIRFile-Slurp-Remote0.42009-08-03 23:49:00
MUIRProc-Parallel0.42009-08-04 00:54:00
KAZUHOTest-mysqld0.012009-08-04 03:56:27
PALLOTRONMonit-HTTP-API0.012009-08-04 07:27:47
LEOCHARREZack1.082009-08-04 16:11:57
PUBNOOPErrno-AnyString0.012009-08-05 11:14:06
LBROCARDBisect-Perl-UsingGit0.332009-08-05 12:27:55
DAVINCHISQL-Filter0.012009-08-05 21:13:26
ARODLANDCatalyst-Plugin-AccessLog0.012009-08-06 04:03:09
FAYLANDBook-Chinese-MasterPerlToday0.01_012009-08-06 05:13:56
HEIKOKPhysics-Udunits20.032009-08-06 05:48:11
AMSmrm1.092009-08-06 07:53:53
JQUELINDist-Zilla-Plugin-CompileTests0.1.02009-08-06 09:40:47
CORNELIUSCairoX-Pager0.012009-08-06 22:16:20
BLUETAnyEvent-XMLRPC0.012009-08-06 23:57:39
LEOCHARRELingua-Names1.022009-08-07 02:25:44
CORNELIUSVimana0.012009-08-07 07:06:17
ECOCODEFinance-GeniusTrader0.00_502009-08-07 09:51:42
PRAVUSProc-Lite0.012009-08-07 12:30:18
WMORGANCiviCRM-Client-REST0.012009-08-07 13:44:16
MUIRLog-Parallel0.3032009-08-08 17:53:00
FLORAAcme-CPANAuthors-German0.012009-08-08 18:40:48
SARTAKIM-Engine-Plugin-Dispatcher0.012009-08-08 22:00:05
PORRIDGEImage-EXIF-DateTime-Parser1.12009-08-09 07:49:58
PORRIDGEMaMGal1.12009-08-09 11:09:21
SARTAKIM-Engine-Plugin-State0.012009-08-09 15:32:40
MDOMTerm-GnuScreen0.012009-08-09 17:15:03
THOLENSMS-Server-Tools0.012009-08-09 17:41:54
BLABOSPaginator-Lite0.012009-08-09 18:16:16
FLORACatalyst-TraitFor-Request-BrowserDetect0.012009-08-10 02:27:05
TERENCEMOAuthen-UserVerify0.072009-08-10 02:37:28
VVELOXText-Thesaurus-Aiksaurus0.0.02009-08-10 05:28:26
MONSAnyEvent-SMTP0.012009-08-10 06:41:12
BINGOSCPANPLUS-Config-BaseEnv0.022009-08-10 07:31:22
ADAMKGraph-XGMML0.012009-08-10 08:22:31
BARBIEData-FormValidator-Filters-Demoroniser0.012009-08-10 09:08:00
PSHANGOVData-AsObject0.012009-08-10 11:50:01
DAROLDApache2-ModProxyPerlHtml2.62009-08-10 12:08:32
VVELOXText-Filter-Froggy0.0.02009-08-10 12:48:17
MONSAnyEvent-Memcached0.01_12009-08-10 13:01:03
DAMOGFile-MimeInfo-Simple0.12009-08-10 15:20:49
SHAMROCKIPDR0.152009-08-11 04:25:57
BARBIEText-Demoroniser0.012009-08-11 06:17:57
MONSAcme-CPANAuthors-AnyEvent0.012009-08-11 06:44:02
REDICAPSDist-Zilla-Plugin-CopyTo0.052009-08-11 07:14:30
BRICASHTML-FormFu-Filter-Demoroniser0.012009-08-11 09:24:57
EWILHELMXML-Bitsv0.0.12009-08-12 00:34:49
EWILHELMShebangmlv0.0.12009-08-12 01:02:44
EWILHELMText-Slidezv0.0.12009-08-12 01:09:20
TORUData-Polipo0.012009-08-12 03:28:35
DMALONEMath-FastGF20.012009-08-12 10:00:07
HAOYAYOINet-APNS0.012009-08-12 11:25:32
FLORAMooseX-LazyRequire0.012009-08-12 20:18:16
VVELOXWWW-Video-Streamer0.0.02009-08-12 20:34:35
PMAKHOLMSub-Private0.012009-08-13 07:10:39
JAKFile-ERC0.012009-08-13 11:44:54
MONSXML-Hash-LX0.012009-08-13 12:59:40
LANTIGpx-Addons-Filter0.012009-08-13 14:47:42
MARTDanga-Socket-AnyEvent0.01_012009-08-13 17:55:50
DAVEGMXDataCube22009-08-13 21:16:54
CSJEWELLMooseX-Error-Exception-Class0.0992009-08-14 01:53:42
BSMPerlbal-Plugin-Addheader0.012009-08-14 12:34:41
DOUGDUDENet-SAJAX0.0012009-08-14 14:46:17
DMALONECrypt-IDA0.012009-08-14 22:24:58
RJBSSub-Exporter-Lexical0.0922702009-08-14 22:32:51
CSJEWELLModule-Starter-CSJEWELL0.1002009-08-14 22:42:05
GFUJIXS-MagicExt0.012009-08-14 23:11:45
GRANTGWWW-Tunecore0.012009-08-15 04:27:12
WPDESIGNcampaign-monitor-api-perl0.52009-08-15 09:09:19
CSJEWELLModule-Release-CSJEWELL0.1012009-08-15 09:25:58
ADAMKORLite-Statistics0.012009-08-15 11:01:15
PALLOTRONMonit-HTTP0.012009-08-15 12:48:11
BERLEDBIx-Class-Tree-CalculateSets0.012009-08-15 13:59:52
RBUELSdbic-chado0.01_012009-08-15 20:13:19
DOYMooseX-Aliases0.012009-08-15 21:25:56
CSJEWELLWiX30.0052009-08-16 00:43:53
TRENDELSSet-Tiny0.012009-08-16 13:23:18
NPEREZPOEx-Role-TCPClient0.0922802009-08-16 17:13:06
NPEREZPOEx-Role-TCPServer0.0922802009-08-16 17:15:55
BURAKScalar-Util-Reftype0.102009-08-16 23:58:55
MFOWLERConfig-LDAPClient0.012009-08-17 03:19:49
JQUELINDist-Zilla-Plugin-CriticTests0.1.02009-08-17 03:24:04
JSWARTZTest-Log-Dispatch0.012009-08-17 10:10:51
JCHASSLERHTML-GUI0.012009-08-17 10:13:44
RJRAYText-Textile-Plaintext0.1002009-08-17 13:23:02
EXODISTRTDevSys0.012009-08-17 15:49:21
LEONTthreads-lite0.010_0012009-08-17 18:21:33
KAZUHOTest-postgresql0.012009-08-17 21:37:05
PANGJNet-Squid-ReverseProxy0.012009-08-17 21:40:06
KUNIYOSHIWWW-NicoSound-Download0.012009-08-18 00:59:12
CHIBAFormValidator-Nested0.012009-08-18 04:09:45
MONTUORIDBIx-Class-EasyConf-YAML0.112009-08-18 08:41:05
CHRISAMooseX-Throwable0.012009-08-18 08:57:44
DICHICollections0.012009-08-18 08:57:55
PANYUMoney-Chinese1.052009-08-18 10:18:18
MDOMText-Password-Pronounceable-RandomCase0.012009-08-18 10:50:33
RBUELSBio-Chado-Schema0.01_032009-08-18 17:59:17
SHELLINGPosterous0.01_012009-08-18 22:45:42
ACAJOUMojoX-UserAgent0.202009-08-19 09:28:04
DONATOAZCAM-PDF-Annot0.012009-08-19 15:24:18
EXODISTlocal-lib-deps0.022009-08-19 17:59:26
DCANTRELLDevel-Caller-IgnoreNamespaces1.02009-08-19 19:04:06
POLOCKYText-Livedoor-Wiki0.012009-08-20 02:15:07
NIGELMTest-MTA-Exim40.012009-08-20 10:47:25
AAYARSAcme-Shell0.0022009-08-20 16:35:47
AWNCORPDBIx-Simple-Procedure1.222009-08-20 19:48:09
PEVANSIO-Async-Loop-Ppoll0.052009-08-21 10:39:40
KENTNLData-Couplet0.01002009-08-21 12:25:21
JJNAPIORKTest-DBIx-Class0.012009-08-21 14:16:53
KCOWGILLAcme-Cant0.012009-08-21 14:56:44
JHTHORSENCatalystX-Controller-Sugar0.012009-08-21 16:13:20
JHTHORSENSNMP-Parallel0.00_0012009-08-21 16:19:56
IMPIOUSDBR1.0.6b-stable2009-08-21 17:57:33
IMPIOUSDBR-trunk2752009-08-21 18:15:33
JSWARTZServer-Control0.012009-08-21 20:10:37
CORNELIUSGearman-XS-Declare0.012009-08-21 20:13:30
MJCARMANTkx-Scrolled0.012009-08-21 23:24:32
SANKOAlien-FLTK0.068412009-08-22 03:34:14
GUGODHash-Lazy0.012009-08-22 03:41:03
TMHARISHHTML-Miner0.012009-08-22 09:06:31
JESSEProphet0.69_012009-08-22 10:13:29
FLORAnamespace-alias0.012009-08-22 11:37:09
NPEREZPOEx-ProxySession0.0923402009-08-22 15:09:39
JESSEApp-SD0.69_012009-08-22 19:38:25
AZAWAWIAcme-CPANAuthors-Arabic0.012009-08-22 22:25:13
GUGODJiftyX-Markapl0.012009-08-23 02:42:04
KSURITinyURL-RU0.012009-08-23 15:43:39
KENTNLDist-Zilla-Plugin-AutoVersion-Relative0.010001042009-08-24 00:06:42
PHATWARESWin32-GetDefaultBrowser1.002009-08-24 00:22:06
KENTNLMooseX-AttributeIndexes0.010003002009-08-24 08:06:36
ZEFRAMAttribute-Lexical0.0002009-08-24 11:16:12
IKLUFTXML-CAP0.012009-08-24 13:19:32
TIMABundle-Melody-extlib0.9.2_12009-08-24 15:53:17
VANAMBURGCGI-Application-Plugin-SuperForm0.12009-08-24 21:01:50
ZARQUONText-Format-Interview0.012009-08-24 21:37:53
BURAKParse-HTTP-UserAgent0.102009-08-25 03:32:41
ARISAWADBIx-Sharding0.012009-08-25 03:50:17
CIASub-Prototype-Introspect0.00_012009-08-25 05:27:08
KENTNLSearch-GIN-Extract-AttributeIndexes0.010000112009-08-25 05:57:54
BIGPRESHColor-Spectrum-Multi0.012009-08-25 17:34:00
ATHOMASONGearman-WorkerSpawner1.002009-08-25 20:18:10
RCAPUTOPOE-Loop-Event1.3002009-08-25 22:37:10
RCAPUTOPOE-Loop-Gtk1.3002009-08-25 22:37:21
RCAPUTOPOE-Loop-Tk1.3002009-08-25 22:37:32
REHSACKTemplate-Plugin-ListMoreUtils0.012009-08-26 06:49:20
SGRAHAMTemplate-Sandbox1.002009-08-26 08:35:41
STEPHANJCatalyst-TraitFor-Request-PerLanguageDomains0.012009-08-26 09:18:23
REHSACKTemplate-Plugin-HashMerge0.012009-08-26 11:00:50
LEOCHARREbugzillareport1.022009-08-26 11:23:46
RATTLERNetSDS-Message0.012009-08-26 13:59:25
ZARQUONLingua-EN-AffectiveNorms0.012009-08-27 01:13:15
KTHAKOREAlien-SDL0.012009-08-27 07:12:13
DOTTKDomain-Register-TK2.0_002009-08-27 07:16:12
LIOSHAMath-Polygon-Tree0.022009-08-27 07:36:55
HAVIString-StringLight0.012009-08-27 09:32:12
HAVISpreadsheet-Excel2Text0.012009-08-27 09:32:24
ZEFRAMSub-Mutate0.0002009-08-27 10:52:29
PERLERMooseX-Traits-Attribute-MergeHashRef1.0002009-08-27 12:23:44
EXODISTlocal-lib-deps-testmodule0.012009-08-27 18:09:17
BEPPUStardust0.012009-08-27 23:34:38
FAYLANDAcme-Padre-PlayCode0.112009-08-28 00:03:52
ZIGOROUModule-Install-TestVars0.01_012009-08-28 04:15:27
MUENALANDecision-Table0.02_022009-08-28 05:45:01
MIORELApp-PDBRun0.00_012009-08-28 08:18:41
FXNNet-FluidDB0.012009-08-28 10:44:18
JKUTEJIO-Any0.012009-08-28 11:21:24
JKUTEJJSON-Util0.012009-08-28 11:24:08
JWRIGHTAnchovy0.012009-08-28 14:34:24
ZEFRAMSub-Filter0.0002009-08-28 18:35:23
DERMOTHIPC-Semaphore-Concurrency0.012009-08-28 19:39:24
DUMBHTML-Form-XSS0.12009-08-28 20:15:11
IDERRICKBot-BasicBot-Pluggable-Module-VieDeMerde0.12009-08-29 05:25:39
AWNCORPSweetPea2.002009-08-29 11:18:18
XSAWYERXWWW-FMyLife0.012009-08-29 14:23:11
PHATWARESWin32-HideConsole1.002009-08-29 15:05:07
GPHATData-Verifier0.012009-08-29 23:50:55
CEBJYRETest-ConsistentVersionv0.0.12009-08-30 09:26:58
STEVANFeyX-Active0.012009-08-30 13:13:41
JCNORTONTk-DoubleClick0.012009-08-30 14:14:53
SHLOMIFDist-Manv0.0.12009-08-30 16:24:50
YANICKTask-BeLike-YANICK0.1.02009-08-30 20:54:17
SWINEDAttribute-Args0.012009-08-31 02:03:43
FERZCatalyst-View-PDF-API20.012009-08-31 03:19:29
GRAYURI-Unredirect0.012009-08-31 08:19:47
GUGODPerlX-MethodCallWithBlock0.012009-08-31 10:24:23
ARNIEWWW-AllTop0.012009-08-31 10:43:36
BLAKEWImage-GeoTIFF-Tiled0.012009-08-31 11:22:09
KENTNLSearch-GIN-Extract-ClassMap0.010006042009-08-31 12:06:50
MSISKNet-Ncap1.002009-08-31 12:50:05
DAMOGNet-Domain-ES-ccTLD0.12009-08-31 13:01:41
NPEREZPOEx-PubSub0.0924302009-08-31 15:38:56
NUFFINTry-Tiny0.012009-08-31 16:02:19
JKUTEJSys-Path0.012009-08-31 17:13:17
JKUTEJAcme-SysPath0.012009-08-31 17:14:44
DWHEELERTest-XPath0.102009-08-31 17:34:41
PERLERCatalystX-ExtJS0.012009-08-31 17:41:17
VANAMBURGCGI-Application-Plugin-DBIC-Schema0.12009-08-31 19:42:23

New Distributions for September 2009 (216)

AuthorDistributionVersionRelease Date/Time
LUKECNet-TextMessage-Canada0.012009-08-31 23:33:31
DYLANTerm-ANSIColor-Print0.012009-09-01 01:57:15
AAYARSAcme-Noisemaker0.0012009-09-01 02:23:57
RICKDate-Holidays-CA0.012009-09-01 07:49:30
SMUELLERExtUtils-Typemap0.012009-09-01 11:12:36
GPHATBusiness-Payment0.01_012009-09-01 12:49:05
PIRZYKNetAthlon2-RAW0.012009-09-01 12:55:56
KWMAKChart-Gnuplot-Pie0.012009-09-01 13:01:15
LEMBARKExporter-Proxy0.012009-09-01 17:37:24
ALEXMAcme-PM-Barcelona0.012009-09-01 20:01:08
MUIRList-EvenMore0.112009-09-01 21:48:00
MUIREval-LineNumbers0.312009-09-01 21:52:00
MIYAGAWAApp-CPAN-Fast0.012009-09-02 01:58:57
TYPESTERAnyEvent-Gearman0.012009-09-02 03:20:34
MIYAGAWAApp-CPAN-Fresh0.042009-09-02 04:19:12
CLSUNGWWW-Scramble0.012009-09-02 05:29:32
MONSaccessors-fast0.032009-09-02 06:18:53
DYLUNIOGwybodaeth0.012009-09-02 06:26:44
SALVAlib-glob0.012009-09-02 09:04:21
RARBOXNet-uTorrent0.022009-09-02 09:21:15
GVENKATNet-SMS-ViaNett0.012009-09-02 11:00:27
MUIRConfig-Checker0.412009-09-02 12:05:00
KIMOTOClass-Define0.01012009-09-02 12:47:46
MONSCatalyst-Action-Serialize-XML-Hash-LX0.052009-09-02 16:51:59
BYTBOXWWW-TBA-API1.002009-09-02 18:55:22
NPEREZPOEx-WorkerPool0.0924502009-09-02 20:00:19
TOKUHIROMargs0.01_012009-09-02 20:33:27
TOKUHIROMAnyEvent-MPRPC0.012009-09-03 03:05:27
PGRASSIEBusiness-OnlinePayment-WorldPay0.92009-09-03 08:42:23
DONATOAZCAM-PDF-Annot-Parsed0.012009-09-03 12:39:11
FROLLERNet-FRN0.042009-09-03 16:57:50
OSFAMERONData-SCORM0.022009-09-03 18:30:07
ARISAWADBIx-DBHResolver0.012009-09-04 03:48:21
HIROSEIO-File-AtomicChange0.012009-09-04 04:10:03
NIDSAlgorithm-WordLevelStatistics0.022009-09-04 04:19:41
BINGOSPOE-Component-Server-SimpleHTTP-PreFork1.99_032009-09-04 05:59:43
CIAEnv-Transaction0.00_012009-09-04 07:47:26
NIDSStatistics-OnLine0.012009-09-04 12:10:10
SSCHNEIDREST-Google-Apps-EmailSettings1.1.12009-09-04 14:57:11
GFUJIUNIVERSAL-DOES0.0012009-09-05 00:41:29
MARKFDevel-UseFromCommandLineOnly1.002009-09-05 02:39:16
KUNIYOSHIWWW-YouTube-Download0.022009-09-05 05:07:47
LKUNDRAKAcme-Flip1.02009-09-05 12:56:28
GPHATData-SearchEngine0.012009-09-05 13:07:00
FROLLERAudio-GSM0.012009-09-05 18:01:29
RUZRT-Condition-Complex0.012009-09-05 20:57:12
XSAWYERXPOE-Component-OpenSSH0.012009-09-06 05:37:15
SETITESUKMooseX-Storage-File_or_DB0.12009-09-06 12:54:18
NACHBAURCatalyst-View-XML-Generator0.012009-09-06 13:00:52
RODRIGOCatalystX-Features0.102009-09-06 19:08:41
GALILEOHardware-PortScanner0.512009-09-06 22:07:23
RARBOXWWW-BurrpTV0.012009-09-07 01:10:58
JONALLENCatalyst-View-Thumbnail0.012009-09-07 07:57:13
CRAFTWORKTest-ttserver0.0012009-09-07 08:01:17
NACHBAURHTML-FormHandler-Render-Hash0.012009-09-07 14:04:47
MARCELModule-Install-Bugtracker0.012009-09-07 14:07:35
MARCELModule-Install-Homepage0.012009-09-07 14:14:12
EWILHELMCombust-Spontaneouslyv0.0.12009-09-08 03:27:42
SILASMONKCGI-Application-Plugin-PageLookup1.02009-09-08 11:10:12
GRAYStatistics-TopK0.012009-09-08 12:26:48
VVELOXPlugtools0.0.02009-09-08 12:48:33
SUNNAVYNet-Lighthouse0.012009-09-08 21:02:29
BOBPPMobaSiF-Template0.012009-09-08 22:56:46
KAZUHOServer-Starter0.012009-09-09 03:59:32
KAZUHONet-Server-SS-PreFork0.012009-09-09 04:16:32
NUFFINB-Hooks-XSUB-CallAsOp0.012009-09-09 12:33:41
AAYARSOP-Net0.3142009-09-09 16:16:29
JCLINERobotics0.212009-09-09 17:09:52
MMCLERICLog-Unrotate1.002009-09-10 10:39:49
HOLLYApp-CLI-Plugin-InstallCallback0.12009-09-10 12:09:31
POLETTIXAcme-ModuleVersionTest5.10.1.12009-09-10 12:56:21
PANYUApp-MultiLanguage0.012009-09-10 12:56:33
HOLLYApp-CLI-Plugin-Log-Message0.12009-09-10 13:19:54
JANPAZApache2-RequestRec-Time1.02009-09-10 13:49:07
SHIMIWin32-Watir0.022009-09-10 21:28:32
GUGODPerlX-Range0.012009-09-11 02:41:26
NEKOKAKQudo0.01_012009-09-11 02:55:34
FUJIWARADBIx-CouchLike0.102009-09-11 02:57:07
SARTAKGesture-Simple0.012009-09-11 04:19:43
MARCELCPAN-Command0.012009-09-11 06:14:32
GBARRPerlbal-Plugin-TrustHeader0.012009-09-11 18:18:53
ATHOMASONGanglia-Gmetric-PP0.962009-09-11 19:01:57
RJBSDNS-Oterica0.0925412009-09-11 19:17:00
SETITESUKMooseX-File_or_DB-Storage0.32009-09-12 02:50:33
MOBArgs-Simple1.02009-09-12 03:10:59
BRUNOVBio-Protease1.0925502009-09-12 03:17:37
DVWRIGHTACME-QuoteDB0.1.02009-09-12 04:01:38
NUFFINMagical-Hooker-Decorate0.012009-09-12 04:54:09
CSJEWELLTest-Perl-Dist0.2002009-09-12 17:31:19
VVELOXSamba-SIDhelper0.0.02009-09-12 19:35:09
SILASMONKTest-Regression0.012009-09-13 07:20:29
MDOMText-Pipe-RandomCase0.012009-09-13 08:08:36
MDOMText-Password-Pronounceable-Harden0.012009-09-13 08:15:11
RMBARKERPod-Plainer0.012009-09-13 12:37:45
PJAINWWW-Shorten-Yourls0.012009-09-13 14:02:19
JKUTEJTest-Daily0.012009-09-13 14:58:54
RJBSGit-Megapull0.0925602009-09-13 22:04:00
KAZUHOHTTP-Parser-XS0.012009-09-13 22:48:51
GFUJIXS-Assert0.0012009-09-14 01:51:24
DPAVLINRedis0.08012009-09-14 07:52:00
AMONTEROLingua-ES-Syllabify0.92009-09-14 16:19:10
LEEDOMac-SleepEvent0.012009-09-14 21:12:46
GRAYGeo-Coder-Mapquest0.012009-09-15 05:35:31
NUFFINXS-Object-Magic0.012009-09-15 08:49:41
NOBJASWebService-SmartFM0.0.32009-09-15 09:06:21
STIGTSPTemplate-Plugin-File-StaticURL0.012009-09-15 11:19:35
REDSTweetHook-API0.012009-09-15 12:44:49
GPHATKiokuDB-Backend-Redis0.012009-09-15 15:22:48
GUGUdyatel0.012009-09-15 16:40:54
MRDVTNet-GPSD30.012009-09-16 01:56:26
VVELOXPlugtools-Plugins-Samba0.0.02009-09-16 03:52:31
PMAKHOLMORLite-Array0.012009-09-16 08:16:17
FAYLANDOpenSocialX-Shindig-Crypter0.012009-09-16 08:46:47
RUZRT-Extension-CustomField-HideEmptyValues0.012009-09-16 09:07:40
STROWWW-DreamHost-API1.002009-09-16 11:20:30
LETONet-Topsy0.01_012009-09-16 12:16:41
YANNKNet-AppNotifications0.012009-09-16 16:22:26
STEVANBuffer-Transactional0.012009-09-16 17:13:21
GRAYURI-Coralize0.012009-09-17 00:29:54
TOKUHIROMFCGI-Client0.01_012009-09-17 00:33:57
RSRCHBOYMooseX-CascadeClearing0.012009-09-17 02:36:58
HAVIWin32-Access2Text0.012009-09-17 08:35:50
VANAMBURGModule-Starter-Plugin-Attanium0.0012009-09-17 11:42:00
VANAMBURGAttanium0.0012009-09-17 11:42:11
SDENMedical-DukePTP0.12009-09-17 13:31:14
PERLERLog-Dispatch-Prowl1.0002009-09-17 13:48:24
KEVINJAnyEvent-SCGI1.02009-09-17 14:10:22
ZOFFIXWWW-Purolator-TrackingInfo0.01012009-09-17 15:35:36
EXODISTpackage-watchdog0.012009-09-17 18:06:22
OALDERSHTML-Restrict0.012009-09-17 18:57:40
SALVASort-Key-LargeInt0.012009-09-17 21:07:32
SSEVERINFinance-Bank-US-INGDirect0.022009-09-17 23:29:41
GUGODTask-PerlX0.012009-09-18 03:18:59
VVELOXPlugtools-Plugins-HomeOU0.0.02009-09-18 04:32:28
AMONTEROLingua-ES-PhT0.92009-09-18 15:11:59
LEOCHARREchownfu1.052009-09-18 15:52:33
JAKOBIwaitcond0.322009-09-18 16:40:30
VANAMBURGCGI-Application-Structured-Tools0.0012009-09-18 17:28:57
VANAMBURGCGI-Application-Structured0.0012009-09-18 17:30:23
WILSONDWWW-TextMarks0.012009-09-18 23:20:04
GPHATCatalyst-Plugin-Session-Store-Redis0.012009-09-19 00:45:23
SCOTTWWWW-Twilio-API0.122009-09-19 02:24:26
RJRAYTest-Without0.102009-09-19 23:15:11
RANDIRHeap-Fibonacci-Fast0.012009-09-20 01:16:41
KEICHNERXML-Reader-French0.012009-09-20 05:41:46
KEICHNERXML-Reader-German0.012009-09-20 05:41:57
PEARLBinutils-Objdump0.0.12009-09-20 08:24:55
DAVECROSSWWW-Shorten-SnipURL2.002009-09-20 09:51:59
NUFFINAnyEvent-Kanye0.012009-09-20 16:03:13
DANJOUNet-Google-DataAPI0.012009-09-20 21:45:57
WNODOMList-Categorize0.012009-09-20 22:43:15
BDFOYabc-p5-Palm1.0112009-09-21 01:38:05
LENIKcmt0.0.12009-09-21 03:43:13
MYFINDERDBIx-Encoding0.012009-09-21 06:58:59
MARCELShipIt-Step-DistTestExtra0.012009-09-21 11:40:02
VVELOXPhone-Info0.0.02009-09-21 14:16:51
WILSONDWWW-FoneFinder0.012009-09-21 15:52:28
WILSONDWWW-MelissaData-PhoneLocation0.012009-09-21 16:34:38
AWNCORPSweetPea-Style-Default0.012009-09-21 22:22:44
TEQUETERNet-Routev0.00_012009-09-22 08:50:59
ADAMKORDB-JSAN0.012009-09-22 09:24:20
SCHWIGONemacs-tap-mode0.042009-09-22 15:03:41
ZEFRAMLexical-SealRequireHints0.0002009-09-22 15:13:56
DROLSKYHTML-WikiConverter-MultiMarkdown0.012009-09-22 15:23:03
QSUNWWW-Search-Scrape0.012009-09-22 22:14:00
RCAPUTOReflex0.0012009-09-23 00:51:00
TKEEFERGantry-Plugins-CookieCheck0.022009-09-23 11:48:53
PSHANGOVMiril0.0012009-09-23 12:34:28
MNDRIXText-Phonetic-VideoGame0.022009-09-23 16:10:13
ZEFRAMLexical-Var0.0002009-09-23 18:00:34
LENIKcmt-libchm0.012009-09-23 19:16:57
GBARRAuthen-SASL-XS1.002009-09-23 20:54:24
PERIGRINAdam0.042009-09-23 21:43:23
DDUMONTConfig-Model-Approx1.0012009-09-24 06:04:08
ZOULText-FindLinks0.012009-09-24 09:36:53
SEWIFormat-Human-Bytes0.012009-09-24 11:43:30
RANDIRBSD-Process-Affinity0.012009-09-24 12:38:03
HAVIWin32-EmailSend0.012009-09-24 14:59:48
NPEREZPOEx-Trait-ExtraInitialization0.0926702009-09-24 19:47:56
NPEREZPOEx-Trait-DeferredRegistration0.0926802009-09-24 20:38:33
HAVISpreadsheet-PrintExcelSheet0.012009-09-25 05:50:39
FAYLANDCatalyst-Authentication-Store-FromSub0.012009-09-26 04:56:48
GRAFCatalyst-ActionRole-Tabs0.0010002009-09-26 12:56:58
DUNCANDMuldis-D-Manual0.0.02009-09-26 20:42:38
ASGXUL-Gui0.12009-09-26 22:04:00
JSOBRIERWWW-Shorten-Safe1.002009-09-26 23:11:23
ASHLEYDBICx-MaterializedPath0.012009-09-27 01:32:14
ZEFRAMArray-Base0.0002009-09-27 03:08:23
AAYARSFractal-Noisemaker0.0102009-09-27 12:39:00
MJGARDNERData-Compare-Plugins-Set-Object1.0_12009-09-27 13:48:00
PORRIDGEApp-MaMGal1.22009-09-27 15:07:28
RODRIGOCalendar-Slots0.012009-09-27 19:05:56
KTHAKORESDL-Tutorial-Tetris0.012009-09-27 21:29:19
KRYDEconstant-defer12009-09-27 21:43:59
KRYDEFile-Locate-Iterator12009-09-27 22:02:00
SAUBEREncode-Bootstring0.012009-09-28 08:43:13
SAXJAZMANRT-IODEF0.02_12009-09-28 09:32:33
KARMANRose-ObjectX-CAF0.012009-09-28 09:37:00
PEVANSTerm-Terminfo0.012009-09-28 15:03:34
JONASBNBundle-JONASBN0.012009-09-28 15:51:23
FUJISAWAAlgorithm-BayesianSets0.012009-09-29 04:27:13
DMAKICatalystX-AppBuilder0.000012009-09-29 06:43:26
IDOPERELMarkup-Unified0.012009-09-29 13:49:32
IDOPERELDBIx-Class-InflateColumn-Markup-Unified0.012009-09-29 13:49:44
FLORACatalystX-SimpleLogin0.012009-09-29 20:20:31
VITOCORegexp-Keywords0.032009-09-29 20:21:58
NUFFINIO-Handle-Util0.01_012009-09-29 20:27:18
ALINKELingua-Lid0.012009-09-30 03:00:48
DRINCHEVCSS-LESSp0.012009-09-30 07:40:54
GRAYGeo-Coder-Multimap0.012009-09-30 08:47:51
DMAKICatalystX-VirtualComponents0.000012009-09-30 09:25:33
JMERELOAlgorithm-MasterMind0.0.12009-09-30 12:30:00
EKAWASSADI0.922009-09-30 15:32:27
CJFIELDSBioPerl-DB1.6.0_0012009-09-30 16:49:59
CJFIELDSBioPerl-Network1.6.0_0012009-09-30 16:50:18
CJFIELDSBioPerl-Run1.6.1_0012009-09-30 17:07:38

New Distributions for October 2009 (261)

AuthorDistributionVersionRelease Date/Time
SCHWIGONApp-DPath0.032009-10-01 03:13:01
CHANSENMac-SystemDirectory0.02_012009-10-01 06:47:56
DOUGDUDENet-NSCA-Client0.0012009-10-01 20:42:02
JEENWWW-Shorten-Durl0.012009-10-02 01:54:24
WSDOOKADRBackup-Email0.012009-10-02 10:53:26
AWNCORPDBIx-Simple-Batch1.632009-10-02 10:58:45
JKUTEJTest-Install-METArequires0.012009-10-02 12:32:10
EXODISTPackage-Watchdog0.082009-10-02 16:13:42
DMAKIDevel-InheritNamespace0.000012009-10-02 20:49:12
MSTROUTData-Dumper-Concise1.0002009-10-03 12:24:44
KEICHNERWin32-MinXSLT0.012009-10-03 13:21:59
NICEPERLSQL-Template0.1.02009-10-03 14:54:43
CJCOLLIERLingua-HPSG0.012009-10-03 21:35:36
GPHATBusiness-Payment-ClearingHouse0.012009-10-03 23:14:40
TOKUHIROMModule-Install-ForC0.012009-10-04 00:24:16
MARCELTask-BeLike-hanekomu0.012009-10-04 06:23:13
JTRAMMELLApp-War0.012009-10-04 08:46:14
MARCELPod-Markdown0.012009-10-04 10:07:40
SILASMONKGeo-Google-MapObject0.022009-10-04 10:24:40
MARCELModule-Install-ReadmeMarkdownFromPod0.012009-10-04 10:57:00
MRDVTMethod-Autoload0.012009-10-04 23:22:11
DMAKIOrochi0.00001_012009-10-05 00:25:46
CHIBAIO-File-WithPath0.012009-10-05 01:38:07
DEVMORFOEmbedIT-WebIT1.62009-10-05 02:31:14
ELLIOTTBusiness-OnlinePayment-SagePay0.062009-10-05 10:39:20
FUJISAWAAlgorithm-FuzzyCmeans0.012009-10-05 13:03:45
JHTHORSENTransmission-Client0.012009-10-05 14:52:17
LEEDOApp-Alice0.012009-10-05 15:08:56
DWHEELERDBIx-Connector0.112009-10-05 18:07:05
MLEHMANNCoro-MP0.12009-10-05 21:41:06
AAYARSMath-Fractal-Noisemaker0.0122009-10-05 23:07:24
SAMVNet-SSLeay-OO0.012009-10-06 03:23:47
FUJISAWAAlgorithm-Kmeanspp0.012009-10-06 03:29:26
STBEYBundle-STBEY1.02009-10-06 04:19:24
KAZUHOincline0.012009-10-06 07:00:53
ZIGOROUSQL-Abstract-Plugin-InsertMulti0.012009-10-06 08:14:43
GUGUDBIx-Class-CustomPrefetch0.022009-10-06 09:35:32
SHARYANTOBusiness-ID-NIK0.012009-10-06 11:11:08
SHARYANTOBusiness-ID-SIM0.012009-10-06 11:57:02
SHARYANTOBusiness-ID-NPWP0.012009-10-06 13:26:49
FLORAMooseX-Role-WithOverloading0.012009-10-06 18:37:32
FREWCGI-Application-Plugin-DBIx-Class0.0928002009-10-06 21:09:50
DRSTEVECrypt-Password0.012009-10-07 01:04:58
RUZMasonX-LeakGuard-Object0.012009-10-07 05:25:46
MELODist-Zilla-Plugin-MakeMaker-SkipInstall1.02009-10-07 08:01:37
NPEREZMooseX-CompileTime-Traits0.0928002009-10-07 13:54:19
BRUNOVAI-Genetic-Pro-Macromolecule0.09280.0_0012009-10-07 14:00:59
RSRCHBOYMooseX-TrackDirty-Attributes0.012009-10-08 00:26:31
PIOTORemind-Client0.012009-10-08 01:25:04
STBEYBundle-STBEY-Favourites1.02009-10-08 02:34:52
TMULEVICHArchive-SimpleExtractor0.012009-10-08 05:16:31
KAZUHOcppref0.012009-10-08 07:17:52
YAPPOHTTP-Request-StreamingUpload0.012009-10-08 14:01:00
KAMELKEVCSS-Inliner23042009-10-08 15:40:00
FLORAMooseX-LexicalRoleApplication0.012009-10-08 17:10:00
DOUGDUDEURI-pack0.0012009-10-08 23:32:00
DAVIDPBundle-xymondb0.012009-10-09 00:40:00
GFUJIShipIt-Step-ChangeAllVersions0.0012009-10-09 02:24:00
MELOProc-CPUUsage0.12009-10-09 02:25:00
MIYAGAWADevel-StackTrace-AsHTML0.012009-10-09 02:55:00
KAAREJob-Machine0.0012009-10-09 07:55:24
FREWCGI-Application-Plugin-ExtJS0.0928202009-10-09 09:42:38
DCMERTENSGraphics-Asymptotev0.0.12009-10-09 09:49:16
TOBYINKHTTP-Link-Parser0.012009-10-09 11:01:34
MORIYAMooseX-Types-Locale-Language0.0002009-10-09 12:33:01
MILATemplate-Plugin-CSS-LESSp0.012009-10-09 15:58:00
GPHATCHI-Driver-Redis0.012009-10-09 18:37:00
MELOAnyEvent-Monitor-CPU0.22009-10-10 08:36:20
KEICHNERTerm-DBPrompt0.012009-10-10 17:22:42
GENEMIDI-Simple-Drummer0.00_012009-10-10 20:23:28
WSDOOKADRCM-Permutation0.012009-10-10 22:11:25
ASGPerl6-Feeds0.12009-10-10 23:25:49
ANDREMARXML-Atom-Ext-Media0.0928402009-10-11 03:57:47
VVELOXZConf-Runner-GUI-GTK0.0.02009-10-11 04:50:56
YAMAMOTOTemplate-Plugin-Lingua-JA-Regular-Unicode0.012009-10-11 09:49:17
GSIEMSPadre-Plugin-ShellCommand0.202009-10-11 20:59:44
CJMPod-Loom0.012009-10-11 21:12:29
APEIRONTest-WWW-Mechanize-Declare0.0000002009-10-11 21:25:31
CJMDist-Zilla-PluginBundle-CJM0.012009-10-11 22:39:36
VVELOXZConf-Cron-GUI-GTK0.0.02009-10-12 01:13:16
CHIBAAcme-Coro-Suke0.012009-10-12 02:27:46
CHANSENString-Numeric0.12009-10-12 16:41:40
MAJENSENSQLite_File0.012009-10-12 17:28:59
MAJENSENAnyDBM_File-Importer0.012009-10-12 17:30:25
ROBNXML-Spice0.012009-10-12 22:59:55
MIYAGAWAPSGI1.02009-10-13 03:09:49
MIYAGAWACGI-PSGI0.012009-10-13 03:11:17
MIYAGAWAPlack0.90002009-10-13 03:21:14
MIYAGAWAPlack-Request0.012009-10-13 03:29:56
MIYAGAWAPlack-Server-ServerSimple0.012009-10-13 03:37:55
MIYAGAWAPlack-Server-AnyEvent0.012009-10-13 03:43:21
MIYAGAWAPlack-Server-ReverseHTTP0.012009-10-13 03:44:49
MIYAGAWACatalyst-Engine-PSGI0.012009-10-13 04:04:41
GURUPERLNet-XMPP31.022009-10-13 09:09:48
MORIYAMooseX-Types-Locale-Country0.0002009-10-13 11:44:41
FAXIOMANTemplate-Plugin-UTF8Decode0.012009-10-13 12:02:08
BOBTFISHNet-Zuora0.000000_012009-10-13 12:40:28
MIYAGAWAPlack-Server-Coro0.012009-10-13 12:59:56
FWIEWWW-Moviepilot0.012009-10-13 14:43:06
MIYAGAWATask-Plack0.012009-10-13 15:18:36
BEPPUSquatting-On-PSGI0.012009-10-13 18:05:00
TURNERJWTk-SMListbox1.112009-10-14 00:24:52
KITANOPlackX-MiddlewareStack0.0112009-10-14 02:29:42
KITANOPlackX-Engine0.012009-10-14 02:40:21
GUIDODevel-throttle0.012009-10-14 07:53:58
MONSuni-perl0.012009-10-14 09:13:50
VOJDAIA0.202009-10-14 10:20:49
CHANSENString-Numeric-XS0.12009-10-14 10:30:11
SHARYANTOFinance-Bank-ID-BCA0.012009-10-14 11:08:32
SHARYANTOFinance-Bank-ID-Mandiri0.012009-10-14 22:06:28
JABRABurpsuite-Parser0.012009-10-15 00:26:05
KORSANIText-Phonex0.032009-10-15 04:38:10
MEHIPTables-Log0.00012009-10-15 04:55:05
ELMEXAnyEvent-RetryTimer0.12009-10-15 08:35:24
AHERNITPod-Autopod1.042009-10-15 09:15:57
ERWANDBIx-QueryByName0.012009-10-15 10:38:51
NATONNet-Amazon-AWSSign0.012009-10-15 12:13:25
MSCHOUTTemplate-Plugin-Filter-Minify-JavaScript0.902009-10-15 15:29:08
MSCHOUTTemplate-Plugin-Filter-Minify-JavaScript-XS0.902009-10-15 15:43:46
MSCHOUTTemplate-Plugin-Filter-Minify-CSS0.902009-10-15 15:57:03
MSCHOUTTemplate-Plugin-Filter-Minify-CSS-XS0.902009-10-15 16:03:52
RSIDDALLBusiness-OnlinePayment-ElavonVirtualMerchant0.012009-10-15 16:05:19
FWIEAcme-Postmodern-Perl0.012009-10-15 18:38:35
FWIEAcme-Very-Modern-Perl0.012009-10-15 18:40:02
FRODWITHPlack-Server-POE0.12009-10-15 20:34:15
JKUTEJApp-Stash0.012009-10-16 03:53:33
KITOMERWTB0.012009-10-16 07:48:57
NPWLWP-UserAgent-Snapshotv0.12009-10-16 07:58:03
NPWHTML-Encapsulatev0.12009-10-16 09:30:32
JQUELINTest-Corpus-Audio-MPD1.0928902009-10-16 09:55:00
KITOMERCGI-WebToolkit0.012009-10-16 11:54:42
JABRANikto-Parser0.012009-10-16 15:59:49
JABRASslscan-Parser0.012009-10-16 16:32:49
JABRADirbuster-Parser0.012009-10-16 17:25:56
STBEYDate-Calc-XS6.22009-10-16 18:20:48
AAYARSDevel-Pillbug0.0012009-10-16 19:55:47
KESTEBSupervisor0.012009-10-16 23:09:30
NCLEATONTest-NameNote0.012009-10-17 02:36:08
MELOBrowser-Open0.012009-10-17 07:51:15
VVUProc-Launcher0.0.12009-10-17 15:32:25
CHANSENNet-FastCGI0.01_012009-10-17 17:58:11
SALVANet-OpenSSH-Parallel0.022009-10-17 18:39:00
VVELOXGtk2-Chmod0.0.02009-10-18 04:15:13
JKUTEJData-asXML0.012009-10-18 12:16:58
DANBOOText-xSV-Slurp0.102009-10-18 13:34:51
VVELOXPerlFM0.0.02009-10-19 02:01:59
MONSVariable-Eject0.012009-10-19 06:43:09
HAOYAYOICatalyst-View-APNS0.012009-10-19 09:54:16
DAMSCurses-Toolkit0.0929202009-10-19 12:42:43
LEOCHARREcpanupload1.12009-10-19 15:17:44
SEKIMURAText-Markdown-Discount0.012009-10-19 18:43:46
VVUDist-Zilla-Plugin-MetaRecommends0.012009-10-19 18:50:06
DHORNEDBIx-VersionedDDL0.012009-10-19 20:48:16
AAYARSDevel-Ladybug0.399_0012009-10-19 21:25:02
AAYARSDevel-Ladybug-Net0.399_0012009-10-19 21:48:17
TOKUHIROMCGI-Emulate-PSGI0.012009-10-19 22:26:55
BASTIANNet-NIS-Netgroup1.02009-10-20 03:47:50
BASTIANUser-getgrouplist1.02009-10-20 04:09:33
FAYLANDSphinx-Log-Parser0.012009-10-20 04:19:54
TOKUHIROMClib-nanotap0.01_012009-10-20 07:48:56
ZEFRAMParse-Perl0.0002009-10-20 09:23:34
CJMDist-Zilla-Plugin-MatchManifest0.012009-10-20 10:59:36
XSAWYERXPOE-Test-Helpers0.052009-10-20 12:48:05
MARCELDB-Pluggable-StackTraceAsHTML0.012009-10-20 13:31:45
CJMMooseX-AttributeTree0.012009-10-20 16:28:29
CJMPostScript-Report0.012009-10-20 16:37:35
KENTNLIPC-Run-Fused0.010000012009-10-20 20:36:57
JHANNAHModule-Install-DiffCheck0.012009-10-21 10:17:09
BDUGGANClass-Accessor-Contextual0.012009-10-21 12:31:25
GANGLIONAudio-Nama0.99812009-10-21 13:58:44
MIYAGAWAFilesys-Notify-Simple0.012009-10-21 17:02:24
BASTIANDevice-Blkid0.92009-10-21 17:17:53
RUZRT-Extension-Log-MemoryUsage0.012009-10-21 19:33:36
WYANTPPIx-Regexp0.0012009-10-21 22:04:40
FREWDateTime-Format-MSSQL0.0929502009-10-21 23:04:36
MAJENSENPerlIO-via-SeqIO0.12009-10-22 00:25:45
TOKUHIROMModule-Install-Clib0.012009-10-22 02:45:25
RUZRT-Extension-ViaLink-UpdateTicket0.022009-10-22 12:27:14
THALJEFTest-Perl-Critic1.022009-10-22 19:34:42
RKRIMENIPC-RunSession-Simple0.0012009-10-23 06:27:47
MAJENSENPerlIO-via-gzip0.012009-10-23 11:58:23
SREZICAlgorithm-GooglePolylineEncoding0.012009-10-23 14:08:47
POTYLGame-Pexeso0.012009-10-23 14:48:25
VVELOXZConf-DevTemplate0.0.02009-10-23 14:57:32
JHALLOCKGtk2-Ex-DateEntry0.012009-10-23 16:16:21
MSTPLBGX11-XCB0.01_0012009-10-23 17:29:12
MONSDevel-Leak-Cb0.012009-10-23 20:08:48
FREWDBIx-Class-Helpers0.0929702009-10-24 03:43:44
FREWTraitFor-Catalyst-Controller-DBIC-DoesPaging0.0929702009-10-24 03:49:11
CORIONMozRepl-RemoteObject0.012009-10-24 11:03:20
JPIERCERTx-CFC0.01_12009-10-24 13:54:23
MARKOVXML-Compile-RPC0.102009-10-24 14:20:06
MARCELProperty-Lookup0.012009-10-24 18:20:35
JABRAFierce-Parser0.012009-10-24 21:15:58
ZAGNet-Transmission0.01_012009-10-25 09:11:02
HOLLYApp-CLI-Plugin-Net-SMTP0.12009-10-25 09:38:00
APLAWeb-App1.12009-10-25 11:11:03
MILAMooseX-Types-Digest0.012009-10-25 12:48:14
JKUTEJModule-Build-SysPath0.092009-10-25 14:00:59
MIKIWebService-APIKeys-AutoChanger0.000012009-10-25 15:21:47
MILAMooseX-Types-JSON0.012009-10-25 16:52:32
TBRWKHTMLTOPDF0.012009-10-25 22:42:07
KENTNLDist-Zilla-Role-Tempdir0.010000032009-10-25 22:52:37
GFUJIScalar-Util-Instance0.0012009-10-26 01:58:06
RKRIMENDaemon-Daemonize0.0012009-10-26 03:39:31
JROCKWAYAnyEvent-Subprocess0.00_012009-10-26 04:17:26
NWELLNHOFWWW-Google-AdPlanner1.002009-10-26 07:51:00
NWELLNHOFIP-Country-DB_File1.012009-10-26 08:00:06
BARBIECPAN-Testers-WWW-Statistics-Excel0.012009-10-26 09:01:25
MSCHOUTSys-Signals-Block0.012009-10-26 13:10:47
CORIONWWW-Mechanize-FireFox0.012009-10-26 13:47:31
CORNELIUSVIM-Packager0.012009-10-26 17:05:25
AZAWAWIAcme-CPANAuthors-Padre0.012009-10-26 20:58:45
HAVIBusiness-PVMForImportAfterExport0.012009-10-27 08:40:12
HAVIEmail-ECGListe0.012009-10-27 08:40:23
RJBSPod-Elemental-Transformer-WikiDoc0.0930002009-10-27 11:36:11
MIKIWebService-WebSequenceDiagrams0.000012009-10-27 13:35:43
NATGHash-AutoHash1.002009-10-27 15:52:30
PERLISHAbjad0.012009-10-27 16:52:18
JSWARTZLog-Any-Adapter0.012009-10-27 18:27:58
ABIGAILAcme-CPANAuthors-Dutch20091028012009-10-28 06:20:38
ABIGAILAcme-CPANAuthors-EU20091028012009-10-28 07:21:32
ABIGAILAcme-CPANAuthors-European20091028012009-10-28 07:22:59
DMLONDGoogle-Spreadsheet-Agent0.012009-10-28 07:38:35
KENTNLPackage-Strictures0.010000072009-10-28 07:50:30
MURATAWaft-JSON0.012009-10-28 09:56:51
NATGHash-AutoHash-Args1.002009-10-28 14:51:43
VVELOXBIND-SDB-LDAP-Helper0.0.02009-10-28 16:35:10
CORNELIUSVIM-Uploader0.012009-10-28 16:40:37
OVIDPod-Parser-Groffmom0.0202009-10-28 18:07:19
CJCOLLIERHPSG-Mason0.012009-10-28 19:43:37
BYRNEXML-Sig0.12009-10-28 19:54:04
MRDVTGeo-GoogleEarth-Pluggable0.012009-10-29 00:27:50
MRDVTGeo-GoogleEarth-Pluggable-Plugin-CircleByCenterPoint0.012009-10-29 00:29:19
RJBSPod-Elemental-PerlMunger0.0930202009-10-29 00:50:55
FAYLANDBusiness-Eway0.012009-10-29 04:23:04
TURNERMMHTML-WikiConverter-DokuWikiFCK-0.30.09-Oct_0807_092009-10-29 04:30:02
OPIMMapDB0.042009-10-29 06:18:45
NATGHash-AutoHash-MultiValued1.002009-10-29 13:30:50
DWHEELERPg-Priv0.102009-10-29 16:46:02
POTYLGtk2-SourceView20.012009-10-29 18:44:08
IVANWILLSFile-CodeSearchv0.0.12009-10-29 20:15:32
FREWCatalyst-TraitFor-Controller-DBIC-DoesPaging0.0930202009-10-29 20:22:20
KUBINAGraph-Centrality-Pagerank1.02009-10-29 21:57:03
FREWCatalyst-ActionRole-PseudoCache0.0930302009-10-30 00:35:04
PMAKHOLMBenchmark-Serialize0.012009-10-30 07:17:12
KUBINAText-Ngramize1.02009-10-30 12:40:24
NATGHash-AutoHash-AVPairsSingle1.102009-10-30 14:06:22
NATGHash-AutoHash-AVPairsMulti1.102009-10-30 14:06:34
NATGHash-AutoHash-Record1.102009-10-30 14:08:01
JHALLOCKGtk2-Ex-Entry-SSN0.012009-10-30 18:26:33
JHALLOCKGtk2-Ex-FormFactory-DateEntry0.022009-10-30 18:26:44
JHALLOCKGtk2-Ex-FormFactory-Entry-SSN0.012009-10-30 18:26:57
TOKUHIROMnanouri0.012009-10-30 22:36:31
GUIMARDApache-Session-Browseable0.12009-10-31 04:09:42
EXODISTTest-Seperate0.0012009-10-31 05:10:00
BRAMBLEPadre-Plugin-Swarm0.012009-10-31 09:08:02
HMBRANDApp-tkiv0.1132009-10-31 09:25:57
NUFFINSub-Call-Tail0.012009-10-31 11:50:21
EXODISTTest-More-Fork0.0032009-10-31 16:11:50
PLUNet-Telnet-Gearman0.010002009-10-31 19:11:28

New Distributions for November 2009 (269)

AuthorDistributionVersionRelease Date/Time
SHADOVVCatalyst-View-HTML-CTPP20.012009-10-31 20:27:36
FLORANet-SSDP0.012009-10-31 23:55:22
REVMISCHACrypt-OTR0.012009-11-01 13:46:36
KENTNLCatalyst-Plugin-Spark-Form0.010000012009-11-01 14:03:38
SEWIPadre-Plugin-PHP0.022009-11-01 16:09:56
DWHEELERCatalyst-View-TD0.102009-11-01 16:45:06
NUFFINSub-Call-Recur0.012009-11-01 16:59:10
PFISCHERGetopt-Awesome0.12009-11-01 19:27:52
MIKIHOSHIopts0.012009-11-02 03:27:21
JROCKWAYTest-Sweet0.00_012009-11-02 04:40:48
KIRILLMExim-SpoolMessage0.012009-11-02 05:53:21
SUNNAVYRT-Extension-Nagios0.012009-11-02 06:33:54
NUFFINApp-Git-SitePerl0.012009-11-02 07:47:09
AWNCORPSweetPea-Application0.0212009-11-02 12:37:08
JJNAPIORKMooseX-Role-BuildInstanceOf0.012009-11-02 15:20:38
LEOCHARREexcel2csv1.012009-11-02 18:11:53
GUGUCSS-Croco0.012009-11-02 18:56:38
POTYLGtk2-Champlain0.012009-11-03 01:01:36
MMUELLERPadre-Plugin-HG0.142009-11-03 14:15:48
ICHITRD-Watch-Ping0.0.32009-11-03 21:29:41
ICHITRD-Watch-DB0.0.32009-11-04 00:20:50
ICHITRD-Watch-Web0.0.42009-11-04 00:21:13
MOBAcme-AsciiArtinator0.012009-11-04 02:15:53
NIERLEINTraceroute-Similar0.112009-11-04 03:09:00
TBRXCAP-Client0.012009-11-04 03:13:00
TYPESTERPod-HTMLEmbed0.012009-11-04 03:47:00
NIERLEINNagios-MKLivestatus0.102009-11-04 04:50:00
FLORAValue-Canary0.012009-11-04 07:11:32
UNRTSTAuthen-Simple-WebForm0.012009-11-04 12:16:45
NIERLEINNagios-Generator-TestConfig0.102009-11-04 14:53:36
SARTAKJifty-Plugin-Wikitext0.012009-11-04 16:28:56
RGLAUEXML-TreePP-Editor0.112009-11-04 18:12:03
MBROOKSApache2-WebApp-Toolkit0.012009-11-05 02:49:36
NUFFINConstant-FromGlobal0.012009-11-05 03:59:44
SDENMedical-NHSNumber0.012009-11-05 05:06:49
GARUTime-Duration-pt0.012009-11-05 08:29:13
RUZRegexp-Common-WithActions0.012009-11-05 11:27:52
SHLOMIFXML-Grammar-Fictionv0.0.12009-11-05 12:05:22
RUZRT-Extension-ColumnMap0.012009-11-05 12:43:43
RJBSMooseX-Storage-Format-JSONpm0.0930902009-11-05 14:14:58
LUNGCHINGDevel-Trace-More0.01_012009-11-05 17:40:27
MBROOKSApache2-WebApp-Plugin-CGI0.012009-11-06 01:30:26
MBROOKSApache2-WebApp-Plugin-Cookie0.012009-11-06 01:59:18
MBROOKSApache2-WebApp-Plugin-Filters0.012009-11-06 02:12:09
MBROOKSApache2-WebApp-Plugin-Validate0.012009-11-06 02:22:30
MBROOKSApache2-WebApp-Plugin-DBI0.012009-11-06 02:35:23
NATANAELDevel-CoverReport0.012009-11-06 09:30:39
ISHIGAKIEmail-MIME-Creator-ISO_2022_JP0.012009-11-06 09:52:34
DFIELDINGFedoraCommons-APIA0.12009-11-06 12:52:14
DFIELDINGFedoraCommons-APIM0.12009-11-06 12:52:25
RIVOTTISQL-QueryBuilder-Pretty0.012009-11-06 14:26:06
MARKSTOSCGI-Application-PSGI1.002009-11-06 22:54:23
VICTORIperlbal-plugin-backendheaders0.022009-11-06 23:26:10
VICTORIperlbal-plugin-stickysessions0.022009-11-06 23:26:22
KIMOTODBI-Custom0.01012009-11-07 04:44:32
KIMOTODBI-Custom-Basic0.01012009-11-07 04:44:43
KIMOTODBI-Custom-MySQL0.01012009-11-07 04:44:54
KIMOTODBI-Custom-Query0.01012009-11-07 04:45:06
KIMOTODBI-Custom-Result0.01012009-11-07 04:45:17
KIMOTODBI-Custom-SQLite0.01012009-11-07 04:46:44
KIMOTODBI-Custom-SQL-Template0.01012009-11-07 05:02:39
DAVIDNICOAcme-SvGROW0.032009-11-07 08:42:10
GSIEMSPadre-Plugin-Shell-Base0.12009-11-07 10:16:12
GSIEMSPadre-Plugin-Filter0.12009-11-07 10:19:00
EDOARDONet-Spotify0.012009-11-07 11:47:22
KOKOGIKOGeo-Hexv0.0.12009-11-07 21:09:00
GSIEMSPadre-Plugin-Template0.12009-11-07 22:18:35
KIMOTODBIx-Custom0.01012009-11-07 23:18:19
KIMOTODBIx-Custom-Basic0.01012009-11-07 23:18:30
KIMOTODBIx-Custom-MySQL0.01012009-11-07 23:18:41
KIMOTODBIx-Custom-Query0.01012009-11-07 23:18:53
KIMOTODBIx-Custom-Result0.01012009-11-07 23:19:04
KIMOTODBIx-Custom-SQLite0.01012009-11-07 23:20:31
KIMOTODBIx-Custom-SQL-Template0.01012009-11-07 23:20:39
VVELOXZConf-RSS-GUI-GTK0.0.02009-11-08 03:09:56
MIYAGAWAAnyEvent-Redis0.012009-11-08 06:38:54
FLORACatalyst-ActionRole-MatchRequestMethod0.012009-11-08 07:57:12
CHORNYGithub-Fork-Parent0.012009-11-08 09:49:04
SETITESUKMooseX-AttributeCloner0.12009-11-08 11:11:49
BOBTFISHIPC-ShellCmd0.0012009-11-08 20:52:05
KENTNLGentoo-MirrorList0.010001012009-11-08 23:03:35
DHOSSCatalyst-Role-Messages0.012009-11-09 01:42:41
ABIGAILAcme-CPANAuthors-CPANTS-FiveOrMore20091109012009-11-09 06:46:48
TBRSTUN-Attributes0.012009-11-09 08:31:48
TBRSTUN-Client0.012009-11-09 08:39:40
MONSAnyEvent-Connection0.022009-11-09 10:11:17
JETEVEApache2-REST0.012009-11-09 10:14:31
MONSSocket-AcceptFilter0.012009-11-09 10:24:51
CMORRISParse-Extract-Net-MAC480.012009-11-09 14:46:19
BDUGGANSQLite-VirtualTable-Pivot0.012009-11-09 16:07:51
DHOSSCatalystX-MessageSmush0.012009-11-09 17:41:18
PMQSCompress-Raw-Lzma2.0232009-11-09 18:26:47
PMQSIO-Compress-Lzma2.0232009-11-09 18:27:11
RODRIGOCrypt-Blowfish-Mod0.012009-11-09 19:06:39
DRAXILWWW-Wave-Sniff0.1_0012009-11-09 19:37:21
DHOSSCatalystX-FeedbackMessages0.042009-11-09 21:53:05
VVELOXGtk2-Ex-Email-AddressVBox0.0.02009-11-09 22:23:54
TOBYINKRDF-Query-Client0.012009-11-10 09:38:30
FRANCKCWebservice-Google-Suggest0.042009-11-10 11:46:22
PLCGIMojoX-Session-Store-Memcached0.012009-11-10 12:09:18
BARBIEAcme-CPANAuthors-British0.012009-11-10 17:40:34
VVELOXGtk2-Ex-Email-AttachmentVBox0.0.02009-11-10 19:32:45
SHARYANTOAcme-CPANAuthors-Indonesian0.012009-11-10 19:35:33
VVELOXGtk2-Ex-Email-AAnotebook0.0.02009-11-10 23:05:17
MIKIAnyEvent-Pcap0.000012009-11-10 23:46:28
DMAKIMorris0.01000_012009-11-11 00:17:36
OYAMACrypt-Keyczar0.032009-11-11 03:19:53
MIYAGAWATatsumaki0.10002009-11-11 04:36:45
MIYAGAWATatsumaki-Service-XMPP0.012009-11-11 04:40:51
RPETTETTNet-MemcacheQ12009-11-11 07:48:15
FIBOPNIProject.200910272009-11-11 12:33:02
FIBOPNI_PROJECT.200911112009-11-11 12:41:09
ALIZTAGeo-Coder-Multiple0.12009-11-11 12:42:35
GSULLIVANNumber-FormatEng0.012009-11-11 15:03:08
AMONTEROText-IdMor0.92009-11-11 15:31:48
MONSTest-If0.012009-11-11 16:50:28
AMONTEROSymbol-Name0.92009-11-11 17:04:55
AMONTEROText-AsReadWithoutIntonation0.92009-11-11 17:12:45
JBEVERLYMemoize-Expire-ByInstance0.52009-11-11 17:39:51
DAVIDApp-PerlCalc1.0.02009-11-11 19:20:01
VVELOXGtk2-Ex-Email-Compose0.0.02009-11-11 20:20:23
MBROOKSApache2-WebApp-Plugin-DateTime0.012009-11-11 23:23:53
MBROOKSApache2-WebApp-Plugin-Session0.012009-11-11 23:57:13
MBROOKSApache2-WebApp-Plugin-Session-File0.012009-11-12 00:13:51
MBROOKSApache2-WebApp-Plugin-Session-MySQL0.012009-11-12 00:40:53
DAVIDJavaScript-Hash0.9.02009-11-12 07:19:31
CLKAOPlack-Middleware-JSConcat0.282009-11-12 09:28:42
ALIZTAList-Util-WeightedRoundRobin0.12009-11-12 11:56:43
JROCKWAYMooseX-FileAttribute0.012009-11-12 14:54:56
VKRAMSKIHAnyEvent-FCGI0.012009-11-12 18:06:32
MONSTest-Dist0.012009-11-12 18:51:02
DEANFNet-RADSWrappers0.012009-11-12 20:26:25
JESUSNet-RabbitMQ0.0.12009-11-12 23:38:33
PFISCHERTest-System0.012009-11-13 05:15:09
KENTNLDist-Zilla-Plugin-ModuleInstall0.010022192009-11-13 09:04:22
MARKOVNet-FTPSSL-Robust0.012009-11-13 11:11:18
SMUELLERPerl-APIReference0.012009-11-13 12:45:03
CORNELIUSNet-Plurk1258141140.282042009-11-13 14:40:14
NCLEATONTest-Group-Foreach0.012009-11-13 15:17:24
EKAWASPLUTO0.212009-11-13 15:58:11
BBURCHClean-Backspace1.002009-11-13 18:43:46
ZIBRIParse-DNS-Zone0.212009-11-13 20:22:47
HOLLYApp-CLI-Plugin-Proc-PID-File0.12009-11-14 10:25:29
DRRHORDF-SKOS0.022009-11-14 10:42:45
JQUELINTk-Sugar1.0931802009-11-14 13:51:47
EFUNNEKOData-RunningTotal0.012009-11-14 15:00:37
AQUILINAWWW-InstaMapper0.012009-11-14 17:47:28
TBRMooseX-Types-PortNumber0.012009-11-14 18:29:47
MBROOKSApache2-WebApp-Plugin-Session-Memcached0.012009-11-14 22:22:16
KULPPHP-Serialization-XS0.012009-11-14 22:23:46
KUNIYOSHIWebService-EastCoJp-Dictionary0.012009-11-15 03:49:35
ACCASAS-TRX0.022009-11-15 04:37:54
SMUELLERParse-ExuberantCTags-Merge1.002009-11-15 07:49:10
DATANagios-Spool-Writerv0.0.12009-11-15 17:15:18
MRDVTGeo-GoogleEarth-Pluggable-Plugin-Styles0.012009-11-15 21:17:42
REDICAPSPJob0.172009-11-15 22:39:30
BDFOYPod-WordML0.122009-11-15 23:08:56
GUGODAnyEvent-Plurk0.012009-11-16 00:26:59
MATTKNumber-Object-Plugin-Tax-AU0.012009-11-16 00:36:36
TSUCCHITest-DataLoader-MySQL0.0.12009-11-16 01:35:03
NUCLONCatalyst-Action-MatchHost0.012009-11-16 05:16:29
HAVIBusiness-Zahlschein0.012009-11-16 09:49:12
VTIbootylicious0.9001012009-11-16 16:54:27
VTIBootylicious-Plugin-Search0.9001012009-11-16 16:58:48
VTIBootylicious-Plugin-GoogleAnalytics0.9901012009-11-16 17:00:15
VTIBootylicious-Parser-Md0.9901012009-11-16 17:01:48
VTIBootylicious-Plugin-I18n0.9901012009-11-16 17:01:53
RJBSString-Formatter0.0932002009-11-16 23:42:24
TOMONet-IP-Match-Bin0.052009-11-17 00:48:50
FAYLANDBusiness-PxPay0.012009-11-17 01:38:30
DMAKICatalyst-View-MicroTemplate0.000012009-11-17 02:00:13
EXODISTApp-MultiUser0.00012009-11-17 02:46:19
FRIFFINNet-AIM-TOC0.972009-11-17 05:00:12
SIXTEASECSS-Adaptor-Whitelist0.0012009-11-17 05:50:44
TURNERMMHTML-WikiConverter-DokuWikiFCK-0.31.09-Nov_1609_002009-11-17 06:37:11
MIRODApp-xml_grep20.092009-11-17 09:54:54
BINGOSAcme-Daily-Fail1.002009-11-17 11:29:17
NUCLONCatalyst-ActionRole-MatchHost0.032009-11-17 14:22:49
TBRURI-tel0.012009-11-17 16:01:39
DAVIDFile-HashCache-JavaScript0.10.02009-11-17 18:41:52
ACCARDOString-Compare-Length0.012009-11-17 21:51:46
MSCHOUTApache2-Filter-CSS-LESSp0.102009-11-18 00:39:35
KJETILKRDF-Trine-Node-Literal-XML0.12009-11-18 01:49:38
SHARYANTOData-Schema-Schema-CPANMeta0.022009-11-18 03:51:15
TBRWWW-Shorten-Miudin1.02009-11-18 05:45:37
PEVANSNet-Async-IRC0.012009-11-18 10:23:33
MSCHOUTApache2-Filter-CSS-LESS0.202009-11-18 11:30:26
AUDREYTApp-SocialCalc-Multiplayer200911182009-11-18 11:46:03
SREZICAcme-Study-OS-DateLocales0.012009-11-18 16:09:09
ABIGAILAcme-CPANAuthors-Pumpkings20091118012009-11-18 17:37:04
ABIGAILAcme-MathProfessor-RandomPrime20091119012009-11-18 19:47:15
CAMSTUARTScriptUtil0.012009-11-18 20:55:38
AWNCORPSweetPea-Cli0.022009-11-18 23:23:39
MOBForks-Super0.042009-11-18 23:33:58
MPELZERNet-DNS-Dynamic-Proxyserver1.02009-11-19 06:37:16
FRIFFINGeo-Coder-Cloudmade0.12009-11-19 06:48:53
MIKIHOSHISWF-Generator0.012009-11-19 21:32:17
ICCConfig-General-Hierarchical0.032009-11-20 08:21:05
SDPRICEApp-Framework-Lite1.002009-11-20 08:23:54
EFUNNEKOGD-Window0.012009-11-20 08:59:26
JQUELINDist-Zilla-Plugin-Git1.0932402009-11-20 12:37:17
RUZRT-Extension-MoveRules0.012009-11-20 21:45:54
KARMANSWISH-30.012009-11-20 23:00:29
GPHATData-SearchEngine-Solr0.012009-11-21 00:17:49
ISHIGAKIPod-PerldocJp0.012009-11-21 03:41:01
SMUELLERPadre-Plugin-XS0.012009-11-21 14:29:22
DROLSKYMarkdent0.012009-11-21 15:59:31
CYCLESSchemaEvolution0.012009-11-21 19:23:25
PANYUNet-LDAPxs0.012009-11-22 08:57:39
TSUCCHITest-Module-Used0.0.12009-11-22 09:04:14
KAKADUBootylicious-Plugin-Gallery0.052009-11-22 12:29:01
VVUGrowl-Tiny0.0.12009-11-22 15:52:13
DAVECROSSWWW-Shorten-NotLong2.002009-11-22 15:56:24
BARBIECPAN-Testers-Data-Addresses0.012009-11-22 16:45:49
MBROOKSApache2-WebApp-Plugin-JSON0.012009-11-22 21:45:14
ADAMKORDB-AU-Census20060.012009-11-23 05:19:35
ABIGAILGames-Word-Wordlist-Enable20091123012009-11-23 11:13:22
STEVECOOKHTML-Laundry0.012009-11-23 12:40:33
CAVACMaplat0.92009-11-23 12:45:53
TIMABundle-Melody-Test0.9.62009-11-23 13:46:51
ROGERHALLIOSea-Browse1.0.02009-11-23 14:41:26
MBROOKSApache2-WebApp-Plugin-Memcached0.012009-11-24 03:34:49
TEDDYTemplate-Plugin-ListCompare0.012009-11-24 07:59:53
ALECWWW-AtMovies0.012009-11-24 11:31:03
DSTHStatistics-Distributions-Ancova0.012009-11-24 13:24:15
AJGBMooseX-Types-XMLSchema0.01_12009-11-24 14:25:10
MSTROUTWeb-Simple0.0012009-11-24 17:12:17
AJGBWSDL-Compile0.01_12009-11-24 18:02:23
KARMANSWISH-Prog-Xapian0.012009-11-24 23:21:43
ROGERHALLHTML-Browse1.0.02009-11-25 06:05:07
NUFFINLexical-SingleAssignment0.012009-11-25 09:49:29
GUGODAnyEvent-RTPG0.012009-11-25 10:03:56
CYCLESSQL-Abstract-Plugin-InsertReturning0.012009-11-25 10:33:51
GPHATData-Paginator0.012009-11-25 11:21:37
JASLONGIPC-Notify0.22009-11-25 12:59:55
GRODITICantella-Store-UUID0.0010002009-11-25 13:48:02
MDOMBot-BasicBot-Pluggable-Module-WWWShorten0.022009-11-25 16:12:06
ZSTEVENSGitalist0.000000_012009-11-25 18:00:31
MYKLHardware-Vhdl-Automake1.002009-11-26 11:01:25
TEEJAYTest-HTTP-Response0.012009-11-26 12:47:56
GHENRYNet-Magrathea0.012009-11-26 13:23:06
MBROOKSApache2-WebApp-Plugin-Mail0.012009-11-26 17:57:05
MBROOKSApache2-WebApp-Plugin-File0.012009-11-26 18:30:06
MRDVTGeo-GoogleEarth-Pluggable-Plugin-GreatCircle0.012009-11-27 03:03:13
ROGERHALLCGI-Browse1.0.02009-11-27 03:41:29
PMAKHOLMApp-Bulkmail0.012009-11-27 05:49:25
DATANagios-Passivev0.2.02009-11-27 07:55:31
TOBYINKHTML-HTML5-Parser0.00_012009-11-27 10:19:38
PMAKHOLMAnyEvent-Postfix-Logs0.012009-11-27 11:29:40
JBOHMText-Patch-Rred0.062009-11-27 13:02:55
GPHATData-Manager0.012009-11-27 13:53:23
GRANTMApp-USBKeyCopyCon1.002009-11-27 21:28:03
NANARDONmmm0.432009-11-28 06:59:14
BRADSolaris-SMF0.012009-11-28 13:18:53
WREISDBIx-Class-Relationship-Predicate0.012009-11-28 13:39:21
VESELOSKYFeed-Pipe1.02009-11-28 17:06:17
MIYAGAWAPlack-Middleware-Deflater0.022009-11-28 23:38:14
YEGGWWW-WolframAlpha1.02009-11-29 11:04:41
RJBSDist-Zilla-Plugin-TaskWeaver0.0933302009-11-29 11:45:31
JMCNAMARAApp-Pod2CpanHtml0.012009-11-29 15:27:26
KTHAKORESDL2.3_12009-11-29 20:25:04
BRUCBio-FdrFet0.032009-11-29 22:58:02
KARMANSWISH-Prog-KSx0.012009-11-29 23:53:36
HANENKAMPForm-Factory0.0012009-11-30 02:13:58
KALEXXML-LibXML-Overlay0.12009-11-30 08:01:35
DSTHStatistics-Distributions-GTest0.1.02009-11-30 11:04:25
FAXIOMANTemplate-Plugin-SimpleJson0.012009-11-30 11:09:45
BRUNOVBio-Tools-Solubility-Wilkinson0.0933402009-11-30 16:02:58
CORIONWWW-Mechanize-Firefox0.122009-11-30 16:42:56

New Distributions for December 2009 (247)

AuthorDistributionVersionRelease Date/Time
MEYERINGFile-Coda1.92009-12-01 04:45:20
JEENAcme-CPANAuthors-Korean0.032009-12-01 06:08:24
AUFFLICKNet-APNS-Persistent0.012009-12-01 06:55:25
IDENTemplate-Plugin-Filter-I18N0.012009-12-01 08:29:07
CHANSENString-UTF80.12009-12-01 12:10:57
CHANSENString-UTF8-XS0.12009-12-01 12:11:03
KHULTMANMooseX-Types-IPv40.012009-12-01 17:30:02
GPHATMooseX-UndefTolerant0.012009-12-01 18:20:26
FREWTraitFor-Catalyst-Controller-DoesExtPaging0.0933502009-12-01 23:41:33
ROGERHALLAgents-FIPA0.012009-12-02 05:08:20
SATOHHTML-Trim0.012009-12-02 06:52:52
KMCGRATHTemplate-Plugin-LLHash0.012009-12-02 09:58:52
DALTSKIColor-Mix0.012009-12-02 10:31:01
KHULTMANMooseX-Object-IP-v40.012009-12-02 16:37:34
GUGUApp-Pm2Port0.232009-12-02 17:45:27
FREWCatalyst-TraitFor-Controller-DoesExtPaging0.0933602009-12-02 19:16:02
BOBTFISHAcme-CatalystX-ILoveDebug0.012009-12-02 21:03:11
JAWNSYAlgorithm-Diff-Any1.0002009-12-02 21:04:41
TRIDDLEMediaWiki-FastDump0.012009-12-02 21:54:18
BOBTFISHCatalyst-TraitFor-Controller-RenderView0.0012009-12-02 22:38:00
DANBOOMath-CPWLF0.102009-12-02 22:55:00
RIZENSimpleDB-Class0.00012009-12-02 23:40:44
JSWARTZAny-Template-ProcessDir0.012009-12-03 04:51:28
TOBYINKHTML-HTML5-Sanity0.012009-12-03 08:21:28
KIMOTOScript-Sub-Import0.01012009-12-03 08:23:26
SKIBundle-dualLived0.00_012009-12-03 08:23:40
KHULTMANObject-IP-v40.022009-12-03 09:54:02
KHULTMANNet-Address-IPv40.022009-12-03 10:26:06
BOBTFISHCatalyst-Model-LDAP-FromAuthentication0.00_012009-12-03 12:38:21
ELLIOTTCatalyst-ActionRole-RequireSSL0.012009-12-03 14:08:31
BRENDANTest-Mimic0.0090072009-12-03 20:03:14
BRENDANTest-Mimic-Generator0.0090052009-12-03 20:04:42
BRENDANTest-Mimic-Library0.0120062009-12-03 20:06:06
BRENDANTest-Mimic-Recorder0.0120052009-12-03 20:07:28
BJOERNAI-CRM1140.012009-12-04 00:57:34
VVELOXNet-SSL-AutoCA0.0.02009-12-04 03:17:44
STROCGI-Application-Plugin-DevPopup-Params1.002009-12-04 06:20:03
STROCGI-Application-Plugin-DevPopup-Query1.002009-12-04 07:49:22
STEFFENWLocale-TextDomain-OO0.012009-12-04 07:56:45
CUBCatalyst-TraitFor-Model-DBIC-Schema-ConnectInfo-Several0.012009-12-04 08:10:55
CUBCatalyst-TraitFor-Request-Params-Hashed0.012009-12-04 08:11:07
ASBMIME-Lite-HT-HTML0.012009-12-04 11:31:03
MIYAGAWACGI-Compile0.012009-12-04 11:55:13
JQUELINTk-Action1.0933802009-12-04 13:14:29
RSRCHBOYMooseX-MarkAsMethods0.032009-12-04 20:22:44
GFUJIAny-Moose-Convert0.0012009-12-05 02:19:51
ISHIGAKIHTML-Filter-Callbacks0.012009-12-05 02:30:18
DORWARDCatalyst-TraitFor-View-MarkupValidation0.0012009-12-05 04:34:28
ISHIGAKITest-MobileAgent0.012009-12-05 06:44:57
TOBYINKXRD-Parser0.012009-12-05 08:20:04
VVELOXNet-LDAP-AutoServer0.0.02009-12-05 13:50:04
TRIDDLEMediaWiki-DumpFile0.0.0_012009-12-05 18:08:49
ASGList-Step0.102009-12-05 20:24:44
GFUJIMouseX-Types-Common0.0010002009-12-05 22:19:08
MBROOKSBundle-Apache2-WebApp-Toolkit0.012009-12-06 05:17:50
JESSESTAYCatalyst-Authentication-Credential-Facebook0.010002009-12-06 05:48:11
JESSESTAYCatalyst-Authentication-Credential-Twitter0.010002009-12-06 05:49:41
ALASKAArray-Delegate0.012009-12-06 06:11:35
KNORRTk-SevenSegmentDisplay0.012009-12-06 07:53:52
MIKILingua-JA-OkapiBM250.000012009-12-06 12:29:40
ADAMKTemplate-Tiny0.012009-12-06 15:45:16
LESPEAProject-Eulerv0.1.32009-12-07 03:29:40
DSTHStatistics-PCA0.0.12009-12-07 10:16:56
GUGODText-Emoticon-Plurk0.012009-12-07 10:36:24
NPEREZData-DPath-Validator0.0934102009-12-07 10:37:54
DAXIMAlien-BWIPP0.0012009-12-07 15:11:35
DAXIMPostScript-Barcode0.0012009-12-07 15:13:03
EGILESDNS-ZoneEdit0.012009-12-07 18:15:04
HEMBREEDBusiness-PayPal-API-rel0.692009-12-07 18:52:32
KUBINAText-Corpus-NewYorkTimes1.002009-12-07 21:39:01
KUBINAText-Corpus-VoiceOfAmerica1.002009-12-07 21:39:15
AGENTTest-Nginx0.012009-12-07 22:44:47
SHARYANTOData-ModeMerge0.132009-12-08 00:06:06
FREWSyntax-Keyword-Gather0.0934202009-12-08 00:28:11
ARISTOTLEObject-Tiny-Lvalue1.062009-12-08 09:51:51
KZYSTest-Synchronized0.012009-12-08 10:15:09
MIKIText-Bayon0.000012009-12-08 11:56:27
JHTHORSENCatalystX-Controller-Sugar-ActionPack0.012009-12-08 16:34:11
OSFAMERONParse-FixedRecord0.012009-12-08 17:33:52
SAMVXML-Compare0.012009-12-08 20:21:52
KUBINAText-Corpus-Inspec1.002009-12-08 22:41:43
KUBINAText-Corpus-CNN1.002009-12-08 22:41:54
KAZUHOPlack-Server-Standalone-Prefork-Server-Starter0.012009-12-08 23:49:10
ALPHAZULUFuse-TM0.12009-12-09 02:21:09
LBROCARDCPAN-Mini-Live0.332009-12-09 08:22:27
SALVANet-SFTP-Foreign-Backend-Net_SSH20.012009-12-09 14:08:10
AUDREYTApp-Uni0.012009-12-09 19:01:33
DMAKICatalyst-Model-Orochi0.000012009-12-10 00:17:28
APOCALPOE-Component-SmokeBox-Uploads-Rsync0.012009-12-10 02:55:43
HINRIKFile-LinkDir0.012009-12-10 07:40:01
MGRIMESAnyEvent-Filesys-Notify0.022009-12-10 11:55:19
STEVANPlack-App-Path-Router0.012009-12-10 15:07:32
CFAERBERAuthen-SASL-SASLprep1.002009-12-10 19:11:02
SHLOMIFFile-Find-Object-Rule-VCSv0.0.12009-12-11 10:35:05
BINGOSPath-Executable0.022009-12-11 11:40:23
DSTHMath-GSL-Linalg-SVD0.0.12009-12-11 16:21:04
RUZRT-Extension-ReportSpam0.022009-12-11 18:16:37
MNDRIXSub-Future0.012009-12-11 23:07:04
SMUELLERAstro-Nova0.012009-12-12 14:32:41
DROLSKYTest-MyDeps0.012009-12-12 15:44:35
APOCALTest-Reporter-POEGateway0.012009-12-12 16:22:56
MARCELPlack-Middleware-Debug0.012009-12-12 19:16:12
DROLSKYTest-DependentModules0.042009-12-12 20:59:57
HAOYAYOIAcme-Albed0.012009-12-13 01:17:55
XIAOLANEmail-IsFree-CN02009-12-13 04:31:11
CHIBAPlack-Middleware-Header0.012009-12-13 07:05:20
SMUELLERAstro-Hipparcos0.012009-12-13 07:13:47
CMILLSWWW-Compete0.012009-12-13 13:01:11
LANTIArray-RemoveElements0.012009-12-13 13:04:00
JOHNDASP40.001_012009-12-13 20:38:47
PEVANSCPS-Governor-IOAsync0.012009-12-13 21:03:15
PERLERParse-Range0.952009-12-13 21:46:22
LESPEAString-Palindrome0.012009-12-13 21:55:52
YAPPOModule-Install-ReadmePodFromPod0.012009-12-13 22:17:02
HIROSENet-IP-Match-Trie0.01_012009-12-14 04:04:20
TOBYINKWWW-Finger0.012009-12-14 08:01:50
FRANCKCAnyEvent-Riak0.012009-12-14 10:14:06
BOBTFISHAlien-Ditaa0.0012009-12-14 10:24:48
MAUKEFunction-Parameters0.032009-12-14 16:00:05
MAUKEDefaults-Mauke0.042009-12-14 16:00:16
XSAWYERXApp-Genpass0.032009-12-14 17:15:31
MAUKEData-Munge0.022009-12-14 17:21:30
DSTHStatistics-PCA-Varimax0.0-12009-12-14 19:17:37
NWELLNHOFEmail-MIME-RFC20470.89_012009-12-14 20:08:44
KAZUHOCGI-Application-Emulate-PSGI0.012009-12-14 22:14:23
ABHMojoX-Session-Store-MongoDB0.502009-12-15 00:43:30
LBROCARDTest-WWW-Mechanize-PSGI0.332009-12-15 02:14:09
STEVANPlack-Middleware-Session0.012009-12-15 13:59:13
FLORIANPlack-Middleware-FirePHP0.012009-12-15 14:44:22
AMBSLingua-Flags0.072009-12-15 16:29:57
CBURELAlien-QtSmoke4.3.32009-12-16 02:48:50
CBURELQt40.60_b12009-12-16 02:50:23
XAICRONTemplate-Plugin-YAML-Encode0.012009-12-16 09:54:27
WOWASURINArray-OrdHash0.012009-12-16 11:40:19
JOHNDInline-MonoCS0.000_012009-12-16 14:52:46
KJELLMMooseX-App-Cmd-Command-BashComplete0.012009-12-16 15:04:55
MIYAGAWAHash-MultiValue0.012009-12-16 17:23:34
JBEVERLYOOP-Perlish-Class0.012009-12-16 17:27:14
LEMBARKObject-Wrapper0.032009-12-16 17:30:28
GWADEJDevice-USB-Win32Async0.302009-12-16 20:02:08
AUDREYTMooseX-Types-UniStr0.012009-12-16 20:29:31
JAYKCatalyst-Authentication-Realm-Adaptor0.012009-12-16 22:43:31
AWNCORPMelody-Data0.0012009-12-17 00:03:44
DMAKIApp-BundleDeps0.000012009-12-17 01:54:24
DMAKIModule-Install-Bundle-LocalLib0.000012009-12-17 01:55:53
DMAKIModule-Install-Bundle-Platypus0.000012009-12-17 01:56:09
JUMASHWWW-phpBB-Poster0.012009-12-17 02:11:32
AUDREYTMooseX-Types-Buf0.012009-12-17 07:01:09
MORIYADBICx-Modeler-Generator0.00022009-12-17 08:12:15
ALEXMVRT-Extension-LinkSelfLoops0.32009-12-17 15:11:16
CHORNYApp-EUMM-Upgrade0.212009-12-17 17:42:36
DSTHStatistics-PCA-Factor0.0-12009-12-17 17:42:51
DSTHStatistics-FactorAnalysis0.0-12009-12-17 18:10:52
CHIBAPlack-Middleware-RefererCheck0.012009-12-18 00:32:25
GFUJIMouseX-YAML0.0012009-12-18 00:33:54
HDAICHIScopeSession0.012009-12-18 11:48:48
VVELOXDir-Watch0.0.02009-12-18 12:32:07
SMUELLERAstro-MapProjection0.012009-12-18 14:10:47
DAGOLDENinstall0.012009-12-19 00:01:48
HDAICHIPlack-Middleware-ScopeSession0.012009-12-19 00:24:09
RPKELLYGetopt-Flex0.102009-12-19 01:01:07
RIZENPlack-App-JSON-RPC0.01002009-12-19 03:44:20
KAKADUBootylicious-Plugin-AjaxLibLoader0.042009-12-19 09:13:52
KAKADUBootylicious-Plugin-TocJquery0.042009-12-19 09:15:20
HDAICHIScope-Session0.022009-12-19 09:49:41
HDAICHIPlack-Middleware-Scope-Session0.012009-12-19 09:58:59
DAVECROSSWWW-Shorten-Shorl1.922009-12-19 10:41:31
RIZENJSON-RPC-Dispatcher0.01002009-12-19 12:45:00
XANTRFID-Libnfc0.022009-12-19 12:54:46
BONARFile-Path-Hashed0.012009-12-19 13:12:52
MVOELKERFTDI-D2XX0.012009-12-20 05:56:43
FRANCKCMooseX-Net-API0.062009-12-20 11:24:18
FRANCKCNet-Backtype0.012009-12-20 11:24:30
ROBINSPlack-App-Apache-ActionWrapper0.012009-12-20 11:40:03
XAICRONWin32-Unicode0.102009-12-20 12:04:17
ASGList-Gen0.302009-12-20 21:20:52
SKUBOTAEarthquake_EEW_Decoder0.012009-12-21 06:55:08
PEVANSList-UtilsBy0.012009-12-21 14:31:03
DANJOUPlack-Middleware-ReverseProxy0.012009-12-22 00:40:54
NEKOYADBIx-Skinny-Schema-Loader0.082009-12-22 01:04:43
NEKOYADBIx-Skinny-InflateColumn-DateTime0.022009-12-22 01:51:11
YUSUKEBEWebService-Simple-AWS0.012009-12-22 03:42:24
SIMONNet-eNom0.012009-12-22 09:41:28
KAPPACGI-Application-Dispatch-PSGI0.12009-12-22 10:22:16
BOBTFISHModule-Install-AutoProvidesFromCompilation0.012009-12-22 19:38:32
PDONELANPadre-Plugin-Plack0.012009-12-22 22:07:44
JAWNSYWebService-UWO-Directory-Service1.0032009-12-22 22:25:55
VVELOXIcon-Theme-List0.0.02009-12-22 22:34:03
LEEDOPlack-App-Proxy0.012009-12-23 00:24:16
MIKEJVOMS-Lite0.082009-12-23 14:22:28
BHANNDateTime-Event-Predict0.012009-12-23 16:36:11
GUGUDBIx-Class-QueryProfiler0.012009-12-24 18:08:25
RJBSPod-Elemental-Transformer-List0.0935802009-12-24 20:57:58
RJBSPod-Elemental-Transformer-SynHi0.0935802009-12-24 21:10:45
RJBSPod-Elemental-Transfomer-PPIHTML0.0935802009-12-24 21:16:50
RJBSPod-Elemental-Transfomer-VimHTML0.0935802009-12-24 21:19:47
RJBSWWW-AdventCalendar0.0935802009-12-24 21:25:20
YAPPOModule-Requires0.012009-12-24 23:29:48
PMURIASJavaScript-V80.012009-12-25 10:37:20
VVELOXIcon-Theme-Index-Parse0.0.02009-12-26 00:46:23
JAWNSYWWW-OPG1.0002009-12-26 01:11:29
VVELOXData-AnyBoolean0.0.02009-12-26 01:19:30
DRAEGTUNAcme-URL0.012009-12-26 15:22:31
VTIText-Haml0.9901012009-12-26 16:07:14
DRAEGTUNPerlX-QuoteOperator0.012009-12-26 17:06:51
CFAERBERColor-Calc-DEPRECATED1.059_200912262009-12-26 18:00:49
JLOPHTYNet-Hulu0.012009-12-27 06:15:42
PWESData-Typed-Expression0.0012009-12-27 10:04:59
GPHATGraphics-Primitive-Driver-GD0.012009-12-27 14:13:24
ISAGEBot-Jabbot0.32009-12-28 03:26:20
MSCHWERNBackPAN-Index0.37_012009-12-28 04:51:56
SIMONForm-Maker0.032009-12-28 06:38:43
HDAICHIJavaScript-Ectype0.012009-12-28 11:45:59
AMONTEROText-ToSentences02009-12-28 13:42:19
OINUMEDBIx-Thin0.012009-12-28 13:59:08
DANJOUGeo-Google-StaticMaps-Navigation0.012009-12-28 17:14:12
GARUDate-Holidays-BR0.012009-12-28 21:29:31
GARULocale-BR0.012009-12-29 00:12:44
GARUMooseX-Types-PIS0.012009-12-29 00:56:18
GARUPOD2-PT_BR0.012009-12-29 01:01:02
AWNCORPWin32-WMIC0.012009-12-29 04:30:59
CHORNYApp-EUMM-Migrate0.012009-12-29 07:13:26
BDFOYHTTP-Cookies-Chrome0.99_012009-12-29 09:48:42
PLUGearman-Driver0.01000_012009-12-29 11:44:12
SMUELLERAstro-SkyPlot0.012009-12-29 15:47:41
YAPPOJSTAPd0.012009-12-29 23:37:46
FAYLANDWWW-Google-Contacts0.01_012009-12-30 03:28:04
RANDOMMANVideo-FFmpeg0.432009-12-30 04:50:43
USUALOMAPHP-Var0.022009-12-30 08:32:39
USUALOMATest-FTP-Server0.012009-12-30 09:42:59
USUALOMANet-FTP-Find0.012009-12-30 09:56:12
PLUAlien-Libevent0.010002009-12-30 10:28:16
PLUAlien-Gearman0.010002009-12-30 10:57:21
JSHIRLEYCatalyst-Helper-View-TT-Bootstrap-YUI0.012009-12-30 12:13:03
HDAICHIJavaScript-Ectype-Handler-Apache20.0.12009-12-30 12:30:05
HDAICHIPlack-Middleware-JavaScript-Ectype0.0.12009-12-30 12:31:36
SALVAMath-Vector-Real0.012009-12-30 15:19:34
SJHAWTINMusicRoom0.402009-12-30 17:07:39
SQUEEKAcme-Tanasinn0.012009-12-30 21:40:14
MARTWebService-TypePad0.01_012009-12-30 21:45:58
TGIMMELHam-Device-FT9500.29.32009-12-31 01:12:02
YAPPOObject-InterfaceType0.012009-12-31 01:59:13
SIMONNet-KashFlow0.012009-12-31 08:28:07
MUENALANFile-Box0.012009-12-31 08:53:06
MUENALANFile-Convert-CSV0.032009-12-31 08:55:57
MUENALANWorkflow-Aline0.032009-12-31 09:02:10
JMERELONet-Lujoyglamour0.0.12009-12-31 13:10:00